[[{"header":{"parameterUnit":"m.s-1","parameterCategory":1,"la1":30.6,"la2":29.2853,"lo1":-89.7004,"lo2":-87.6739,"dy":0.0162,"dx":0.0183,"nx":112,"ny":82,"refTime":"2024-09-18T12:00:00:Z","depth":0,"parameterNumber":2,"parameterNumberName":"U-component_of_WINDS"},"data":[0.0,0.0,0.0,0.0,0.0,0.0,0.0,0.0,0.0,0.0,0.0,0.0,0.0,0.0,0.0,0.0,0.0,0.0,0.0,0.0,0.0,0.0,0.0,0.0,0.0,0.0,0.0,0.0,0.0,0.0,0.0,0.0,0.0,0.0,0.0,0.0,0.0,0.0,0.0,0.0,0.0,0.0,0.0,0.0,0.0,0.0,0.0,0.0,0.0,0.0,0.0,0.0,0.0,0.0,0.0,0.0,0.0,0.0,0.0,0.0,0.0,0.0,0.0,0.0,0.0,0.0,0.0,0.0,0.0,0.0,0.0,0.0,0.0,0.0,0.0,0.0,0.0,0.0,0.0,0.0,0.0,0.0,0.0,0.0,0.0,0.0,0.0,0.0,0.0,0.0,1.6428,1.7423,1.973,2.1008,2.0531,2.061,1.922,1.5754,0.0,0.0,0.0,0.0,0.0,0.0,0.0,0.0,0.0,0.0,0.0,0.0,0.0,0.0,0.0,0.0,0.0,0.0,0.0,0.0,0.0,0.0,0.0,0.0,0.0,0.0,0.0,0.0,0.0,0.0,0.0,0.0,0.0,0.0,0.0,0.0,0.0,0.0,0.0,0.0,0.0,0.0,0.0,0.0,0.0,0.0,0.0,0.0,0.0,0.0,0.0,0.0,0.0,0.0,0.0,0.0,0.0,0.0,0.0,0.0,0.0,0.0,0.0,0.0,0.0,0.0,0.0,0.0,0.0,0.0,0.0,0.0,0.0,0.0,0.0,0.0,0.0,0.0,0.0,0.0,0.0,0.0,0.0,0.0,0.0,0.0,0.0,0.0,0.0,0.0,0.0,0.0,0.0,0.0,0.0,0.0,0.0,0.0,0.0,0.0,0.0,0.0,0.0,0.0,1.6216,1.9524,2.1519,2.2495,2.2252,2.0974,1.9308,1.7204,0.0,0.0,0.0,0.0,0.0,0.0,0.0,0.0,0.0,0.0,0.0,0.0,0.0,0.0,0.0,0.0,0.0,0.0,0.0,0.0,0.0,0.0,0.0,0.0,0.0,0.0,0.0,0.0,0.0,0.0,0.0,0.0,0.0,0.0,0.0,0.0,0.0,0.0,0.0,0.0,0.0,0.0,0.0,0.0,0.0,0.0,0.0,0.0,0.0,0.0,0.0,0.0,0.0,0.0,0.0,0.0,0.0,0.0,0.0,0.0,0.0,0.0,0.0,0.0,0.0,0.0,0.0,0.0,0.0,0.0,0.0,0.0,0.0,0.0,0.0,0.0,0.0,0.0,0.0,0.0,0.0,0.0,0.0,0.0,0.0,0.0,0.0,0.0,0.0,0.0,0.0,0.0,0.0,0.0,0.0,0.0,0.0,0.0,0.0,0.0,0.0,0.0,0.0,1.5879,1.7227,2.03,2.1111,2.1369,2.1202,1.995,1.8355,1.6438,1.5443,0.0,0.0,0.0,0.0,0.0,0.0,0.0,0.0,0.0,0.0,0.0,0.0,0.0,0.0,0.0,0.0,0.0,0.0,0.0,0.0,0.0,0.0,0.0,0.0,0.0,0.0,0.0,0.0,0.0,0.0,0.0,0.0,0.0,0.0,0.0,0.0,0.0,0.0,0.0,0.0,0.0,0.0,0.0,0.0,0.0,0.0,0.0,0.0,0.0,0.0,0.0,0.0,0.0,0.0,0.0,0.0,0.0,0.0,0.0,0.0,0.0,0.0,0.0,0.0,0.0,0.0,0.0,0.0,0.0,0.0,0.0,0.0,0.0,0.0,0.0,0.0,0.0,0.0,0.0,0.0,0.0,0.0,0.0,0.0,0.0,0.0,0.0,0.0,0.0,0.0,0.0,0.0,0.0,0.0,0.0,0.0,0.0,0.0,0.0,0.0,0.0,0.0,1.781,1.8679,2.0646,2.0664,2.0484,2.0397,1.8961,1.7316,1.5512,1.4259,0.0,0.0,0.0,0.0,0.0,0.0,0.0,0.0,0.0,0.0,0.0,0.0,0.0,0.0,0.0,0.0,0.0,0.0,0.0,0.0,0.0,0.0,0.0,0.0,0.0,0.0,0.0,0.0,0.0,0.0,0.0,0.0,0.0,0.0,0.0,0.0,0.0,0.0,0.0,0.0,0.0,0.0,0.0,0.0,0.0,0.0,0.0,0.0,0.0,0.0,0.0,0.0,0.0,0.0,0.0,0.0,0.0,0.0,0.0,0.0,0.0,0.0,0.0,0.0,0.0,0.0,0.0,0.0,0.0,0.0,0.0,0.0,0.0,0.0,0.0,0.0,0.0,0.0,0.0,0.0,0.0,0.0,0.0,0.0,0.0,0.0,0.0,0.0,0.0,0.0,0.0,0.0,0.0,0.0,0.0,0.0,0.0,0.0,0.0,0.0,0.0,0.0,1.8344,2.0315,2.0914,2.131,2.1494,2.1482,1.8782,1.6612,1.5469,1.3301,0.0,0.0,0.0,0.0,0.0,0.0,0.0,0.0,0.0,0.0,0.0,0.0,0.0,0.0,0.0,0.0,0.0,0.0,0.0,0.0,0.0,0.0,0.0,0.0,0.0,0.0,0.0,0.0,0.0,0.0,0.0,0.0,0.0,0.0,0.0,0.0,0.0,0.0,0.0,0.0,0.0,0.0,0.0,0.0,0.0,0.0,0.0,0.0,0.0,0.0,0.0,0.0,0.0,0.0,0.0,0.0,0.0,0.0,0.0,0.0,0.0,0.0,0.0,0.0,0.0,0.0,0.0,0.0,0.0,0.0,0.0,0.0,0.0,0.0,0.0,0.0,0.0,0.0,0.0,0.0,0.0,0.0,0.0,0.0,0.0,0.0,0.0,0.0,0.0,0.0,0.0,0.0,0.0,0.0,0.0,0.0,0.0,0.0,0.0,0.0,0.0,0.0,1.7243,1.8786,2.0561,2.0283,2.008,2.0334,1.8453,1.6607,1.5127,0.0,0.0,0.0,0.0,0.0,0.0,0.0,0.0,0.0,0.0,0.0,0.0,0.0,0.0,0.0,0.0,0.0,0.0,0.0,0.0,0.0,0.0,0.0,0.0,0.0,0.0,0.0,0.0,0.0,0.0,0.0,0.0,0.0,0.0,0.0,0.0,0.0,0.0,0.0,0.0,0.0,0.0,0.0,0.0,0.0,0.0,0.0,0.0,0.0,0.0,0.0,0.0,0.0,0.0,0.0,0.0,0.0,0.0,0.0,0.0,0.0,0.0,0.0,0.0,0.0,0.0,0.0,0.0,0.0,0.0,0.0,0.0,0.0,0.0,0.0,0.0,0.0,0.0,0.0,0.0,0.0,0.0,0.0,0.0,0.0,0.0,0.0,0.0,0.0,0.0,0.0,0.0,0.0,0.0,0.0,0.0,0.0,0.0,0.0,0.0,0.0,0.0,1.5739,1.6754,1.8104,2.0127,1.9643,1.923,1.9342,1.7837,1.6177,1.4522,0.0,0.0,0.0,0.0,0.0,0.0,0.0,0.0,0.0,0.0,0.0,0.0,0.0,0.0,0.0,0.0,0.0,0.0,0.0,0.0,0.0,0.0,0.0,0.0,0.0,0.0,0.0,0.0,0.0,0.0,0.0,0.0,0.0,0.0,0.0,0.0,0.0,0.0,0.0,0.0,0.0,0.0,0.0,0.0,0.0,0.0,0.0,0.0,0.0,0.0,0.0,0.0,0.0,0.0,0.0,0.0,0.0,0.0,0.0,0.0,0.0,0.0,0.0,0.0,0.0,0.0,0.0,0.0,0.0,0.0,0.0,0.0,0.0,0.0,0.0,0.0,0.0,0.0,0.0,0.0,0.0,0.0,0.0,0.0,0.0,0.0,0.0,0.0,0.0,0.0,0.0,0.0,0.0,0.0,0.0,0.0,0.0,0.0,0.0,0.0,0.0,0.0,1.5285,1.7205,1.8819,1.9698,1.9669,1.9367,1.8834,1.6961,1.5186,0.0,0.0,0.0,0.0,0.0,0.0,0.0,0.0,0.0,0.0,0.0,0.0,0.0,0.0,0.0,0.0,0.0,0.0,0.0,0.0,0.0,0.0,0.0,0.0,0.0,0.0,0.0,0.0,0.0,0.0,0.0,0.0,0.0,0.0,0.0,0.0,0.0,0.0,0.0,0.0,0.0,0.0,0.0,0.0,0.0,0.0,0.0,0.0,0.0,0.0,0.0,0.0,0.0,0.0,0.0,0.0,0.0,0.0,0.0,0.0,0.0,0.0,0.0,0.0,0.0,0.0,0.0,0.0,0.0,0.0,0.0,0.0,0.0,0.0,0.0,0.0,0.0,0.0,0.0,0.0,0.0,0.0,0.0,0.0,0.0,0.0,0.0,0.0,0.0,0.0,0.0,0.0,0.0,0.0,0.0,0.0,0.0,0.0,0.0,0.0,0.0,0.0,0.0,1.4771,1.6576,1.7995,1.8536,1.8573,1.8335,1.7857,1.6921,1.5496,1.3447,0.0,0.0,0.0,0.0,0.0,0.0,0.0,0.0,0.0,0.0,0.0,0.0,0.0,0.0,0.0,0.0,0.0,0.0,0.0,0.0,0.0,0.0,0.0,0.0,0.0,0.0,0.0,0.0,0.0,0.0,0.0,0.0,0.0,0.0,0.0,0.0,0.0,0.0,0.0,0.0,0.0,0.0,0.0,0.0,0.0,0.0,0.0,0.0,0.0,0.0,0.0,0.0,0.0,0.0,0.0,0.0,0.0,0.0,0.0,0.0,0.0,0.0,0.0,0.0,0.0,0.0,0.0,0.0,0.0,0.0,0.0,0.0,0.0,0.0,0.0,0.0,0.0,0.0,0.0,0.0,0.0,0.0,0.0,0.0,0.0,0.0,0.0,0.0,0.0,0.0,0.0,0.0,0.0,0.0,0.0,0.0,0.0,0.0,0.0,0.0,0.0,0.0,1.452,1.6087,1.7394,1.8035,1.8098,1.7905,1.7404,1.6885,1.566,1.3463,0.0,0.0,0.0,0.0,0.0,0.0,0.0,0.0,0.0,0.0,0.0,0.0,0.0,0.0,0.0,0.0,0.0,0.0,0.0,0.0,0.0,0.0,0.0,0.0,0.0,0.0,0.0,0.0,0.0,0.0,0.0,0.0,0.0,0.0,0.0,0.0,0.0,0.0,0.0,0.0,0.0,0.0,0.0,0.0,0.0,0.0,0.0,0.0,0.0,0.0,0.0,0.0,0.0,0.0,0.0,0.0,0.0,0.0,0.0,0.0,0.0,0.0,0.0,0.0,0.0,0.0,0.0,0.0,0.0,0.0,0.0,0.0,0.0,0.0,0.0,0.0,0.0,0.0,0.0,0.0,0.0,0.0,0.0,0.0,0.0,0.0,0.0,0.0,0.0,0.0,0.0,0.0,0.0,0.0,0.0,0.0,0.0,0.0,0.0,0.0,0.0,0.0,1.4498,1.5762,1.6937,1.7927,1.8027,1.7811,1.7275,1.6797,1.5678,1.3664,0.0,0.0,0.0,0.0,0.0,0.0,0.0,0.0,0.0,0.0,0.0,0.0,0.0,0.0,0.0,0.0,0.0,0.0,0.0,0.0,0.0,0.0,0.0,0.0,0.0,0.0,0.0,0.0,0.0,0.0,0.0,0.0,0.0,0.0,0.0,0.0,0.0,0.0,0.0,0.0,0.0,0.0,0.0,0.0,0.0,0.0,0.0,0.0,0.0,0.0,0.0,0.0,0.0,0.0,0.0,0.0,0.0,0.0,0.0,0.0,1.4418,1.3842,0.0,0.0,0.0,0.0,0.0,0.0,0.0,0.0,0.0,0.0,0.0,0.0,0.0,0.0,0.0,0.0,0.0,0.0,0.0,0.0,0.0,0.0,0.0,0.0,0.0,0.0,0.0,0.0,0.0,0.0,0.0,0.0,0.0,0.0,0.0,0.0,0.0,0.0,0.0,0.0,1.4677,1.5683,1.6588,1.739,1.7462,1.7252,1.6718,1.6242,1.5354,1.3904,1.2462,0.0,0.0,0.0,0.0,0.0,0.0,0.0,0.0,0.0,0.0,0.0,0.0,0.0,0.0,0.0,0.0,0.0,0.0,0.0,0.0,0.0,0.0,0.0,0.0,0.0,0.0,0.0,0.0,0.0,0.0,0.0,0.0,0.0,0.0,0.0,0.0,0.0,0.0,0.0,0.0,0.0,0.0,0.0,0.0,0.0,0.0,0.0,0.0,0.0,0.0,0.0,0.0,0.0,0.0,0.0,0.0,0.0,0.0,0.0,1.64,1.5699,0.0,0.0,0.0,0.0,0.0,0.0,0.0,0.0,0.0,0.0,0.0,0.0,0.0,0.0,0.0,0.0,0.0,0.0,0.0,0.0,0.0,0.0,0.0,0.0,0.0,0.0,0.0,0.0,0.0,0.0,0.0,0.0,0.0,0.0,0.0,0.0,0.0,0.0,0.0,0.0,1.4536,1.5662,1.6594,1.7219,1.7306,1.7197,1.6907,1.6424,1.5663,1.4555,1.3386,0.0,0.0,0.0,0.0,0.0,0.0,0.0,0.0,0.0,0.0,0.0,0.0,0.0,0.0,0.0,0.0,0.0,0.0,0.0,0.0,0.0,0.0,0.0,0.0,0.0,0.0,0.0,0.0,0.0,0.0,0.0,0.0,0.0,0.0,0.0,0.0,0.0,0.0,0.0,0.0,0.0,0.0,0.0,0.0,0.0,0.0,0.0,0.0,0.0,0.0,0.0,0.0,0.0,1.7868,1.8326,1.9375,1.9286,1.9559,1.9977,1.8376,1.7799,1.794,1.6938,0.0,0.0,0.0,0.0,0.0,0.0,0.0,0.0,0.0,0.0,0.0,0.0,0.0,0.0,0.0,0.0,0.0,0.0,0.0,0.0,0.0,0.0,1.5318,1.5619,1.5659,1.5196,1.3594,0.0,0.0,0.0,0.0,0.0,0.0,0.0,0.0,0.0,0.0,0.0,1.4508,1.5695,1.6643,1.7185,1.7239,1.7239,1.7239,1.6768,1.612,1.5312,1.4496,1.3476,0.0,0.0,0.0,0.0,0.0,0.0,0.0,0.0,0.0,0.0,0.0,0.0,0.0,0.0,0.0,0.0,0.0,0.0,0.0,0.0,0.0,0.0,0.0,0.0,0.0,0.0,0.0,0.0,0.0,0.0,0.0,0.0,1.3361,1.5397,0.0,0.0,0.0,0.0,0.0,0.0,0.0,0.0,0.0,0.0,0.0,0.0,0.0,1.8078,1.8825,1.98,2.0569,2.1117,2.1199,2.1391,2.1653,2.1533,2.1208,2.0747,2.0504,0.0,1.9169,1.794,0.0,0.0,0.0,0.0,0.0,0.0,0.0,0.0,0.0,0.0,0.0,0.0,0.0,0.0,0.0,0.0,0.0,0.0,0.0,0.0,0.0,0.0,1.6313,1.541,1.5497,1.5566,1.4803,1.4272,1.3881,1.3659,1.2763,1.2007,0.0,0.0,0.0,0.0,0.0,0.0,1.5102,1.5785,1.6371,1.6982,1.7039,1.7039,1.7039,1.6604,1.6224,1.5978,1.5103,1.4407,1.3966,1.3032,0.0,0.0,0.0,0.0,0.0,0.0,0.0,0.0,0.0,0.0,0.0,0.0,0.0,0.0,0.0,0.0,0.0,0.0,0.0,0.0,0.0,0.0,0.0,0.0,0.0,0.0,0.0,0.0,0.0,1.3137,1.5275,1.6551,1.6723,1.648,0.0,0.0,0.0,0.0,0.0,0.0,0.0,0.0,0.0,1.8558,1.9371,1.9947,2.0249,2.1056,2.1575,2.1808,2.2211,2.2187,2.1777,2.2295,2.2043,2.1206,2.0805,2.0388,1.992,1.8784,1.7921,1.7231,0.0,0.0,0.0,0.0,1.5578,1.558,1.5829,1.5872,1.5708,1.5145,0.0,0.0,0.0,0.0,0.0,0.0,0.0,1.6228,1.6153,1.6635,1.6993,1.643,1.6451,1.6503,1.6241,1.5782,1.5189,1.4445,1.3839,1.328,1.2807,1.2325,0.0,0.0,0.0,1.4402,1.5441,1.6114,1.6587,1.686,1.6881,1.6881,1.6881,1.6699,1.6434,1.6116,1.5709,1.5322,1.4939,1.4078,1.3227,0.0,0.0,0.0,0.0,0.0,0.0,0.0,0.0,0.0,0.0,0.0,0.0,0.0,0.0,0.0,0.0,0.0,0.0,0.0,0.0,0.0,0.0,0.0,0.0,0.0,0.0,0.0,0.0,1.4844,1.6668,1.7723,1.8026,1.7925,0.0,0.0,0.0,0.0,0.0,0.0,1.8494,1.8921,1.9485,2.0274,2.1169,2.1594,2.1499,2.2154,2.2392,2.2218,2.2662,2.2435,2.1629,2.238,2.2212,2.1291,2.0738,2.0414,2.0166,1.923,1.8532,1.8027,1.7524,1.7019,1.6595,1.6973,1.7079,1.7087,1.7499,1.7578,1.7379,1.6626,1.6135,1.5675,1.4807,0.0,0.0,0.0,0.0,1.7082,1.7292,1.7434,1.7454,1.7218,1.7233,1.7252,1.7121,1.6847,1.631,1.5224,1.4792,1.4395,1.3703,1.3112,0.0,1.3498,1.4224,1.4911,1.5507,1.6156,1.6605,1.669,1.669,1.6719,1.6761,1.6761,1.6599,1.6198,1.6187,1.5962,1.5505,1.4948,1.4318,1.3589,0.0,0.0,0.0,0.0,0.0,0.0,0.0,0.0,0.0,0.0,0.0,0.0,0.0,0.0,0.0,0.0,0.0,0.0,0.0,0.0,0.0,0.0,0.0,0.0,0.0,0.0,0.0,0.0,0.0,1.9349,1.9141,0.0,0.0,0.0,0.0,1.7987,1.8917,1.9825,2.0614,2.1095,2.1367,2.1426,2.233,2.2815,2.28,2.3654,2.372,2.3048,2.3072,2.267,2.1878,2.1922,2.1559,2.0829,2.0794,2.0412,1.9775,1.9017,1.8538,1.8282,1.8248,1.7949,1.7514,1.7417,1.7371,1.7368,1.7267,1.7233,1.7207,1.7157,1.7209,1.7193,1.6692,1.6967,0.0,0.0,1.6975,1.7351,1.7231,1.7545,1.7735,1.7149,1.7294,1.7418,1.6848,1.6851,1.6751,1.5994,1.5471,1.5046,1.4694,0.0,1.4079,1.4554,1.4676,1.4827,1.5177,1.565,1.6072,1.6398,1.6416,1.6463,1.6595,1.6613,1.6542,1.6385,1.6385,1.6164,1.5697,1.5649,1.5047,1.381,1.2834,0.0,0.0,0.0,0.0,0.0,0.0,0.0,0.0,0.0,0.0,0.0,0.0,0.0,0.0,0.0,0.0,0.0,0.0,0.0,0.0,0.0,0.0,0.0,0.0,0.0,0.0,0.0,0.0,2.015,2.0741,0.0,2.0086,1.9815,1.9745,1.9958,2.0399,2.1044,2.1911,2.2441,2.2877,2.3235,2.3568,2.351,2.3018,2.3339,2.3089,2.2332,2.2332,2.1886,2.1061,2.12,2.0806,2.003,1.9882,1.9687,1.9444,1.8914,1.8866,1.9119,1.8998,1.8845,1.8689,1.8633,1.8626,1.8622,1.8579,1.8542,1.8503,1.82,1.7956,1.775,1.7592,1.7873,1.8196,1.7975,1.8048,1.8152,1.8113,1.8023,1.7911,1.7687,1.7749,1.7801,1.7588,1.7582,1.7498,1.6965,1.6584,1.6257,1.5919,1.5906,1.5832,1.5515,1.5687,1.5813,1.5664,1.5809,1.5943,1.6072,1.6072,1.6101,1.6149,1.6149,1.612,1.6072,1.6072,1.6044,1.596,1.5673,1.5204,1.4572,1.3741,1.2289,0.0,0.0,0.0,0.0,0.0,0.0,0.0,0.0,0.0,0.0,0.0,0.0,0.0,0.0,0.0,0.0,0.0,0.0,0.0,0.0,0.0,0.0,0.0,0.0,0.0,1.7688,1.9335,2.0623,2.1381,2.1642,2.1236,2.1082,2.1171,2.1586,2.1824,2.2283,2.3098,2.3478,2.3834,2.4186,2.4336,2.3994,2.3188,2.3282,2.2761,2.1636,2.1636,2.1197,2.0372,2.0497,2.025,1.9678,1.9554,1.9496,1.9477,1.9212,1.9268,1.9483,1.9212,1.9096,1.9096,1.9096,1.9096,1.9096,1.9096,1.9096,1.9048,1.8722,1.8452,1.8238,1.8238,1.8413,1.8635,1.8635,1.8635,1.8635,1.8635,1.845,1.8199,1.8072,1.8033,1.7994,1.7849,1.782,1.7743,1.7489,1.7279,1.7013,1.6639,1.6751,1.6736,1.6237,1.6396,1.6476,1.6203,1.6163,1.6143,1.6042,1.6023,1.6002,1.5909,1.5899,1.5899,1.5899,1.5773,1.5739,1.5833,1.5423,1.5041,1.4705,1.3738,1.2305,1.0435,0.0,0.0,0.0,0.0,0.0,0.0,0.0,0.0,0.0,0.0,0.0,0.0,0.0,0.0,0.0,0.0,0.0,0.0,0.0,0.0,0.0,0.0,0.0,1.7243,1.8453,1.9643,2.0782,2.0989,2.1092,2.1237,2.1613,2.2104,2.2715,2.3159,2.3594,2.4087,2.4124,2.4136,2.4136,2.4514,2.4238,2.3244,2.3562,2.2832,2.1058,2.1058,2.0653,1.9883,1.9863,1.9863,1.9843,1.9843,1.9843,1.9843,1.9843,1.9607,1.9228,1.8864,1.873,1.873,1.873,1.873,1.873,1.873,1.8749,1.8749,1.8749,1.8749,1.8749,1.8749,1.8749,1.8749,1.8749,1.8739,1.873,1.873,1.8702,1.8598,1.8217,1.8113,1.8009,1.7611,1.7533,1.7523,1.7523,1.7461,1.7259,1.6798,1.672,1.672,1.671,1.6701,0.0,1.6691,1.6681,1.6594,1.633,1.6286,1.6178,1.5931,1.5895,1.586,1.5836,1.5471,1.5247,1.5244,1.4941,1.4557,1.4099,1.2763,1.1559,1.0511,0.0,0.0,0.0,0.0,0.0,0.0,0.0,0.0,0.0,0.0,0.0,0.0,0.0,0.0,0.0,0.0,0.0,0.0,0.0,0.0,0.0,1.6021,1.7051,1.7484,1.884,2.0171,2.1218,2.1738,2.2108,2.2346,2.2588,2.2542,2.2032,2.2554,2.27,2.2262,2.2605,2.2811,2.2811,2.2926,2.2562,2.1707,2.1795,2.1307,2.0216,2.0216,1.9962,1.946,1.9311,1.9073,1.8725,1.8585,1.8514,1.8514,1.8514,1.8454,1.8427,1.9239,1.9388,1.9136,1.9136,1.9136,1.9175,1.9475,1.9572,1.9572,1.9572,1.9572,1.9572,1.9572,1.9572,1.9572,1.9572,1.9354,1.9137,1.9137,1.891,1.8673,1.856,1.8531,1.8494,1.8389,1.8133,1.795,1.795,1.7687,1.7431,1.73,1.7281,1.7159,1.6811,1.6773,1.6675,1.6364,1.6341,1.6357,1.6371,1.6121,1.5965,1.6043,1.5738,1.524,1.4573,1.4426,1.4171,1.3799,1.4152,1.4208,1.3893,1.233,1.1274,0.0,0.0,0.0,0.0,0.0,0.0,0.0,0.0,0.0,0.0,0.0,0.0,0.0,0.0,0.0,0.0,0.0,0.0,0.0,0.0,0.0,0.0,1.7206,1.8001,1.8757,1.9778,2.0831,2.1835,2.2261,2.246,2.243,2.2684,2.2536,2.1754,2.2212,2.2327,2.1869,2.2096,2.2262,2.2262,2.2228,2.1795,2.0906,2.0886,2.0446,1.9562,1.9562,1.9439,1.9214,1.91,1.8894,1.863,1.8352,1.8336,1.8415,1.7814,1.756,1.7643,0.0,0.0,0.0,0.0,1.8227,1.8138,1.8547,1.8696,1.8736,1.9004,1.9112,1.9152,1.934,1.9251,1.9152,1.934,1.9233,1.8991,1.8816,1.8729,1.8605,1.8233,1.831,1.8302,1.7773,1.7604,1.7415,1.6945,1.6643,0.0,1.6316,1.6968,1.7402,1.7122,1.7084,1.6999,1.6762,1.6451,1.6212,1.6125,1.5594,1.5185,1.4991,1.472,0.0,0.0,0.0,1.3161,1.2808,1.3169,0.0,0.0,0.0,0.0,0.0,0.0,0.0,0.0,1.0948,1.1129,0.0,0.0,0.0,0.0,0.0,0.0,0.0,0.0,0.0,0.0,0.0,0.0,0.0,0.0,0.0,0.0,1.8134,1.8738,2.0226,2.0698,2.1273,2.2338,2.236,2.214,2.1781,2.2024,2.1997,2.149,2.1778,2.197,2.1946,2.1881,0.0,0.0,0.0,2.1317,2.045,2.042,1.9985,1.9089,1.9089,1.9067,1.9024,1.8939,1.8874,1.8814,1.8406,1.8414,1.8601,1.7351,1.6771,1.6723,1.7421,1.7708,1.7647,1.7094,1.6637,1.6342,1.6739,0.0,0.0,1.7578,1.776,1.785,1.8282,1.8092,1.7861,1.8282,1.8402,1.8302,1.7882,1.8072,1.8186,1.7429,1.7548,1.754,1.6426,1.6415,1.6339,1.5327,1.5109,1.4967,1.463,1.6026,1.7168,1.7168,1.7168,1.7168,1.7168,1.6542,1.5983,1.565,0.0,0.0,1.3574,1.3476,1.3288,1.2911,1.2456,1.2165,1.2125,1.2094,1.2161,1.2357,1.2321,1.2221,1.207,1.238,1.2367,1.2056,1.1665,1.1792,0.0,0.0,0.0,0.0,0.0,0.0,0.0,0.0,0.0,0.0,0.0,0.0,0.0,0.0,0.0,1.7382,1.7991,1.8625,1.9364,1.9532,2.0076,2.1465,2.0875,2.0455,2.0734,2.0554,2.0274,1.9945,1.9993,1.9949,1.9728,1.9712,1.9694,1.9694,1.968,1.9597,1.9392,1.9392,1.9294,1.9089,1.9089,0.0,1.8521,1.7915,1.7458,1.7115,1.6411,1.6133,1.6176,1.5899,1.5527,1.5182,1.569,1.5891,1.5933,1.6121,1.5944,1.5656,1.6039,1.6196,1.6216,1.6339,1.638,1.6401,1.6483,1.6462,0.0,1.6511,1.6531,1.6511,1.6401,1.6442,1.6487,1.6315,1.634,1.6345,1.6099,1.5834,1.5606,1.5379,1.5071,1.4763,1.4488,1.4848,1.5154,1.5154,1.5154,1.5154,1.5154,1.5029,1.4951,1.5053,1.4573,1.4269,1.4285,1.3999,1.3332,1.2267,1.1412,1.1145,1.1614,1.1436,1.1554,1.2072,1.1815,1.1732,1.1861,1.1986,1.2155,1.2412,1.2592,1.2607,0.0,0.0,0.0,0.0,0.0,0.0,0.0,0.0,0.0,0.0,0.0,1.458,1.6329,0.0,1.6933,1.7981,1.818,1.848,1.9294,1.8942,1.9107,2.0491,2.0167,1.9888,2.0,1.9828,1.9589,1.9319,1.9304,1.9244,1.9102,1.9081,1.8869,1.8449,1.8429,1.8391,1.8391,1.777,1.7627,1.7995,1.7342,1.6927,1.6708,1.6586,1.6297,1.5849,1.5779,1.5566,1.5222,1.4711,1.4047,1.3373,1.3601,1.3976,1.4362,1.4567,1.4398,1.412,1.4657,1.4852,1.4894,1.5247,1.5351,1.5393,1.5634,1.5538,1.5393,1.5634,1.5696,1.5655,1.5406,1.5517,1.5641,1.5413,1.553,1.5572,1.5136,1.5048,1.4868,1.4299,1.4031,1.381,1.3498,1.3508,1.3728,1.4217,1.4307,1.4307,1.4307,1.3983,1.3792,1.3882,1.3319,1.2988,1.3042,1.2809,1.2374,1.1741,1.1254,1.118,1.1581,1.1472,1.1563,1.1947,1.1793,1.1755,1.1845,1.2053,1.2252,1.2456,1.293,1.3103,0.0,0.0,0.0,0.0,0.0,0.0,0.0,1.3054,1.3607,1.5099,1.5409,1.5823,1.7211,1.7118,1.7198,1.8304,1.8152,1.8155,1.8921,1.8284,1.8124,1.9107,1.9324,1.935,1.9197,1.9109,1.904,1.895,1.8811,1.8749,1.8816,1.8641,1.8233,1.7599,1.7403,1.7381,1.7482,1.6264,1.6004,1.6671,1.5542,1.5013,1.5013,1.5311,1.5192,1.481,1.5218,1.5063,1.45,1.359,1.2738,1.1992,1.1899,1.2259,1.29,1.301,1.2843,1.2648,1.3179,1.3379,1.3465,1.3994,1.4186,1.4243,1.4619,1.4477,1.423,1.4572,1.4656,1.4558,1.4153,1.4321,1.4531,1.4244,1.4468,1.4573,1.3971,1.4084,1.4031,1.312,1.2937,1.2848,1.2531,1.2461,1.2733,1.352,1.362,1.3616,1.3567,1.3022,1.267,1.267,1.2125,1.1746,1.1737,1.1596,1.1493,1.1493,1.1439,1.1481,1.1635,1.1635,1.1731,1.1906,1.1744,1.1702,1.1798,1.1919,1.2006,1.2092,1.2565,1.3025,1.1507,1.174,1.2059,1.2123,1.2096,1.2528,0.0,1.4281,1.4244,1.5847,1.618,1.6348,1.6884,1.7164,1.7265,1.708,1.7291,1.7362,1.707,1.6914,1.6825,1.6796,1.7314,1.7769,1.805,1.7756,1.7777,1.8348,1.7769,1.7538,1.7842,1.7229,1.6837,1.6744,1.6257,1.6231,1.6723,1.5643,1.5376,1.5917,1.5305,1.5013,1.4989,1.4375,1.4088,1.3992,1.3416,1.3119,1.2996,1.2406,1.2095,1.1953,1.1487,1.1342,1.1482,1.1976,1.2114,1.2086,1.215,1.2184,1.2212,1.2275,1.2298,1.232,1.236,1.2343,1.2253,1.2082,1.2021,1.1965,1.1743,1.173,1.1859,1.2223,1.233,1.2458,1.2784,1.289,1.2884,1.2753,1.2726,1.2641,1.2374,1.2332,1.2312,1.2312,1.2305,1.2227,1.1992,1.1885,1.183,1.183,1.191,1.2045,1.2203,1.1984,1.1841,1.1841,1.1553,1.1412,1.1423,1.1423,1.1584,1.1881,1.1195,1.1039,1.1445,1.0787,1.0619,1.0972,1.0988,1.1828,1.2559,1.2793,1.3089,1.3821,1.3785,1.3913,1.5266,1.5279,1.5358,1.6631,1.6872,1.7,1.7412,1.7409,1.7298,1.7114,1.7222,1.7287,1.7127,1.6505,1.5968,1.5728,1.5301,1.5703,1.7495,1.709,1.7052,1.7903,1.6975,1.6451,1.6593,1.6004,1.546,1.5032,1.4811,1.4787,1.5038,1.386,1.3572,1.422,1.3258,1.2799,1.2799,1.278,1.2955,1.3203,1.2262,1.1775,1.1624,1.1556,1.0968,1.0154,1.0408,1.0212,0.9952,1.1285,1.1763,1.1789,1.1953,1.1992,1.1992,1.1992,1.1992,1.1992,1.1992,1.1992,1.1976,1.1851,1.1728,1.1583,1.1498,1.1391,1.1348,1.1542,1.1585,1.1537,1.1354,1.1623,1.1639,1.0826,1.1311,1.159,1.0655,1.0953,1.1294,1.1233,1.1663,1.1931,1.1834,1.168,1.152,1.1372,1.1521,1.1688,1.1762,1.1782,1.1626,1.1279,1.113,1.0882,1.0544,1.0526,1.0597,1.0728,1.0509,1.0508,1.0705,1.044,1.0395,1.058,1.0743,1.1211,1.3116,1.3599,1.4143,1.5032,1.5154,1.5288,1.6113,1.626,1.6425,1.7178,1.7397,1.7487,1.7555,1.7337,1.7159,1.7284,1.7236,1.7116,1.6925,1.6203,1.5405,1.4684,1.3886,1.4193,1.6191,1.5985,1.6034,1.6804,1.5886,1.527,1.527,1.4716,1.4148,1.3596,1.3451,1.3457,1.3601,1.2384,1.2116,1.2786,1.1482,1.0875,1.0875,1.1042,1.1336,1.1653,1.087,1.0424,1.0268,1.0449,0.9862,0.885,0.9447,0.932,0.8958,1.0318,1.0823,1.0924,1.1569,1.163,1.1485,1.17,1.163,1.1485,1.17,1.1462,1.1138,1.1316,1.1232,1.1005,1.0737,1.0716,1.0732,1.0601,1.0581,1.0479,1.0084,1.0378,1.0421,0.9409,1.0021,1.0399,0.9366,0.9766,1.0221,1.0203,1.0741,1.1334,1.1838,1.1737,1.1461,1.1061,1.1105,1.1101,1.0888,1.0973,1.0844,1.0413,1.0395,1.0216,0.9815,0.9853,0.9923,0.9949,0.9934,0.9924,0.9924,0.9857,0.9819,0.9824,1.0124,1.0271,1.2728,1.3857,1.5052,1.511,1.5687,1.643,1.719,1.73,1.7279,1.7374,1.7652,1.7654,1.6871,1.6726,1.6845,1.7244,1.7072,1.661,1.5777,1.5798,1.5198,1.3292,1.343,1.3666,1.3629,1.4005,1.4398,1.4761,1.4283,1.3968,1.3968,1.3251,1.2861,1.2832,1.2322,1.2322,1.2837,1.1756,1.1487,1.2024,1.0679,1.0043,1.0019,0.9245,0.8899,0.892,0.8899,0.8871,0.8871,0.8871,0.885,0.88,0.8825,0.8825,0.88,0.8867,0.8892,0.911,1.0685,1.071,1.0199,1.0984,1.071,1.0199,1.0979,1.0141,0.9019,0.9605,0.9766,0.9529,0.8554,0.8885,0.9347,0.8877,0.8787,0.8873,0.9165,0.9257,0.9257,0.9213,0.9231,0.9257,0.9213,0.9235,0.9252,0.9248,0.9261,0.9918,1.1678,1.1894,1.1616,1.088,1.07,1.0323,0.9619,0.9456,0.9372,0.9353,0.9353,0.9387,0.9516,0.9761,0.9962,1.009,0.9522,0.9227,0.9227,0.8648,0.8365,0.8369,0.8579,0.867,1.2388,1.3313,1.423,1.4767,1.5247,1.5664,1.6,1.5799,1.5782,1.6528,1.6554,1.6493,1.6672,1.6587,1.635,1.5847,1.6171,1.6082,1.4911,1.4537,1.3892,1.2568,1.1941,1.1562,1.1398,1.2365,1.3264,1.3909,1.3031,1.2509,1.2635,1.1556,1.0949,1.0949,1.0256,0.9957,1.0129,0.9784,0.9686,0.9858,0.9418,0.9196,0.9196,0.8924,0.88,0.88,0.88,0.8499,0.8053,0.8577,0.8177,0.7257,0.7804,0.768,0.7282,0.7804,0.7655,0.7431,0.9044,0.9418,0.9245,0.9517,0.9418,0.9245,0.9517,0.9221,0.8838,0.9053,0.9001,0.8824,0.8481,0.8509,0.8555,0.8397,0.8363,0.8245,0.7825,0.808,0.8094,0.7086,0.7632,0.798,0.7044,0.7394,0.7918,0.8221,0.896,0.963,1.0055,1.0222,1.0141,0.973,0.9631,0.9506,0.926,0.9203,0.9001,0.8602,0.8562,0.8412,0.8057,0.8122,0.8191,0.8234,0.8167,0.8144,0.8144,0.8201,0.8224,0.8245,0.8492,0.859,1.2291,1.3159,1.3935,1.4461,1.4922,1.5243,1.5182,1.5028,1.5036,1.5485,1.5421,1.5307,1.5396,1.5142,1.4885,1.4708,1.507,1.5023,1.4054,1.3798,1.3159,1.1738,1.1142,1.0725,1.0436,1.1226,1.2013,1.259,1.1932,1.1448,1.1287,1.0462,0.9871,0.9571,0.9072,0.88,0.88,0.88,0.8648,0.8375,0.8375,0.8226,0.7953,0.7953,0.7953,0.7953,0.7953,0.7655,0.7207,0.773,0.7332,0.6462,0.6958,0.6858,0.6462,0.6983,0.6833,0.6634,0.8251,0.8598,0.8425,0.8701,0.8598,0.8425,0.8722,0.84,0.8003,0.8301,0.8276,0.8126,0.783,0.7859,0.7897,0.7583,0.7526,0.7365,0.6804,0.7026,0.7008,0.5975,0.6502,0.6818,0.5872,0.6194,0.67,0.7003,0.779,0.86,0.9257,0.9516,0.9444,0.8942,0.8846,0.8678,0.8351,0.8271,0.8069,0.7679,0.7658,0.7503,0.7178,0.7244,0.7333,0.737,0.7597,0.7714,0.7714,0.7971,0.8094,0.8094,0.834,0.8486,1.2387,1.3357,1.4152,1.4132,1.4716,1.5186,1.4713,1.4866,1.4958,1.4328,1.4281,1.4057,1.3184,1.2606,1.2641,1.3723,1.3762,1.3513,1.3111,1.3489,1.3007,1.0868,1.0987,1.1061,1.0589,1.0529,1.0594,1.0777,1.1003,1.0792,0.9969,0.9895,0.9521,0.8775,0.8701,0.8676,0.8676,0.8676,0.8301,0.7531,0.7531,0.7132,0.6412,0.6412,0.6387,0.6362,0.6362,0.6362,0.6362,0.6337,0.6362,0.6387,0.6362,0.6387,0.6412,0.6412,0.6412,0.6609,0.8152,0.8177,0.7655,0.8425,0.8152,0.768,0.845,0.7605,0.6559,0.7332,0.7531,0.7357,0.6587,0.6958,0.7325,0.6496,0.6301,0.6268,0.6145,0.6118,0.6082,0.5937,0.5912,0.5877,0.5748,0.5724,0.5719,0.5719,0.5933,0.6896,0.9144,0.9597,0.9405,0.8496,0.8303,0.7884,0.6982,0.6786,0.6722,0.6722,0.6722,0.679,0.6911,0.715,0.735,0.7481,0.7724,0.7856,0.7856,0.7878,0.7878,0.7874,0.8094,0.8294,1.2075,1.2903,1.3467,1.3161,1.3609,1.3977,1.3343,1.2973,1.2809,1.2922,1.2464,1.1995,1.1855,1.1974,1.1874,1.1286,1.2178,1.2568,1.1415,1.1973,1.2073,1.0958,1.0536,1.0226,0.9962,0.9521,0.9279,0.9326,0.9805,0.979,0.9143,0.8549,0.8127,0.7904,0.7332,0.7008,0.7008,0.7008,0.6908,0.6709,0.6709,0.6612,0.6412,0.6412,0.6187,0.5809,0.5809,0.5809,0.5762,0.5386,0.5684,0.6359,0.5959,0.6059,0.6412,0.6412,0.6412,0.6462,0.6858,0.6883,0.6734,0.6933,0.6883,0.6734,0.6958,0.6736,0.6437,0.6661,0.6709,0.6661,0.6462,0.6559,0.6653,0.6424,0.6368,0.6363,0.6271,0.6246,0.6211,0.6088,0.604,0.6029,0.6002,0.592,0.5858,0.5858,0.5986,0.6324,0.6915,0.7334,0.7492,0.7253,0.7347,0.7301,0.7063,0.7029,0.7006,0.7006,0.7006,0.7022,0.7041,0.7107,0.7168,0.7209,0.7275,0.7297,0.7297,0.7499,0.7591,0.7613,0.7856,0.8053,1.2084,1.2632,1.2973,1.2753,1.2982,1.3058,1.2332,1.1942,1.1617,1.1256,1.0695,1.0235,1.0067,1.0075,1.0061,0.9954,1.0856,1.1278,1.0495,1.102,1.1093,1.0089,0.9682,0.9432,0.9304,0.899,0.8648,0.8301,0.8907,0.8993,0.8322,0.7854,0.7431,0.7083,0.6634,0.6412,0.6412,0.6412,0.6412,0.6412,0.6412,0.6412,0.6412,0.6412,0.6237,0.5937,0.5461,0.5258,0.5186,0.4406,0.4454,0.4956,0.4655,0.4653,0.4903,0.5484,0.5634,0.5609,0.6184,0.6412,0.6412,0.6412,0.6412,0.6412,0.6412,0.6412,0.6412,0.6412,0.6412,0.6412,0.6412,0.6412,0.6412,0.6412,0.6412,0.6396,0.6355,0.6342,0.6306,0.6213,0.6145,0.611,0.611,0.6029,0.5983,0.5983,0.5996,0.6006,0.6006,0.636,0.6634,0.6634,0.6722,0.683,0.6966,0.6966,0.701,0.7095,0.7095,0.6918,0.6498,0.6498,0.6296,0.5869,0.5869,0.5869,0.5869,0.6027,0.6103,0.611,0.6492,0.6755,1.2274,1.2509,1.2705,1.2705,1.2681,1.2457,1.1683,1.1411,1.0966,0.9656,0.9146,0.8782,0.8259,0.7928,0.8091,0.9149,0.9658,0.9905,0.9875,1.0223,1.0091,0.8945,0.8701,0.8651,0.8651,0.8549,0.8202,0.7481,0.8077,0.8177,0.7481,0.7431,0.7132,0.6412,0.6412,0.6412,0.6412,0.6412,0.6412,0.6387,0.6262,0.6187,0.6187,0.6034,0.5934,0.5809,0.4883,0.4483,0.4406,0.3399,0.3073,0.3198,0.3123,0.2997,0.2996,0.4153,0.4431,0.4404,0.5582,0.5984,0.6009,0.6312,0.6412,0.6412,0.6412,0.6412,0.6412,0.6412,0.6412,0.6362,0.6237,0.6187,0.6162,0.6009,0.5984,0.5984,0.5984,0.5984,0.5956,0.589,0.5793,0.5725,0.5725,0.5688,0.5678,0.5678,0.5582,0.5509,0.5509,0.6006,0.6321,0.6185,0.634,0.6498,0.6615,0.6748,0.6925,0.7095,0.7095,0.6675,0.5741,0.5697,0.525,0.4312,0.4312,0.4295,0.4306,0.4306,0.4307,0.4327,0.4786,0.512,1.2566,1.2668,1.2705,1.2705,1.2521,1.2213,1.1621,1.0996,1.019,0.9077,0.8455,0.7957,0.7485,0.7743,0.7992,0.788,0.8471,0.8869,0.8636,0.883,0.8932,0.8806,0.8202,0.7804,0.7804,0.7207,0.6758,0.6609,0.6734,0.6758,0.6609,0.6612,0.6537,0.6412,0.6412,0.6412,0.6412,0.6412,0.6412,0.6387,0.5509,0.5085,0.5035,0.4153,0.3525,0.3074,0.2899,0.2823,0.2773,0.2142,0.2393,0.3148,0.2722,0.2772,0.3148,0.3399,0.345,0.345,0.3676,0.3751,0.4051,0.5832,0.6412,0.6412,0.6412,0.6412,0.6412,0.6412,0.6412,0.6187,0.5311,0.5085,0.4857,0.3976,0.3751,0.3751,0.3751,0.3751,0.3748,0.3735,0.3724,0.3715,0.3715,0.3617,0.353,0.353,0.3472,0.3427,0.3427,0.5009,0.5855,0.5072,0.6033,0.6435,0.5694,0.6495,0.7051,0.7095,0.7095,0.6675,0.5741,0.5697,0.525,0.4312,0.4312,0.4302,0.4308,0.4308,0.4331,0.4395,0.4489,0.4711,1.2596,1.2705,1.2705,1.2705,1.2382,1.1882,1.105,1.0364,0.951,0.819,0.7822,0.7636,0.7261,0.758,0.7948,0.8147,0.8256,0.8313,0.821,0.7983,0.7757,0.757,0.7207,0.6983,0.6983,0.6634,0.6412,0.6412,0.6412,0.6412,0.6412,0.6412,0.6134,0.5584,0.5559,0.5309,0.473,0.473,0.473,0.473,0.4203,0.3977,0.3952,0.3425,0.3049,0.2797,0.2218,0.1992,0.1916,0.111,0.1059,0.1513,0.1261,0.1211,0.1412,0.2116,0.2267,0.2267,0.2947,0.3198,0.3374,0.4402,0.473,0.473,0.473,0.473,0.473,0.473,0.473,0.4605,0.4105,0.3977,0.3827,0.3324,0.3198,0.3198,0.3198,0.3198,0.3198,0.3198,0.3198,0.3198,0.3198,0.3149,0.3105,0.3105,0.3005,0.2944,0.2944,0.3809,0.4252,0.3819,0.4452,0.4803,0.4492,0.507,0.5492,0.5625,0.5647,0.5225,0.4271,0.4249,0.3799,0.2865,0.2842,0.2848,0.2838,0.2838,0.2867,0.2948,0.3093,0.3247,1.2439,1.262,1.2705,1.2705,1.2201,1.1466,1.046,0.9757,0.8903,0.7425,0.737,0.751,0.7249,0.735,0.7673,0.826,0.7883,0.7532,0.7567,0.7154,0.6715,0.6374,0.6379,0.6412,0.6412,0.6412,0.6312,0.6087,0.5834,0.5909,0.6387,0.6187,0.5659,0.4834,0.4582,0.4054,0.3198,0.3198,0.3198,0.3198,0.2972,0.2846,0.2846,0.262,0.2519,0.2469,0.1613,0.1261,0.1185,0.0353,0.0,0.0,0.0,-0.0126,-0.0177,0.0858,0.1135,0.1084,0.2142,0.2519,0.2519,0.2519,0.2821,0.3198,0.3198,0.3198,0.3198,0.3198,0.3198,0.3148,0.2922,0.2846,0.2796,0.2569,0.2519,0.2519,0.2519,0.2519,0.2519,0.2519,0.2519,0.2519,0.2519,0.2519,0.2519,0.2519,0.2413,0.2364,0.2364,0.23,0.2283,0.227,0.2822,0.3217,0.3287,0.3673,0.4032,0.4301,0.4324,0.3897,0.2951,0.2929,0.2472,0.1513,0.1491,0.1506,0.1512,0.1512,0.1551,0.1606,0.1804,0.1943,1.2027,1.2322,1.2705,1.2705,1.1938,1.0954,1.0124,0.9336,0.8403,0.7097,0.7243,0.751,0.7249,0.6975,0.681,0.6878,0.6393,0.5954,0.5853,0.5935,0.6048,0.6126,0.6282,0.6412,0.6412,0.6412,0.5987,0.501,0.4053,0.4352,0.6287,0.5486,0.491,0.4809,0.3853,0.3299,0.3198,0.3198,0.3198,0.3198,0.2217,0.1739,0.1714,0.0732,0.0303,0.0278,0.0202,0.0151,0.0151,0.0051,0.0,0.0,0.0,-0.0025,-0.0025,0.0101,0.0126,0.0126,0.0252,0.0303,0.0303,0.0303,0.1613,0.3198,0.3198,0.3198,0.3198,0.3198,0.3198,0.2972,0.1991,0.1739,0.1513,0.053,0.0303,0.0303,0.0303,0.0303,0.0303,0.0303,0.0303,0.0303,0.0303,0.0303,0.0303,0.0303,0.0277,0.0277,0.0277,0.0272,0.0269,0.0268,0.2035,0.2956,0.2367,0.3356,0.4109,0.437,0.4393,0.3971,0.3031,0.2984,0.2513,0.1522,0.1498,0.1537,0.1592,0.1592,0.1583,0.1613,0.1613,0.1765,1.199,1.24,1.2662,1.2506,1.1647,1.0653,0.9847,0.9032,0.8145,0.7025,0.723,0.7374,0.6672,0.6563,0.6569,0.6524,0.5883,0.5488,0.5805,0.5603,0.5535,0.5825,0.6081,0.6011,0.5497,0.5436,0.4983,0.3927,0.345,0.3575,0.4427,0.4078,0.355,0.2897,0.2469,0.1915,0.1286,0.1286,0.1286,0.1261,0.0832,0.0631,0.0631,0.0202,0.0,0.0,0.0,0.0,0.0,0.0,0.0,0.0,0.0,0.0,0.0,0.0,0.0,0.0,0.0,0.0,0.0,0.0,0.058,0.1286,0.1286,0.1286,0.1286,0.1286,0.1286,0.1185,0.0757,0.0631,0.053,0.0101,0.0,0.0,0.0,0.0,0.0,0.0,0.0,0.0,0.0,0.0,0.0,0.0,0.0,0.0,0.0,0.0,0.005,0.0225,0.0995,0.1404,0.1143,0.1809,0.2307,0.2403,0.257,0.2476,0.2121,0.2097,0.1918,0.1577,0.1553,0.1568,0.1598,0.1598,0.1605,0.1592,0.1592,0.1667,1.1502,1.2015,1.2274,1.2002,1.1141,1.0154,0.9422,0.8656,0.7828,0.6873,0.7115,0.7193,0.6273,0.6171,0.6202,0.6093,0.5371,0.5038,0.5627,0.53,0.5157,0.5527,0.5815,0.5635,0.4746,0.4162,0.355,0.2796,0.2444,0.2242,0.2242,0.2242,0.2041,0.1613,0.1286,0.0757,0.0,0.0,0.0,0.0,0.0,0.0,0.0,0.0,0.0,0.0,0.0,0.0,0.0,0.0,0.0,0.0,0.0,0.0,0.0,0.0,0.0,0.0,0.0,0.0,0.0,0.0,0.0,0.0,0.0,0.0,0.0,0.0,0.0,0.0,0.0,0.0,0.0,0.0,0.0,0.0,0.0,0.0,0.0,0.0,0.0,0.0,0.0,0.0,0.0,0.0,0.0,0.0,0.0,0.0076,0.0202,0.0379,0.0468,0.0558,0.0631,0.0946,0.1165,0.1237,0.1431,0.1528,0.1528,0.1528,0.1563,0.1609,0.161,0.1596,0.1592,0.1592,0.1592,0.1592,0.1592,0.1592,1.0327,1.09,1.146,1.1177,1.0304,0.9368,0.8827,0.8143,0.7376,0.6569,0.6824,0.6979,0.6234,0.5834,0.5547,0.5343,0.4685,0.4396,0.493,0.4888,0.4936,0.5273,0.555,0.533,0.4397,0.2679,0.1639,0.1613,0.0631,0.0025,0.0025,0.0025,0.0505,0.1563,0.058,0.0,0.0,0.0,0.0,0.0,0.0,0.0,0.0,0.0,0.0,0.0,0.0,0.0,0.0,0.0,0.0,0.0,0.0,0.0,0.0,0.0,0.0,0.0,0.0,0.0,0.0,0.0,0.0,0.0,0.0,0.0,0.0,0.0,0.0,0.0,0.0,0.0,0.0,0.0,0.0,0.0,0.0,0.0,0.0,0.0,0.0,0.0,0.0,0.0,0.0,0.0,0.0,0.0,0.0,0.0227,0.0404,0.0404,0.0631,0.0908,0.1161,0.1186,0.1313,0.159,0.159,0.159,0.159,0.159,0.1591,0.1591,0.1591,0.1591,0.1592,0.1592,0.1592,0.1592,0.1592,0.1592,0.966,1.0208,1.0629,1.0346,0.9745,0.9047,0.8323,0.7858,0.7278,0.615,0.6197,0.6119,0.5063,0.4785,0.475,0.4866,0.47,0.4637,0.4887,0.5258,0.5145,0.4241,0.3405,0.2777,0.2474,0.1272,0.0505,0.0505,0.0202,0.0,0.0,0.0,0.0151,0.0505,0.0177,0.0,0.0,0.0,0.0,0.0,0.0,0.0,0.0,0.0,0.0,0.0,0.0,0.0,0.0,0.0,0.0,0.0,0.0,0.0,0.0,0.0,0.0,0.0,0.0,0.0,0.0,0.0,0.0,0.0,0.0,0.0,0.0,0.0,0.0,0.0,0.0,0.0,0.0,0.0,0.0,0.0,0.0,0.0,0.0,0.0,0.0,0.0,0.0,0.0,0.0,0.0,0.0,0.0,0.0,0.0076,0.0278,0.0631,0.0758,0.0833,0.0909,0.1086,0.1237,0.1314,0.1491,0.1592,0.1592,0.1592,0.1592,0.1592,0.1592,0.1592,0.1592,0.1592,0.1592,0.1592,0.1592,0.1592,0.8701,0.9356,0.9781,0.9522,0.8971,0.8373,0.7888,0.73,0.668,0.609,0.5815,0.5451,0.4705,0.4414,0.4326,0.4422,0.4357,0.4421,0.4813,0.5069,0.4848,0.3837,0.2362,0.1449,0.152,0.0603,0.0,0.0,0.0,0.0,0.0,0.0,0.0,0.0,0.0,0.0,0.0,0.0,0.0,0.0,0.0,0.0,0.0,0.0,0.0,0.0,0.0,0.0,0.0,0.0,0.0,0.0,0.0,0.0,0.0,0.0,0.0,0.0,0.0,0.0,0.0,0.0,0.0,0.0,0.0,0.0,0.0,0.0,0.0,0.0,0.0,0.0,0.0,0.0,0.0,0.0,0.0,0.0,0.0,0.0,0.0,0.0,0.0,0.0,0.0,0.0,0.0,0.0,0.0,0.0076,0.0278,0.0606,0.0833,0.096,0.096,0.1187,0.1339,0.1339,0.1516,0.1592,0.1592,0.1592,0.1592,0.1592,0.1592,0.1592,0.1592,0.1592,0.1592,0.1592,0.1592,0.1592,0.0,0.8317,0.8842,0.8602,0.7986,0.7466,0.7535,0.6564,0.0,0.6238,0.5604,0.4957,0.4916,0.456,0.4222,0.408,0.3856,0.3962,0.4722,0.4439,0.4051,0.3769,0.2135,0.1086,0.1272,0.05,0.0,0.0,0.0,0.0,0.0,0.0,0.0,0.0,0.0,0.0,0.0,0.0,0.0,0.0,0.0,0.0,0.0,0.0,0.0,0.0,0.0,0.0,0.0,0.0,0.0,0.0,0.0,0.0,0.0,0.0,0.0,0.0,0.0,0.0,0.0,0.0,0.0,0.0,0.0,0.0,0.0,0.0,0.0,0.0,0.0,0.0,0.0,0.0,0.0,0.0,0.0,0.0,0.0,0.0,0.0,0.0,0.0,0.0,0.0,0.0,0.0,0.0,0.0,0.0227,0.0379,0.0404,0.0833,0.1162,0.1187,0.144,0.1592,0.1592,0.1592,0.1592,0.1592,0.1592,0.1592,0.1592,0.1592,0.1592,0.1592,0.1592,0.1592,0.1592,0.1594,0.1595,0.6492,0.0,0.7013,0.6952,0.696,0.6967,0.0,0.6539,0.6038,0.5701,0.5093,0.4508,0.4151,0.3992,0.4087,0.4605,0.4676,0.4781,0.507,0.3765,0.2621,0.219,0.1033,0.0273,0.0326,0.0126,0.0,0.0,0.0,0.0,0.0,0.0,0.0,0.0,0.0,0.0,0.0,0.0,0.0,0.0,0.0,0.0,0.0,0.0,0.0,0.0,0.0,0.0,0.0,0.0,0.0,0.0,0.0,0.0,0.0,0.0,0.0,0.0,0.0,0.0,0.0,0.0,0.0,0.0,0.0,0.0,0.0,0.0,0.0,0.0,0.0,0.0,0.0,0.0,0.0,0.0,0.0,0.0,0.0,0.0,0.0,0.0,0.0,0.0,0.0,0.0,0.0,0.0,0.0,0.0051,0.0177,0.0379,0.0505,0.0758,0.1162,0.144,0.1592,0.1592,0.1592,0.1592,0.1592,0.1592,0.1592,0.1592,0.1592,0.1592,0.1592,0.1592,0.1592,0.1592,0.1641,0.1677,0.5924,0.6368,0.6857,0.6452,0.644,0.6489,0.6369,0.5824,0.5333,0.5311,0.4699,0.4149,0.4054,0.39,0.3968,0.4494,0.4587,0.4723,0.514,0.3625,0.2434,0.227,0.0903,0.0,0.0,0.0,0.0,0.0,0.0,0.0,0.0,0.0,0.0,0.0,0.0,0.0,0.0,0.0,0.0,0.0,0.0,0.0,0.0,0.0,0.0,0.0,0.0,0.0,0.0,0.0,0.0,0.0,0.0,0.0,0.0,0.0,0.0,0.0,0.0,0.0,0.0,0.0,0.0,0.0,0.0,0.0,0.0,0.0,0.0,0.0,0.0,0.0,0.0,0.0,0.0,0.0,0.0,0.0,0.0,0.0,0.0,0.0,0.0,0.0,0.0,0.0,0.0101,0.0177,0.0177,0.0303,0.0429,0.0556,0.0682,0.0884,0.1187,0.144,0.1592,0.1592,0.1592,0.1592,0.1592,0.1592,0.1592,0.1592,0.1592,0.1592,0.1592,0.1592,0.1624,0.1638,0.168,0.1695,0.566,0.6461,0.7152,0.625,0.6019,0.5967,0.5755,0.4984,0.4481,0.5066,0.4475,0.3945,0.4236,0.4067,0.3982,0.4236,0.4155,0.4184,0.4558,0.3393,0.2496,0.2546,0.1049,0.0,0.0,0.0,0.0,0.0,0.0,0.0,0.0,0.0,0.0,0.0,0.0,0.0,0.0,0.0,0.0,0.0,0.0,0.0,0.0,0.0,0.0,0.0,0.0,0.0,0.0,0.0,0.0,0.0,0.0,0.0,0.0,0.0,0.0,0.0,0.0,0.0,0.0,0.0,0.0,0.0,0.0,0.0,0.0,0.0,0.0,0.0,0.0,0.0,0.0,0.0,0.0,0.0,0.0,0.0,0.0,0.0,0.0,0.0,0.0,0.0,0.0,0.0,0.0227,0.0404,0.0404,0.0631,0.0808,0.0808,0.101,0.1162,0.1187,0.1415,0.1566,0.1592,0.1592,0.1592,0.1592,0.1592,0.1592,0.1592,0.1592,0.1592,0.1592,0.1622,0.1637,0.1688,0.1697,0.1715,0.5607,0.5913,0.6081,0.5038,0.498,0.5209,0.5276,0.5027,0.4848,0.5067,0.4593,0.4151,0.42,0.4271,0.437,0.4589,0.4182,0.3382,0.2082,0.1668,0.125,0.055,0.0176,0.0,0.0,0.0,0.0,0.0,0.0,0.0,0.0,0.0,0.0,0.0,0.0,0.0,0.0,0.0,0.0,0.0,0.0,0.0,0.0,0.0,0.0,0.0,0.0,0.0,0.0,0.0,0.0,0.0,0.0,0.0,0.0,0.0,0.0,0.0,0.0,0.0,0.0,0.0,0.0,0.0,0.0,0.0,0.0,0.0,0.0,0.0,0.0,0.0,0.0,0.0,0.0,0.0,0.0,0.0,0.0,0.0,0.0,0.0,0.0,0.0,0.0,0.0,0.0227,0.0404,0.0404,0.0631,0.0808,0.0808,0.0833,0.096,0.1187,0.1237,0.1364,0.1592,0.1592,0.1592,0.1592,0.1592,0.1592,0.1592,0.1592,0.1592,0.1592,0.1668,0.1684,0.1689,0.1766,0.1792,0.5345,0.5288,0.5142,0.4323,0.4702,0.5163,0.4754,0.4645,0.4643,0.4712,0.4439,0.4194,0.4204,0.4285,0.4293,0.4126,0.3596,0.296,0.2264,0.1704,0.1222,0.0905,0.0353,0.0,0.0,0.0,0.0,0.0,0.0,0.0,0.0,0.0,0.0,0.0,0.0,0.0,0.0,0.0,0.0,0.0,0.0,0.0,0.0,0.0,0.0,0.0,0.0,0.0,0.0,0.0,0.0,0.0,0.0,0.0,0.0,0.0,0.0,0.0,0.0,0.0,0.0,0.0,0.0,0.0,0.0,0.0,0.0,0.0,0.0,0.0,0.0,0.0,0.0,0.0,0.0,0.0,0.0,0.0,0.0,0.0,0.0,0.0,0.0,0.0,0.0,0.0,0.0227,0.0455,0.0606,0.0859,0.1061,0.1212,0.1237,0.1288,0.1415,0.1415,0.1465,0.1592,0.1592,0.1592,0.1592,0.1592,0.1592,0.1592,0.1592,0.1625,0.1641,0.1681,0.1731,0.1764,0.1791,0.1814,0.4978,0.4721,0.4482,0.3939,0.4505,0.5029,0.4372,0.4345,0.4455,0.4506,0.4467,0.4399,0.4372,0.427,0.3939,0.3176,0.2691,0.2346,0.2234,0.1564,0.1116,0.1208,0.0505,0.0,0.0,0.0,0.0,0.0,0.0,0.0,0.0,0.0,0.0,0.0,0.0,0.0,0.0,0.0,0.0,0.0,0.0,0.0,0.0,0.0,0.0,0.0,0.0,0.0,0.0,0.0,0.0,-0.0025,-0.0278,-0.0379,-0.0379,-0.0379,-0.0379,-0.0328,-0.0076,-0.0328,-0.0707,-0.0454,-0.0555,-0.0707,-0.0454,-0.0555,-0.0707,-0.0454,-0.0379,-0.0328,-0.0076,0.0,0.0,0.0,0.0,0.0,0.0,0.0,0.0,0.0,0.0,0.0,0.0,0.0,0.0,0.0,0.0278,0.0556,0.0783,0.1086,0.1364,0.1566,0.1592,0.1592,0.1592,0.1592,0.1592,0.1592,0.1592,0.1592,0.1592,0.1592,0.1592,0.1592,0.1624,0.1639,0.1688,0.1728,0.1759,0.1804,0.1812,0.1801,0.4528,0.4337,0.425,0.389,0.4046,0.4289,0.4288,0.4438,0.4646,0.4823,0.4947,0.4995,0.4876,0.4303,0.3316,0.1717,0.1473,0.1203,0.0325,0.0151,0.0101,0.0126,0.0051,0.0,0.0,0.0,0.0,0.0,0.0,0.0,0.0,0.0,0.0,0.0,0.0,0.0,0.0,0.0,0.0,0.0,0.0,0.0,0.0,0.0,0.0,0.0,0.0,0.0,0.0,0.0,0.0,-0.0101,-0.1085,-0.1487,-0.1487,-0.1487,-0.1487,-0.1336,-0.0353,-0.1311,-0.2796,-0.1815,-0.2167,-0.2796,-0.179,-0.2192,-0.2771,-0.1765,-0.1487,-0.1261,-0.0252,0.0,0.0,0.0,0.0,0.0,0.0,0.0,0.0,0.0,0.0,0.0,0.0,0.0,0.0,0.0,0.0429,0.0783,0.0808,0.1263,0.1592,0.1592,0.1592,0.1592,0.1592,0.1592,0.1592,0.1592,0.1592,0.1592,0.1592,0.1592,0.1592,0.1592,0.167,0.1686,0.1688,0.1771,0.18,0.1805,0.1806,0.1793,0.4116,0.4047,0.4014,0.3596,0.391,0.4342,0.4407,0.4482,0.4648,0.5056,0.4634,0.3978,0.3397,0.2651,0.1943,0.1398,0.0856,0.0416,0.005,0.0,0.0,0.0,0.0,0.0,0.0,0.0,0.0,0.0,0.0,0.0,0.0,0.0,0.0,0.0,0.0,0.0,0.0,0.0,0.0,0.0,0.0,0.0,0.0,0.0,0.0,0.0,0.0,-0.0379,-0.0984,-0.0984,-0.1387,-0.2041,-0.2444,-0.2595,-0.2595,-0.2595,-0.2595,-0.2544,-0.2142,-0.2519,-0.3123,-0.272,-0.2871,-0.3123,-0.272,-0.2871,-0.3123,-0.272,-0.2595,-0.2343,-0.1261,-0.0505,0.0,0.0,0.0,0.0,0.0,0.0,0.0,0.0,0.0,0.0,0.0,0.0,0.0,0.0,0.0303,0.0606,0.0783,0.1111,0.1415,0.1592,0.1592,0.1592,0.1592,0.1592,0.1592,0.1592,0.1592,0.1592,0.1592,0.1592,0.1626,0.167,0.1682,0.1733,0.1771,0.1793,0.1787,0.1806,0.179,0.1795,0.3706,0.3787,0.3917,0.3544,0.3899,0.4396,0.4628,0.4684,0.472,0.483,0.4042,0.3053,0.2187,0.156,0.1103,0.0927,0.0384,0.0,0.0,0.0,0.0,0.0,0.0,0.0,0.0,0.0,0.0,0.0,0.0,0.0,0.0,0.0,0.0,0.0,0.0,0.0,0.0,0.0,0.0,0.0,-0.0353,-0.0328,0.0,-0.0353,-0.0505,-0.053,-0.0858,-0.1437,-0.2116,-0.2116,-0.2746,-0.3701,-0.3701,-0.3701,-0.3701,-0.3701,-0.3701,-0.3651,-0.3324,-0.3651,-0.4151,-0.3827,-0.3927,-0.4151,-0.3802,-0.3952,-0.4151,-0.3802,-0.3701,-0.3525,-0.2796,-0.1815,-0.1009,-0.1009,-0.1009,-0.0908,-0.058,-0.0429,-0.0278,0.0051,0.0202,0.0253,0.0253,0.0253,0.0253,0.0253,0.048,0.0707,0.0909,0.1162,0.139,0.1592,0.1592,0.1592,0.1592,0.1592,0.1592,0.1592,0.1626,0.1631,0.1631,0.1631,0.1645,0.1701,0.1711,0.1763,0.1804,0.1787,0.1803,0.1795,0.1795,0.1795,0.3322,0.354,0.3968,0.3838,0.4002,0.4354,0.4947,0.5095,0.4871,0.4053,0.3252,0.2427,0.1557,0.1323,0.0998,0.0142,0.0,0.0,0.0,0.0,0.0,0.0,0.0,0.0,0.0,0.0,0.0,0.0,0.0,0.0,0.0,0.0,0.0,0.0,0.0,0.0,-0.0025,-0.0025,-0.0025,-0.0051,-0.111,-0.1059,-0.0051,-0.1135,-0.1613,-0.1664,-0.2746,-0.3198,-0.3224,-0.3224,-0.3853,-0.4809,-0.4809,-0.4809,-0.4809,-0.4809,-0.4809,-0.4659,-0.3601,-0.463,-0.6237,-0.5158,-0.5536,-0.6209,-0.5135,-0.5561,-0.6187,-0.511,-0.4809,-0.4809,-0.4809,-0.4029,-0.3224,-0.3198,-0.3198,-0.2897,-0.1839,-0.1412,-0.0908,0.0177,0.0606,0.0783,0.0808,0.0808,0.0808,0.0808,0.1035,0.1212,0.1212,0.144,0.1592,0.1592,0.1592,0.1592,0.1592,0.1592,0.1592,0.1592,0.1646,0.1688,0.1688,0.1688,0.1702,0.1704,0.1761,0.1804,0.1804,0.1808,0.1795,0.1795,0.1795,0.1795,0.3537,0.3655,0.3857,0.3872,0.3709,0.3627,0.3856,0.4496,0.4688,0.3457,0.244,0.1509,0.0593,0.041,0.03,0.0048,0.0,0.0,0.0,0.0,0.0,0.0,0.0,0.0,0.0,0.0,0.0,0.0,0.0,0.0,0.0,0.0,0.0,0.0,0.0,-0.0353,-0.111,-0.1135,-0.1513,-0.2242,-0.2569,-0.2167,-0.116,-0.2242,-0.272,-0.2746,-0.3073,-0.3626,-0.4381,-0.5131,-0.5634,-0.5937,-0.5937,-0.5937,-0.5937,-0.5937,-0.5937,-0.5884,-0.5557,-0.5859,-0.6337,-0.6037,-0.6134,-0.6337,-0.6012,-0.6137,-0.6337,-0.6012,-0.5937,-0.5937,-0.5937,-0.5684,-0.5079,-0.355,-0.3198,-0.3123,-0.2796,-0.2518,-0.2015,-0.0933,-0.0504,-0.0076,0.0682,0.0808,0.0808,0.0808,0.1035,0.1263,0.1465,0.1541,0.1592,0.1592,0.1592,0.1592,0.1592,0.0868,0.0411,0.0411,-0.0366,-0.0079,0.1637,0.1707,0.1732,0.1763,0.1799,0.1787,0.181,0.1791,0.1795,0.1795,0.1795,0.1795,0.352,0.3521,0.3522,0.3513,0.3225,0.2976,0.3085,0.3335,0.3305,0.2479,0.1514,0.0671,0.0115,0.0,0.0,0.0,0.0,0.0,0.0,0.0,0.0,0.0,0.0,-0.0177,-0.0606,-0.0252,-0.0177,-0.0606,-0.0631,-0.0454,-0.0025,-0.0807,-0.1085,-0.0656,-0.0631,-0.116,-0.2217,-0.1815,-0.2142,-0.3198,-0.3626,-0.35,-0.2897,-0.355,-0.3827,-0.3853,-0.4277,-0.483,-0.5484,-0.6134,-0.6412,-0.6412,-0.6412,-0.6412,-0.6412,-0.6412,-0.6412,-0.6412,-0.6412,-0.6412,-0.6412,-0.6412,-0.6412,-0.6412,-0.6412,-0.6412,-0.6412,-0.6412,-0.6412,-0.6412,-0.6412,-0.6412,-0.6084,-0.4778,-0.4477,-0.4329,-0.3802,-0.3473,-0.292,-0.1739,-0.131,-0.0781,0.0303,0.0479,0.0631,0.1061,0.1263,0.1415,0.1592,0.1592,0.1439,0.1009,0.094,0.074,0.0331,-0.0389,-0.0811,-0.0811,-0.1463,-0.1204,0.0238,0.0321,0.0542,0.1076,0.1077,0.1332,0.1795,0.1795,0.1795,0.1795,0.1795,0.1795,0.3296,0.3204,0.3034,0.2886,0.2583,0.2321,0.2437,0.1804,0.1227,0.1362,0.0663,0.0,0.0,0.0,0.0,0.0,0.0,0.0,0.0,-0.0076,-0.0151,-0.0151,-0.0227,-0.0681,-0.1639,-0.0858,-0.0707,-0.1664,-0.1739,-0.1311,-0.0353,-0.2142,-0.272,-0.1639,-0.1689,-0.2217,-0.3198,-0.2318,-0.2418,-0.35,-0.4481,-0.4935,-0.4935,-0.4935,-0.4935,-0.501,-0.5984,-0.6412,-0.6412,-0.6412,-0.6412,-0.6412,-0.6412,-0.6412,-0.6412,-0.6412,-0.6412,-0.6412,-0.6412,-0.6412,-0.6412,-0.6412,-0.6412,-0.6412,-0.6412,-0.6412,-0.6412,-0.6412,-0.6412,-0.6412,-0.6412,-0.6412,-0.6412,-0.6412,-0.6412,-0.6059,-0.4805,-0.4327,-0.375,-0.2394,-0.1941,-0.1411,-0.0328,-0.0151,0.0227,0.1287,0.1465,0.1465,0.1465,0.1364,0.0934,-0.0051,-0.0205,-0.0648,-0.1633,-0.1924,-0.2051,-0.2051,-0.2112,-0.2133,-0.2133,-0.1914,-0.1295,-0.0196,-0.0056,0.0477,0.1486,0.157,0.157,0.1486,0.1598,0.1627,0.2935,0.2823,0.2747,0.2551,0.2012,0.1362,0.0732,0.0419,0.0491,0.1255,0.0648,0.0,0.0,0.0,0.0,0.0,0.0,0.0,0.0,-0.0732,-0.1261,-0.1261,-0.1991,-0.2595,-0.2846,-0.2645,-0.2595,-0.2846,-0.2846,-0.2746,-0.2519,-0.2947,-0.272,-0.1639,-0.2418,-0.2972,-0.3198,-0.3802,-0.4655,-0.5707,-0.5934,-0.6059,-0.6059,-0.6059,-0.6059,-0.6059,-0.6312,-0.6412,-0.6412,-0.6412,-0.6412,-0.6412,-0.6412,-0.6412,-0.6412,-0.6412,-0.6412,-0.6412,-0.6412,-0.6412,-0.6412,-0.6412,-0.6412,-0.6412,-0.6412,-0.6412,-0.6412,-0.6412,-0.6412,-0.6412,-0.6412,-0.6412,-0.6412,-0.6412,-0.6412,-0.6262,-0.5764,-0.5436,-0.4855,-0.3527,-0.3047,-0.2519,-0.1436,-0.126,-0.0882,0.0176,0.0353,0.0353,0.0353,-0.0403,-0.1014,-0.131,-0.1342,-0.1483,-0.1821,-0.2711,-0.3226,-0.3226,-0.411,-0.4625,-0.4625,-0.2812,-0.1674,-0.1428,-0.0476,-0.0336,-0.1036,-0.0084,-0.0112,-0.1008,-0.0056,0.0393,0.2763,0.2485,0.2105,0.1419,0.0952,0.0564,0.0108,0.0,0.0133,0.0627,0.0337,0.0,0.0,0.0,-0.0142,-0.0603,-0.0658,-0.0834,-0.1325,-0.1903,-0.2262,-0.2262,-0.2831,-0.3399,-0.3929,-0.35,-0.3425,-0.3927,-0.3977,-0.3753,-0.3224,-0.4176,-0.4252,-0.3173,-0.3676,-0.4203,-0.473,-0.4782,-0.5334,-0.6412,-0.6412,-0.6412,-0.6412,-0.6412,-0.6412,-0.6412,-0.6412,-0.6412,-0.6412,-0.6412,-0.6412,-0.6412,-0.6412,-0.6412,-0.6412,-0.6412,-0.6412,-0.6412,-0.6412,-0.6412,-0.6412,-0.6412,-0.6412,-0.6412,-0.6412,-0.6412,-0.6412,-0.6412,-0.6412,-0.6412,-0.6412,-0.6412,-0.6412,-0.6412,-0.6412,-0.6287,-0.5889,-0.5687,-0.5309,-0.4356,-0.4054,-0.3626,-0.2544,-0.1941,-0.1412,-0.0857,-0.0756,-0.0756,-0.0756,-0.127,-0.187,-0.2456,-0.2574,-0.285,-0.3443,-0.4076,-0.4476,-0.4476,-0.5045,-0.5409,-0.5409,-0.4201,-0.3246,-0.2686,-0.2043,-0.1735,-0.1791,-0.1176,-0.1176,-0.1791,-0.1148,-0.0868,0.246,0.1984,0.1257,0.0252,0.0,0.0,0.0,0.0,0.0,0.0,0.0,0.0,0.0,-0.0138,-0.0488,-0.1275,-0.1542,-0.195,-0.278,-0.3109,-0.3266,-0.3302,-0.3549,-0.4089,-0.4983,-0.4279,-0.4128,-0.501,-0.5085,-0.4682,-0.3802,-0.5432,-0.5909,-0.4834,-0.4985,-0.5409,-0.6112,-0.5434,-0.5511,-0.6412,-0.6412,-0.6412,-0.6412,-0.6412,-0.6412,-0.6412,-0.6412,-0.6412,-0.6412,-0.6412,-0.6412,-0.6412,-0.6412,-0.6412,-0.6412,-0.6412,-0.6412,-0.6412,-0.6412,-0.6412,-0.6412,-0.6412,-0.6412,-0.6412,-0.6412,-0.6412,-0.6412,-0.6412,-0.6412,-0.6412,-0.6412,-0.6412,-0.6412,-0.6412,-0.6362,-0.6187,-0.5712,-0.5561,-0.5386,-0.4885,-0.4809,-0.4508,-0.3626,-0.2595,-0.1865,-0.1865,-0.1865,-0.1865,-0.1865,-0.2098,-0.2642,-0.3589,-0.3801,-0.4233,-0.5156,-0.5339,-0.5409,-0.5409,-0.5409,-0.5409,-0.5409,-0.5409,-0.4931,-0.3917,-0.3692,-0.3217,-0.2407,-0.2211,-0.2211,-0.2407,-0.2211,-0.2099,0.1506,0.0873,0.0274,0.0052,0.0,0.0,0.0,0.0,0.0,0.0,0.0,0.0,0.0,-0.0663,-0.1248,-0.139,-0.2139,-0.2756,-0.2875,-0.3715,-0.4345,-0.4468,-0.5298,-0.5959,-0.6176,-0.6059,-0.6034,-0.6187,-0.6187,-0.6134,-0.5984,-0.6234,-0.5909,-0.4834,-0.5712,-0.5809,-0.501,-0.5787,-0.6262,-0.6412,-0.6412,-0.6412,-0.6412,-0.6412,-0.6412,-0.6412,-0.6412,-0.6412,-0.6412,-0.6412,-0.6412,-0.6412,-0.6412,-0.6412,-0.6412,-0.6412,-0.6412,-0.6412,-0.6412,-0.6412,-0.6412,-0.6412,-0.6412,-0.6412,-0.6412,-0.6412,-0.6412,-0.6412,-0.6412,-0.6412,-0.6412,-0.6412,-0.6412,-0.6412,-0.6214,-0.5964,-0.5661,-0.5413,-0.5163,-0.486,-0.4809,-0.4759,-0.4609,-0.3701,-0.2997,-0.2997,-0.2997,-0.2997,-0.2997,-0.3917,-0.4636,-0.4842,-0.4939,-0.5084,-0.5355,-0.5401,-0.5409,-0.5409,-0.5409,-0.5409,-0.5409,-0.5409,-0.5326,-0.5156,-0.4142,-0.403,-0.4931,-0.3861,-0.3891,-0.4903,-0.3833,-0.3357,0.1191,0.061,0.0089,0.0017,0.0,0.0,0.0,0.0,0.0,0.0,-0.0413,-0.0774,-0.0784,-0.113,-0.1748,-0.2858,-0.3406,-0.3862,-0.4391,-0.4942,-0.5297,-0.5369,-0.586,-0.6235,-0.6331,-0.6342,-0.6369,-0.6406,-0.6412,-0.6412,-0.6412,-0.6412,-0.6187,-0.5712,-0.6162,-0.6187,-0.5712,-0.6162,-0.6412,-0.6412,-0.6412,-0.6412,-0.6412,-0.6412,-0.6412,-0.6412,-0.6412,-0.6412,-0.6412,-0.6412,-0.6412,-0.6412,-0.6412,-0.6412,-0.6412,-0.6412,-0.6412,-0.6412,-0.6412,-0.6412,-0.6412,-0.6412,-0.6412,-0.6362,-0.6214,-0.6164,-0.6139,-0.5987,-0.5962,-0.5962,-0.5962,-0.5962,-0.5962,-0.5962,-0.5739,-0.5516,-0.5388,-0.529,-0.5115,-0.486,-0.4809,-0.4809,-0.4809,-0.4406,-0.4105,-0.4105,-0.4105,-0.412,-0.4189,-0.4705,-0.5084,-0.5149,-0.524,-0.5337,-0.5405,-0.5409,-0.5409,-0.5409,-0.5409,-0.5409,-0.5409,-0.5409,-0.5409,-0.5409,-0.4873,-0.4873,-0.5409,-0.4873,-0.4873,-0.5382,-0.4845,-0.462,0.0932,0.0522,0.015,0.0047,0.0034,0.0036,0.0,0.0,-0.0061,-0.0288,-0.0888,-0.1515,-0.1956,-0.2091,-0.2621,-0.4052,-0.45,-0.4904,-0.5599,-0.5784,-0.5871,-0.5899,-0.5983,-0.611,-0.6235,-0.6246,-0.6282,-0.6317,-0.6352,-0.6368,-0.6368,-0.6396,-0.6412,-0.6412,-0.6412,-0.6412,-0.6412,-0.6412,-0.6412,-0.6412,-0.6412,-0.6412,-0.6412,-0.6412,-0.6412,-0.6412,-0.6412,-0.6412,-0.6412,-0.6412,-0.6412,-0.6412,-0.6412,-0.6412,-0.6412,-0.6412,-0.6412,-0.6412,-0.6412,-0.6412,-0.6412,-0.6412,-0.6362,-0.6262,-0.6064,-0.5942,-0.5864,-0.5661,-0.5611,-0.5611,-0.5611,-0.5611,-0.5611,-0.5611,-0.5388,-0.519,-0.5115,-0.509,-0.5037,-0.4834,-0.4809,-0.4809,-0.4809,-0.4809,-0.4817,-0.4842,-0.4844,-0.4904,-0.5022,-0.5086,-0.5142,-0.5182,-0.5326,-0.5409,-0.5409,-0.5409,-0.5409,-0.5409,-0.5409,-0.5409,-0.5409,-0.5409,-0.5409,-0.5409,-0.5409,-0.5409,-0.5409,-0.5409,-0.5409,-0.5409,-0.5409,-0.5409,0.049,0.0409,0.0338,0.0149,0.014,0.0153,0.0035,0.0,-0.0236,-0.1062,-0.1265,-0.1809,-0.347,-0.3986,-0.4188,-0.4277,-0.5037,-0.5644,-0.5688,-0.5716,-0.5759,-0.589,-0.5909,-0.5961,-0.6107,-0.6118,-0.6121,-0.6105,-0.6235,-0.6301,-0.6301,-0.6355,-0.6412,-0.6412,-0.6412,-0.6412,-0.6412,-0.6412,-0.6412,-0.6412,-0.6412,-0.6412,-0.6412,-0.6412,-0.6412,-0.6412,-0.6412,-0.6412,-0.6412,-0.6412,-0.6412,-0.6412,-0.6412,-0.6412,-0.6412,-0.6412,-0.6412,-0.6412,-0.6412,-0.6412,-0.6412,-0.6412,-0.6239,-0.6017,-0.5992,-0.5814,-0.5611,-0.5611,-0.5611,-0.5611,-0.5611,-0.5611,-0.5611,-0.5611,-0.5388,-0.514,-0.4885,-0.4809,-0.4809,-0.4809,-0.4809,-0.4809,-0.4809,-0.4809,-0.4838,-0.4976,-0.4991,-0.5024,-0.509,-0.5153,-0.5184,-0.519,-0.5326,-0.5409,-0.5409,-0.5409,-0.5409,-0.5409,-0.5409,-0.5409,-0.5409,-0.5409,-0.5409,-0.5409,-0.5409,-0.5409,-0.5409,-0.5409,-0.5409,-0.5409,-0.5409,-0.5409,0.0375,0.0365,0.0369,0.0252,0.0183,0.0137,0.0128,0.0069,-0.0239,-0.1119,-0.1789,-0.254,-0.3681,-0.4045,-0.4365,-0.4978,-0.5416,-0.5688,-0.5688,-0.5688,-0.5727,-0.5767,-0.5773,-0.5819,-0.5958,-0.5969,-0.6002,-0.6104,-0.6151,-0.6175,-0.6175,-0.6189,-0.6246,-0.6325,-0.6328,-0.6363,-0.6409,-0.6412,-0.6412,-0.6412,-0.6412,-0.6412,-0.6412,-0.6412,-0.6412,-0.6412,-0.6412,-0.6412,-0.6412,-0.6412,-0.6412,-0.6412,-0.6412,-0.6412,-0.6412,-0.6412,-0.6412,-0.6412,-0.6412,-0.6412,-0.6412,-0.6412,-0.6214,-0.5967,-0.5789,-0.5564,-0.5313,-0.5135,-0.5085,-0.5085,-0.5085,-0.5085,-0.5085,-0.5085,-0.501,-0.4912,-0.4809,-0.4809,-0.4809,-0.4809,-0.4809,-0.4809,-0.4809,-0.4883,-0.4934,-0.4993,-0.5048,-0.5092,-0.5157,-0.5197,-0.524,-0.5326,-0.5361,-0.5409,-0.5409,-0.5409,-0.5409,-0.5409,-0.5409,-0.5409,-0.5409,-0.5409,-0.5409,-0.5409,-0.5409,-0.5409,-0.5409,-0.5409,-0.5409,-0.5409,-0.5409,-0.5409,0.0362,0.0402,0.045,0.0386,0.0295,0.0235,0.0209,0.0129,-0.0258,-0.1394,-0.2124,-0.2905,-0.4001,-0.4313,-0.4636,-0.5347,-0.557,-0.5626,-0.5626,-0.5664,-0.5688,-0.5688,-0.5688,-0.574,-0.5816,-0.5824,-0.588,-0.5961,-0.6002,-0.6024,-0.6024,-0.6088,-0.6167,-0.629,-0.6293,-0.6323,-0.6409,-0.6412,-0.6412,-0.6412,-0.6412,-0.6412,-0.6412,-0.6412,-0.6412,-0.6412,-0.6412,-0.6412,-0.6412,-0.6412,-0.6412,-0.6412,-0.6412,-0.6412,-0.6412,-0.6412,-0.6412,-0.6412,-0.6412,-0.6412,-0.6412,-0.6412,-0.6164,-0.5839,-0.5661,-0.5363,-0.5037,-0.486,-0.4809,-0.4809,-0.4809,-0.4809,-0.4809,-0.4809,-0.4809,-0.4809,-0.4809,-0.4809,-0.4809,-0.4809,-0.4809,-0.4819,-0.485,-0.4932,-0.502,-0.5053,-0.5116,-0.5161,-0.525,-0.5262,-0.5314,-0.5403,-0.5409,-0.5409,-0.5409,-0.5409,-0.5409,-0.5409,-0.5409,-0.5409,-0.5409,-0.5409,-0.5409,-0.5409,-0.5409,-0.5409,-0.5409,-0.5409,-0.5409,-0.5409,-0.5409,-0.5409,0.0,0.0,0.0,0.052,0.0498,0.0451,0.0258,0.02,-0.0291,-0.1944,-0.2307,-0.2835,-0.4483,-0.4906,-0.5083,-0.5337,-0.544,-0.5502,-0.5502,-0.5605,-0.5702,-0.5683,-0.5683,-0.5708,-0.5688,-0.5688,-0.5688,-0.5688,-0.5813,-0.5896,-0.5896,-0.6013,-0.6159,-0.6279,-0.629,-0.632,-0.6406,-0.6409,-0.6412,-0.6412,-0.6412,-0.6412,-0.6412,-0.6412,-0.6412,-0.6412,-0.6412,-0.6412,-0.6412,-0.6412,-0.6412,-0.6412,-0.6412,-0.6412,-0.6412,-0.6412,-0.6412,-0.6412,-0.6412,-0.6412,-0.6412,-0.6412,-0.6037,-0.5611,-0.5611,-0.5236,-0.4809,-0.4809,-0.4809,-0.4809,-0.4809,-0.4809,-0.4809,-0.4809,-0.4809,-0.4809,-0.4809,-0.4809,-0.4809,-0.4809,-0.4809,-0.4838,-0.4979,-0.4997,-0.5037,-0.5187,-0.519,-0.5252,-0.5369,-0.5409,-0.5409,-0.5409,-0.5409,-0.5409,-0.5409,-0.5409,-0.5409,-0.5409,-0.5409,-0.5409,-0.5409,-0.5409,-0.5409,-0.5409,-0.5409,-0.5409,-0.5409,-0.5409,-0.5409,-0.5409,-0.5409,-0.5409,0.0483,0.0,0.0,0.0,0.0,0.0,0.0419,0.004,-0.0644,-0.1843,-0.2476,-0.3168,-0.4371,-0.4688,-0.4822,-0.4936,-0.5227,-0.542,-0.542,-0.5471,-0.5502,-0.5545,-0.5559,-0.5594,-0.568,-0.5688,-0.5688,-0.5688,-0.574,-0.5757,-0.5757,-0.589,-0.5969,-0.6002,-0.62,-0.6309,-0.6339,-0.6371,-0.6412,-0.6412,-0.6412,-0.6412,-0.6412,-0.6412,-0.6412,-0.6412,-0.6412,-0.6412,-0.6412,-0.6412,-0.6412,-0.6412,-0.6412,-0.6412,-0.6412,-0.6412,-0.6412,-0.6412,-0.6412,-0.6412,-0.6412,-0.6412,-0.6037,-0.5611,-0.5611,-0.5236,-0.4809,-0.4809,-0.4809,-0.4809,-0.4809,-0.4809,-0.4809,-0.4809,-0.4809,-0.4809,-0.4809,-0.4809,-0.4809,-0.4809,-0.4809,-0.4817,-0.4844,-0.4983,-0.5088,-0.5112,-0.5259,-0.5353,-0.5405,-0.5409,-0.5409,-0.5409,-0.5409,-0.5409,-0.5409,-0.5409,-0.5409,-0.5409,-0.5409,-0.5409,-0.5409,-0.5409,-0.5409,-0.5409,-0.5409,-0.5409,-0.5409,-0.5409,-0.5409,-0.5409,-0.5409,-0.5409,0.0562,0.0588,0.0644,0.0681,0.0,0.0,0.0474,0.0153,-0.0407,-0.142,-0.1937,-0.2566,-0.3746,-0.4022,-0.4204,-0.4617,-0.4876,-0.5084,-0.5286,-0.5357,-0.5417,-0.5445,-0.5453,-0.5502,-0.5602,-0.5613,-0.5634,-0.5708,-0.5688,-0.5688,-0.5688,-0.5773,-0.5852,-0.5901,-0.6043,-0.6189,-0.6293,-0.6333,-0.6366,-0.6412,-0.6412,-0.6412,-0.6412,-0.6412,-0.6412,-0.6412,-0.6412,-0.6412,-0.6412,-0.6412,-0.6412,-0.6412,-0.6412,-0.6412,-0.6412,-0.6412,-0.6412,-0.6412,-0.6412,-0.6412,-0.6412,-0.6412,-0.6037,-0.5611,-0.5611,-0.5236,-0.4809,-0.4809,-0.4809,-0.4809,-0.4809,-0.4809,-0.4809,-0.4809,-0.4809,-0.4809,-0.4809,-0.4809,-0.4809,-0.4809,-0.4809,-0.4822,-0.4885,-0.5012,-0.512,-0.5132,-0.529,-0.5409,-0.5409,-0.5409,-0.5409,-0.5409,-0.5409,-0.5409,-0.5409,-0.5409,-0.5409,-0.5409,-0.5409,-0.5409,-0.5409,-0.5409,-0.5409,-0.5409,-0.5409,-0.5268,-0.5015,-0.5268,-0.5409,-0.5409,-0.5409,-0.5409,0.0624,0.0662,0.0722,0.0774,0.0751,0.0,0.0471,0.0394,0.0081,-0.0838,-0.1083,-0.1505,-0.2794,-0.3078,-0.3392,-0.4188,-0.4321,-0.4523,-0.5083,-0.5261,-0.534,-0.5365,-0.537,-0.5396,-0.5475,-0.5489,-0.5537,-0.5659,-0.5683,-0.5688,-0.5688,-0.5688,-0.5757,-0.588,-0.5896,-0.6007,-0.6252,-0.6279,-0.632,-0.6393,-0.6406,-0.6412,-0.6412,-0.6412,-0.6412,-0.6412,-0.6412,-0.6412,-0.6412,-0.6412,-0.6412,-0.6412,-0.6412,-0.6412,-0.6412,-0.6412,-0.6412,-0.6412,-0.6412,-0.6387,-0.6362,-0.6362,-0.5987,-0.5561,-0.5561,-0.5211,-0.4809,-0.4809,-0.4809,-0.4809,-0.4809,-0.4809,-0.4809,-0.4809,-0.4809,-0.4809,-0.4809,-0.4809,-0.4809,-0.4809,-0.4809,-0.4836,-0.4968,-0.5041,-0.5108,-0.5189,-0.5316,-0.5409,-0.5409,-0.5409,-0.5409,-0.5409,-0.5409,-0.5409,-0.5409,-0.5409,-0.5409,-0.5409,-0.5409,-0.5409,-0.5409,-0.5409,-0.5409,-0.5409,-0.5409,-0.5098,-0.4508,-0.5043,-0.5268,-0.5212,-0.5212,-0.5212,0.0695,0.0733,0.0774,0.073,0.0747,0.0,0.066,0.031,-0.0101,-0.0462,-0.0924,-0.1399,-0.1825,-0.2355,-0.281,-0.3089,-0.3218,-0.3663,-0.4734,-0.4904,-0.499,-0.522,-0.5242,-0.5291,-0.5414,-0.5425,-0.5455,-0.5534,-0.5634,-0.5688,-0.5688,-0.5688,-0.5721,-0.5743,-0.5855,-0.5926,-0.5972,-0.6194,-0.6303,-0.6325,-0.6368,-0.6412,-0.6412,-0.6412,-0.6412,-0.6412,-0.6412,-0.6412,-0.6412,-0.6412,-0.6412,-0.6412,-0.6412,-0.6412,-0.6412,-0.6412,-0.6412,-0.6412,-0.6412,-0.6264,-0.6067,-0.6067,-0.5716,-0.529,-0.529,-0.5062,-0.4809,-0.4809,-0.4809,-0.4809,-0.4809,-0.4809,-0.4809,-0.4809,-0.4809,-0.4809,-0.4809,-0.4809,-0.4809,-0.4809,-0.4809,-0.4815,-0.4832,-0.4972,-0.5114,-0.5106,-0.5275,-0.5409,-0.5409,-0.5409,-0.5409,-0.5409,-0.5409,-0.5409,-0.5409,-0.5409,-0.5409,-0.5409,-0.5409,-0.5409,-0.5409,-0.5409,-0.5409,-0.5409,-0.5409,-0.5098,-0.4508,-0.462,-0.4426,-0.3951,-0.3951,-0.3951,0.0818,0.0818,0.0841,0.0809,0.0822,0.0,0.0,0.046,0.0217,0.0079,-0.0213,-0.0567,-0.0937,-0.1304,-0.1689,-0.2092,-0.2261,-0.2584,-0.3253,-0.3527,-0.3984,-0.4849,-0.4631,-0.462,-0.5155,-0.5192,-0.5268,-0.5447,-0.5551,-0.5599,-0.5599,-0.5656,-0.5688,-0.5688,-0.5765,-0.5821,-0.5904,-0.6026,-0.6172,-0.6293,-0.6325,-0.6358,-0.6412,-0.6412,-0.6412,-0.6412,-0.6412,-0.6412,-0.6412,-0.6412,-0.6412,-0.6412,-0.6412,-0.6412,-0.6412,-0.6412,-0.6312,-0.6189,-0.6189,-0.6014,-0.5789,-0.5789,-0.5541,-0.519,-0.519,-0.5012,-0.4809,-0.4809,-0.4809,-0.4809,-0.4809,-0.4809,-0.4809,-0.4809,-0.4809,-0.4809,-0.4809,-0.4809,-0.4809,-0.4809,-0.4809,-0.4809,-0.4809,-0.4949,-0.5055,-0.51,-0.5224,-0.5331,-0.5403,-0.5409,-0.5409,-0.5409,-0.5409,-0.5409,-0.5409,-0.5409,-0.5409,-0.5409,-0.5409,-0.5409,-0.5409,-0.5409,-0.5409,-0.5409,-0.5098,-0.465,-0.4061,-0.3755,-0.3615,-0.3587,-0.3587,-0.3587,0.0928,0.0924,0.0912,0.09,0.0915,0.0879,0.0,0.0,0.0,0.0565,0.0526,0.0366,-0.0071,-0.0291,-0.0575,-0.1126,-0.1317,-0.1492,-0.1743,-0.1874,-0.2554,-0.4181,-0.3797,-0.3721,-0.4565,-0.468,-0.4804,-0.5094,-0.5264,-0.541,-0.5502,-0.5602,-0.5664,-0.571,-0.5688,-0.5754,-0.5869,-0.589,-0.6002,-0.6222,-0.6271,-0.6317,-0.6379,-0.6401,-0.6412,-0.6412,-0.6412,-0.6412,-0.6387,-0.6337,-0.6312,-0.6337,-0.6387,-0.6362,-0.6312,-0.6312,-0.6164,-0.5917,-0.5917,-0.5739,-0.5511,-0.5511,-0.5338,-0.5115,-0.5115,-0.4962,-0.4809,-0.4809,-0.4809,-0.4809,-0.4809,-0.4809,-0.4809,-0.4809,-0.4809,-0.4809,-0.4809,-0.4809,-0.4809,-0.4809,-0.4809,-0.4809,-0.4809,-0.491,-0.5024,-0.5071,-0.5146,-0.5244,-0.5345,-0.5371,-0.5409,-0.5409,-0.5409,-0.5409,-0.5409,-0.5409,-0.5409,-0.5409,-0.5409,-0.5409,-0.5409,-0.5409,-0.5409,-0.5409,-0.4817,-0.4201,-0.3587,-0.3002,-0.2889,-0.3251,-0.3251,-0.3251,0.0983,0.0991,0.098,0.0911,0.095,0.096,0.0815,0.0,0.0847,0.0779,0.0,0.0823,0.0766,0.0,0.0,-0.0155,-0.0289,-0.0598,-0.1269,-0.0545,-0.0747,-0.2941,-0.2864,-0.2828,-0.3354,-0.3505,-0.3726,-0.404,-0.4578,-0.5062,-0.5486,-0.5521,-0.5578,-0.5686,-0.5688,-0.5716,-0.5732,-0.5852,-0.5918,-0.5947,-0.6189,-0.6301,-0.6314,-0.6366,-0.6412,-0.6412,-0.6412,-0.6412,-0.6387,-0.6139,-0.6042,-0.6067,-0.6312,-0.6264,-0.6042,-0.6042,-0.5864,-0.5636,-0.5636,-0.5463,-0.524,-0.524,-0.5062,-0.4834,-0.4834,-0.4834,-0.4809,-0.4809,-0.4809,-0.4809,-0.4809,-0.4809,-0.4809,-0.4809,-0.4809,-0.4809,-0.4809,-0.4809,-0.4809,-0.4809,-0.4809,-0.4809,-0.4809,-0.491,-0.5001,-0.5011,-0.5108,-0.5194,-0.523,-0.5331,-0.5409,-0.5409,-0.5409,-0.5409,-0.5409,-0.5409,-0.5409,-0.5409,-0.5409,-0.5409,-0.5409,-0.5409,-0.5409,-0.5409,-0.4817,-0.4201,-0.3587,-0.3002,-0.2469,-0.1991,-0.1991,-0.1991,0.1016,0.0656,0.0407,0.0855,0.0605,0.0348,0.076,0.0878,0.0887,0.087,0.0,0.0,0.0,0.0,0.0,0.0,0.0411,0.0225,-0.004,0.02,-0.0252,-0.2034,-0.2087,-0.2267,-0.302,-0.321,-0.3373,-0.3594,-0.425,-0.4755,-0.5076,-0.531,-0.548,-0.558,-0.5653,-0.5688,-0.5688,-0.5757,-0.5816,-0.5904,-0.6102,-0.6224,-0.6298,-0.636,-0.6412,-0.6412,-0.6412,-0.6312,-0.6164,-0.6042,-0.5914,-0.5789,-0.5887,-0.5862,-0.5764,-0.5764,-0.5589,-0.5363,-0.5363,-0.5188,-0.4962,-0.4962,-0.4885,-0.4809,-0.4809,-0.4809,-0.4809,-0.4809,-0.4809,-0.4809,-0.4809,-0.4809,-0.4809,-0.4809,-0.4809,-0.4809,-0.4809,-0.4809,-0.4809,-0.4809,-0.4809,-0.4809,-0.4809,-0.4842,-0.491,-0.4989,-0.5081,-0.5157,-0.5182,-0.5324,-0.5409,-0.5409,-0.5409,-0.5409,-0.5409,-0.5409,-0.5409,-0.5409,-0.5409,-0.5409,-0.5409,-0.5409,-0.5409,-0.5409,-0.4454,-0.3866,-0.3587,-0.2636,-0.2048,-0.1795,-0.1795,-0.1795,0.065,0.0276,0.0016,0.0796,0.0524,0.0198,0.0777,0.0909,0.0925,0.0911,0.0877,0.0,0.0,0.0,0.0899,0.0894,0.0,0.0766,0.079,0.063,0.0065,-0.1119,-0.1229,-0.1436,-0.2017,-0.2397,-0.2707,-0.2975,-0.3737,-0.4369,-0.4777,-0.508,-0.5322,-0.5499,-0.5594,-0.5656,-0.5688,-0.5688,-0.5751,-0.5858,-0.5977,-0.6076,-0.6128,-0.6213,-0.623,-0.6187,-0.6187,-0.6064,-0.5889,-0.5817,-0.5664,-0.5486,-0.5411,-0.5386,-0.5386,-0.5461,-0.5313,-0.509,-0.509,-0.4962,-0.4809,-0.4809,-0.4809,-0.4809,-0.4809,-0.4809,-0.4809,-0.4809,-0.4809,-0.4809,-0.4809,-0.4809,-0.4809,-0.4809,-0.4809,-0.4809,-0.4809,-0.4809,-0.4809,-0.4809,-0.4809,-0.4809,-0.4809,-0.4809,-0.4832,-0.4924,-0.5012,-0.5104,-0.5169,-0.5286,-0.5355,-0.5405,-0.5409,-0.5409,-0.5409,-0.5409,-0.5409,-0.5409,-0.5409,-0.5409,-0.5409,-0.5409,-0.5326,-0.5156,-0.412,-0.3531,-0.3365,-0.2299,-0.1795,-0.1795,-0.1795,-0.1795,-0.0283,-0.0087,0.0069,0.082,0.0973,0.0942,0.0913,0.0943,0.0983,0.0911,0.0943,0.098,0.0909,0.0898,0.0896,0.0898,0.0898,0.0,0.0,0.0794,0.0555,-0.0076,-0.0208,-0.0103,0.0251,-0.053,-0.1317,-0.1898,-0.2865,-0.383,-0.4752,-0.4806,-0.5027,-0.5491,-0.551,-0.557,-0.571,-0.5688,-0.5713,-0.5719,-0.5832,-0.5835,-0.5723,-0.5852,-0.5812,-0.5636,-0.5636,-0.5611,-0.5586,-0.5338,-0.5215,-0.519,-0.4937,-0.4834,-0.486,-0.5115,-0.5037,-0.4809,-0.4809,-0.4809,-0.4809,-0.4809,-0.4809,-0.4809,-0.4809,-0.4809,-0.4809,-0.4809,-0.4809,-0.4809,-0.4809,-0.4809,-0.4809,-0.4809,-0.4809,-0.4809,-0.4809,-0.4809,-0.4809,-0.4809,-0.4809,-0.4809,-0.4809,-0.4809,-0.4811,-0.4813,-0.4916,-0.5036,-0.51,-0.5165,-0.5254,-0.5399,-0.5409,-0.5409,-0.5409,-0.5409,-0.5409,-0.5409,-0.5409,-0.5409,-0.5409,-0.5409,-0.5128,-0.4536,-0.3923,-0.3309,-0.2721,-0.2104,-0.1795,-0.1795,-0.1795,-0.1795,0.0,-0.1309,-0.1447,-0.0117,-0.0196,-0.032,0.068,0.0959,0.0986,0.091,0.0946,0.0985,0.0909,0.0898,0.0898,0.0898,0.0898,0.0862,0.0,0.0731,0.0658,0.0455,0.037,0.0125,-0.0414,-0.059,-0.106,-0.2023,-0.2695,-0.3436,-0.4285,-0.4626,-0.496,-0.5301,-0.5424,-0.5567,-0.571,-0.5688,-0.5644,-0.5508,-0.5645,-0.5583,-0.5371,-0.5552,-0.5603,-0.5541,-0.5583,-0.5486,-0.5338,-0.524,-0.509,-0.4937,-0.4834,-0.4809,-0.4809,-0.4912,-0.4885,-0.4809,-0.4809,-0.4809,-0.4809,-0.4809,-0.4809,-0.4809,-0.4809,-0.4809,-0.4809,-0.4809,-0.4809,-0.4809,-0.4809,-0.4809,-0.4809,-0.4809,-0.4809,-0.4809,-0.4809,-0.4809,-0.4809,-0.4809,-0.4809,-0.4809,-0.4809,-0.4809,-0.4809,-0.4809,-0.4912,-0.503,-0.5096,-0.5161,-0.5252,-0.5399,-0.5409,-0.5409,-0.5409,-0.5409,-0.5409,-0.5409,-0.5409,-0.5409,-0.5409,-0.5409,-0.5126,-0.4508,-0.3895,-0.3309,-0.2693,-0.2104,-0.1795,-0.1795,-0.1795,-0.1795,-0.1866,-0.2275,0.0,-0.1076,-0.1176,-0.1267,0.0061,0.0417,0.0454,0.0382,0.0705,0.0783,0.0105,0.0477,0.0806,0.052,0.0712,0.0863,0.0,0.0716,0.0697,0.0695,0.068,0.0397,-0.0299,-0.0447,-0.0821,-0.1609,-0.2341,-0.3034,-0.368,-0.4245,-0.4718,-0.5078,-0.534,-0.5545,-0.5688,-0.5621,-0.553,-0.5396,-0.54,-0.5273,-0.5062,-0.5208,-0.5257,-0.5225,-0.5295,-0.5211,-0.5062,-0.5062,-0.4962,-0.4809,-0.4809,-0.4809,-0.4809,-0.4809,-0.4809,-0.4809,-0.4809,-0.4809,-0.4809,-0.4809,-0.4809,-0.4809,-0.4809,-0.4809,-0.4809,-0.4809,-0.4809,-0.4809,-0.4809,-0.4809,-0.4809,-0.4809,-0.4809,-0.4809,-0.4809,-0.4809,-0.4809,-0.4809,-0.4809,-0.4809,-0.4809,-0.4809,-0.4809,-0.4809,-0.4885,-0.4955,-0.5049,-0.5112,-0.5203,-0.5322,-0.5363,-0.5409,-0.5409,-0.5409,-0.5409,-0.5409,-0.5409,-0.5409,-0.5409,-0.5184,-0.4789,-0.4201,-0.3587,-0.2973,-0.2384,-0.1992,-0.1795,-0.1795,-0.1795,-0.1795]},{"header":{"parameterUnit":"m.s-1","parameterCategory":1,"la1":30.6,"la2":29.2853,"lo1":-89.7004,"lo2":-87.6739,"dy":0.0162,"dx":0.0183,"nx":112,"ny":82,"refTime":"2024-09-18T12:00:00:Z","depth":0,"parameterNumber":3,"parameterNumberName":"V-component_of_WINDS"},"data":[0.0,0.0,0.0,0.0,0.0,0.0,0.0,0.0,0.0,0.0,0.0,0.0,0.0,0.0,0.0,0.0,0.0,0.0,0.0,0.0,0.0,0.0,0.0,0.0,0.0,0.0,0.0,0.0,0.0,0.0,0.0,0.0,0.0,0.0,0.0,0.0,0.0,0.0,0.0,0.0,0.0,0.0,0.0,0.0,0.0,0.0,0.0,0.0,0.0,0.0,0.0,0.0,0.0,0.0,0.0,0.0,0.0,0.0,0.0,0.0,0.0,0.0,0.0,0.0,0.0,0.0,0.0,0.0,0.0,0.0,0.0,0.0,0.0,0.0,0.0,0.0,0.0,0.0,0.0,0.0,0.0,0.0,0.0,0.0,0.0,0.0,0.0,0.0,0.0,0.0,1.5202,1.6426,1.9157,2.1031,2.147,2.1041,1.9367,1.6119,0.0,0.0,0.0,0.0,0.0,0.0,0.0,0.0,0.0,0.0,0.0,0.0,0.0,0.0,0.0,0.0,0.0,0.0,0.0,0.0,0.0,0.0,0.0,0.0,0.0,0.0,0.0,0.0,0.0,0.0,0.0,0.0,0.0,0.0,0.0,0.0,0.0,0.0,0.0,0.0,0.0,0.0,0.0,0.0,0.0,0.0,0.0,0.0,0.0,0.0,0.0,0.0,0.0,0.0,0.0,0.0,0.0,0.0,0.0,0.0,0.0,0.0,0.0,0.0,0.0,0.0,0.0,0.0,0.0,0.0,0.0,0.0,0.0,0.0,0.0,0.0,0.0,0.0,0.0,0.0,0.0,0.0,0.0,0.0,0.0,0.0,0.0,0.0,0.0,0.0,0.0,0.0,0.0,0.0,0.0,0.0,0.0,0.0,0.0,0.0,0.0,0.0,0.0,0.0,1.6976,2.0108,2.0622,2.0839,2.107,2.0454,1.914,1.7018,0.0,0.0,0.0,0.0,0.0,0.0,0.0,0.0,0.0,0.0,0.0,0.0,0.0,0.0,0.0,0.0,0.0,0.0,0.0,0.0,0.0,0.0,0.0,0.0,0.0,0.0,0.0,0.0,0.0,0.0,0.0,0.0,0.0,0.0,0.0,0.0,0.0,0.0,0.0,0.0,0.0,0.0,0.0,0.0,0.0,0.0,0.0,0.0,0.0,0.0,0.0,0.0,0.0,0.0,0.0,0.0,0.0,0.0,0.0,0.0,0.0,0.0,0.0,0.0,0.0,0.0,0.0,0.0,0.0,0.0,0.0,0.0,0.0,0.0,0.0,0.0,0.0,0.0,0.0,0.0,0.0,0.0,0.0,0.0,0.0,0.0,0.0,0.0,0.0,0.0,0.0,0.0,0.0,0.0,0.0,0.0,0.0,0.0,0.0,0.0,0.0,0.0,0.0,1.5553,1.782,2.077,2.1671,2.2128,2.2342,2.1347,1.9684,1.7304,1.5767,0.0,0.0,0.0,0.0,0.0,0.0,0.0,0.0,0.0,0.0,0.0,0.0,0.0,0.0,0.0,0.0,0.0,0.0,0.0,0.0,0.0,0.0,0.0,0.0,0.0,0.0,0.0,0.0,0.0,0.0,0.0,0.0,0.0,0.0,0.0,0.0,0.0,0.0,0.0,0.0,0.0,0.0,0.0,0.0,0.0,0.0,0.0,0.0,0.0,0.0,0.0,0.0,0.0,0.0,0.0,0.0,0.0,0.0,0.0,0.0,0.0,0.0,0.0,0.0,0.0,0.0,0.0,0.0,0.0,0.0,0.0,0.0,0.0,0.0,0.0,0.0,0.0,0.0,0.0,0.0,0.0,0.0,0.0,0.0,0.0,0.0,0.0,0.0,0.0,0.0,0.0,0.0,0.0,0.0,0.0,0.0,0.0,0.0,0.0,0.0,0.0,0.0,1.7293,1.872,2.1033,2.2257,2.2976,2.3131,2.1741,1.9832,1.7361,1.5544,0.0,0.0,0.0,0.0,0.0,0.0,0.0,0.0,0.0,0.0,0.0,0.0,0.0,0.0,0.0,0.0,0.0,0.0,0.0,0.0,0.0,0.0,0.0,0.0,0.0,0.0,0.0,0.0,0.0,0.0,0.0,0.0,0.0,0.0,0.0,0.0,0.0,0.0,0.0,0.0,0.0,0.0,0.0,0.0,0.0,0.0,0.0,0.0,0.0,0.0,0.0,0.0,0.0,0.0,0.0,0.0,0.0,0.0,0.0,0.0,0.0,0.0,0.0,0.0,0.0,0.0,0.0,0.0,0.0,0.0,0.0,0.0,0.0,0.0,0.0,0.0,0.0,0.0,0.0,0.0,0.0,0.0,0.0,0.0,0.0,0.0,0.0,0.0,0.0,0.0,0.0,0.0,0.0,0.0,0.0,0.0,0.0,0.0,0.0,0.0,0.0,0.0,1.8364,2.0205,2.2184,2.2212,2.2088,2.21,2.0407,1.8735,1.7294,1.4936,0.0,0.0,0.0,0.0,0.0,0.0,0.0,0.0,0.0,0.0,0.0,0.0,0.0,0.0,0.0,0.0,0.0,0.0,0.0,0.0,0.0,0.0,0.0,0.0,0.0,0.0,0.0,0.0,0.0,0.0,0.0,0.0,0.0,0.0,0.0,0.0,0.0,0.0,0.0,0.0,0.0,0.0,0.0,0.0,0.0,0.0,0.0,0.0,0.0,0.0,0.0,0.0,0.0,0.0,0.0,0.0,0.0,0.0,0.0,0.0,0.0,0.0,0.0,0.0,0.0,0.0,0.0,0.0,0.0,0.0,0.0,0.0,0.0,0.0,0.0,0.0,0.0,0.0,0.0,0.0,0.0,0.0,0.0,0.0,0.0,0.0,0.0,0.0,0.0,0.0,0.0,0.0,0.0,0.0,0.0,0.0,0.0,0.0,0.0,0.0,0.0,0.0,1.829,2.0323,2.2512,2.3154,2.3355,2.3135,2.1894,2.0101,1.7672,0.0,0.0,0.0,0.0,0.0,0.0,0.0,0.0,0.0,0.0,0.0,0.0,0.0,0.0,0.0,0.0,0.0,0.0,0.0,0.0,0.0,0.0,0.0,0.0,0.0,0.0,0.0,0.0,0.0,0.0,0.0,0.0,0.0,0.0,0.0,0.0,0.0,0.0,0.0,0.0,0.0,0.0,0.0,0.0,0.0,0.0,0.0,0.0,0.0,0.0,0.0,0.0,0.0,0.0,0.0,0.0,0.0,0.0,0.0,0.0,0.0,0.0,0.0,0.0,0.0,0.0,0.0,0.0,0.0,0.0,0.0,0.0,0.0,0.0,0.0,0.0,0.0,0.0,0.0,0.0,0.0,0.0,0.0,0.0,0.0,0.0,0.0,0.0,0.0,0.0,0.0,0.0,0.0,0.0,0.0,0.0,0.0,0.0,0.0,0.0,0.0,0.0,1.6351,1.8608,2.0804,2.29,2.3724,2.396,2.3516,2.2373,2.0474,1.7695,0.0,0.0,0.0,0.0,0.0,0.0,0.0,0.0,0.0,0.0,0.0,0.0,0.0,0.0,0.0,0.0,0.0,0.0,0.0,0.0,0.0,0.0,0.0,0.0,0.0,0.0,0.0,0.0,0.0,0.0,0.0,0.0,0.0,0.0,0.0,0.0,0.0,0.0,0.0,0.0,0.0,0.0,0.0,0.0,0.0,0.0,0.0,0.0,0.0,0.0,0.0,0.0,0.0,0.0,0.0,0.0,0.0,0.0,0.0,0.0,0.0,0.0,0.0,0.0,0.0,0.0,0.0,0.0,0.0,0.0,0.0,0.0,0.0,0.0,0.0,0.0,0.0,0.0,0.0,0.0,0.0,0.0,0.0,0.0,0.0,0.0,0.0,0.0,0.0,0.0,0.0,0.0,0.0,0.0,0.0,0.0,0.0,0.0,0.0,0.0,0.0,0.0,1.7013,1.9618,2.1889,2.3449,2.3728,2.3547,2.2873,2.1298,1.9415,0.0,0.0,0.0,0.0,0.0,0.0,0.0,0.0,0.0,0.0,0.0,0.0,0.0,0.0,0.0,0.0,0.0,0.0,0.0,0.0,0.0,0.0,0.0,0.0,0.0,0.0,0.0,0.0,0.0,0.0,0.0,0.0,0.0,0.0,0.0,0.0,0.0,0.0,0.0,0.0,0.0,0.0,0.0,0.0,0.0,0.0,0.0,0.0,0.0,0.0,0.0,0.0,0.0,0.0,0.0,0.0,0.0,0.0,0.0,0.0,0.0,0.0,0.0,0.0,0.0,0.0,0.0,0.0,0.0,0.0,0.0,0.0,0.0,0.0,0.0,0.0,0.0,0.0,0.0,0.0,0.0,0.0,0.0,0.0,0.0,0.0,0.0,0.0,0.0,0.0,0.0,0.0,0.0,0.0,0.0,0.0,0.0,0.0,0.0,0.0,0.0,0.0,0.0,1.741,2.0153,2.2622,2.4403,2.462,2.4359,2.3643,2.2685,2.0751,1.7525,0.0,0.0,0.0,0.0,0.0,0.0,0.0,0.0,0.0,0.0,0.0,0.0,0.0,0.0,0.0,0.0,0.0,0.0,0.0,0.0,0.0,0.0,0.0,0.0,0.0,0.0,0.0,0.0,0.0,0.0,0.0,0.0,0.0,0.0,0.0,0.0,0.0,0.0,0.0,0.0,0.0,0.0,0.0,0.0,0.0,0.0,0.0,0.0,0.0,0.0,0.0,0.0,0.0,0.0,0.0,0.0,0.0,0.0,0.0,0.0,0.0,0.0,0.0,0.0,0.0,0.0,0.0,0.0,0.0,0.0,0.0,0.0,0.0,0.0,0.0,0.0,0.0,0.0,0.0,0.0,0.0,0.0,0.0,0.0,0.0,0.0,0.0,0.0,0.0,0.0,0.0,0.0,0.0,0.0,0.0,0.0,0.0,0.0,0.0,0.0,0.0,0.0,1.7595,2.0545,2.3136,2.4823,2.4995,2.4701,2.3954,2.3293,2.148,1.8174,0.0,0.0,0.0,0.0,0.0,0.0,0.0,0.0,0.0,0.0,0.0,0.0,0.0,0.0,0.0,0.0,0.0,0.0,0.0,0.0,0.0,0.0,0.0,0.0,0.0,0.0,0.0,0.0,0.0,0.0,0.0,0.0,0.0,0.0,0.0,0.0,0.0,0.0,0.0,0.0,0.0,0.0,0.0,0.0,0.0,0.0,0.0,0.0,0.0,0.0,0.0,0.0,0.0,0.0,0.0,0.0,0.0,0.0,0.0,0.0,0.0,0.0,0.0,0.0,0.0,0.0,0.0,0.0,0.0,0.0,0.0,0.0,0.0,0.0,0.0,0.0,0.0,0.0,0.0,0.0,0.0,0.0,0.0,0.0,0.0,0.0,0.0,0.0,0.0,0.0,0.0,0.0,0.0,0.0,0.0,0.0,0.0,0.0,0.0,0.0,0.0,0.0,1.7764,2.0869,2.3473,2.4902,2.507,2.4769,2.4024,2.3333,2.1804,1.909,0.0,0.0,0.0,0.0,0.0,0.0,0.0,0.0,0.0,0.0,0.0,0.0,0.0,0.0,0.0,0.0,0.0,0.0,0.0,0.0,0.0,0.0,0.0,0.0,0.0,0.0,0.0,0.0,0.0,0.0,0.0,0.0,0.0,0.0,0.0,0.0,0.0,0.0,0.0,0.0,0.0,0.0,0.0,0.0,0.0,0.0,0.0,0.0,0.0,0.0,0.0,0.0,0.0,0.0,0.0,0.0,0.0,0.0,0.0,0.0,1.3832,1.305,0.0,0.0,0.0,0.0,0.0,0.0,0.0,0.0,0.0,0.0,0.0,0.0,0.0,0.0,0.0,0.0,0.0,0.0,0.0,0.0,0.0,0.0,0.0,0.0,0.0,0.0,0.0,0.0,0.0,0.0,0.0,0.0,0.0,0.0,0.0,0.0,0.0,0.0,0.0,0.0,1.8722,2.1414,2.3745,2.5303,2.5467,2.5161,2.4438,2.377,2.2366,1.9973,1.7859,0.0,0.0,0.0,0.0,0.0,0.0,0.0,0.0,0.0,0.0,0.0,0.0,0.0,0.0,0.0,0.0,0.0,0.0,0.0,0.0,0.0,0.0,0.0,0.0,0.0,0.0,0.0,0.0,0.0,0.0,0.0,0.0,0.0,0.0,0.0,0.0,0.0,0.0,0.0,0.0,0.0,0.0,0.0,0.0,0.0,0.0,0.0,0.0,0.0,0.0,0.0,0.0,0.0,0.0,0.0,0.0,0.0,0.0,0.0,1.6689,1.5734,0.0,0.0,0.0,0.0,0.0,0.0,0.0,0.0,0.0,0.0,0.0,0.0,0.0,0.0,0.0,0.0,0.0,0.0,0.0,0.0,0.0,0.0,0.0,0.0,0.0,0.0,0.0,0.0,0.0,0.0,0.0,0.0,0.0,0.0,0.0,0.0,0.0,0.0,0.0,0.0,1.9225,2.2008,2.4286,2.5468,2.5597,2.5435,2.5065,2.4378,2.3195,2.1327,1.95,0.0,0.0,0.0,0.0,0.0,0.0,0.0,0.0,0.0,0.0,0.0,0.0,0.0,0.0,0.0,0.0,0.0,0.0,0.0,0.0,0.0,0.0,0.0,0.0,0.0,0.0,0.0,0.0,0.0,0.0,0.0,0.0,0.0,0.0,0.0,0.0,0.0,0.0,0.0,0.0,0.0,0.0,0.0,0.0,0.0,0.0,0.0,0.0,0.0,0.0,0.0,0.0,0.0,1.8747,1.9417,2.0306,2.039,2.1205,2.2407,2.001,1.9108,1.9217,1.7907,0.0,0.0,0.0,0.0,0.0,0.0,0.0,0.0,0.0,0.0,0.0,0.0,0.0,0.0,0.0,0.0,0.0,0.0,0.0,0.0,0.0,0.0,2.042,2.0634,2.1577,2.1476,1.7978,0.0,0.0,0.0,0.0,0.0,0.0,0.0,0.0,0.0,0.0,0.0,1.9854,2.2677,2.4819,2.5538,2.5619,2.5619,2.5619,2.4947,2.4041,2.2889,2.1391,1.9722,0.0,0.0,0.0,0.0,0.0,0.0,0.0,0.0,0.0,0.0,0.0,0.0,0.0,0.0,0.0,0.0,0.0,0.0,0.0,0.0,0.0,0.0,0.0,0.0,0.0,0.0,0.0,0.0,0.0,0.0,0.0,0.0,1.0498,1.2111,0.0,0.0,0.0,0.0,0.0,0.0,0.0,0.0,0.0,0.0,0.0,0.0,0.0,1.8436,1.9859,2.114,2.2106,2.277,2.3804,2.4312,2.4341,2.4473,2.4858,2.5421,2.5039,0.0,2.1714,2.138,0.0,0.0,0.0,0.0,0.0,0.0,0.0,0.0,0.0,0.0,0.0,0.0,0.0,0.0,0.0,0.0,0.0,0.0,0.0,0.0,0.0,0.0,2.4734,2.3644,2.4007,2.4287,2.3153,2.0335,1.8029,1.8003,1.7014,1.6116,0.0,0.0,0.0,0.0,0.0,0.0,2.1518,2.3513,2.4999,2.5626,2.5682,2.5682,2.5682,2.5056,2.4629,2.4486,2.3145,2.1896,2.0853,1.9527,0.0,0.0,0.0,0.0,0.0,0.0,0.0,0.0,0.0,0.0,0.0,0.0,0.0,0.0,0.0,0.0,0.0,0.0,0.0,0.0,0.0,0.0,0.0,0.0,0.0,0.0,0.0,0.0,0.0,1.031,1.2109,1.3077,1.3332,1.3197,0.0,0.0,0.0,0.0,0.0,0.0,0.0,0.0,0.0,1.9815,2.0979,2.1935,2.2662,2.3643,2.4253,2.4569,2.5411,2.5949,2.6242,2.7106,2.7837,2.8431,2.8702,2.787,2.6196,2.473,2.325,2.1857,0.0,0.0,0.0,0.0,2.0885,2.1151,2.2607,2.3148,2.307,2.2296,0.0,0.0,0.0,0.0,0.0,0.0,0.0,2.2803,2.4089,2.5433,2.6482,2.6582,2.6845,2.6996,2.6698,2.4983,2.2948,2.1142,2.0397,1.9572,1.8142,1.7788,0.0,0.0,0.0,2.1478,2.2732,2.4374,2.5511,2.5777,2.5809,2.5809,2.5809,2.5531,2.5215,2.4816,2.4219,2.3538,2.2785,2.1295,1.982,0.0,0.0,0.0,0.0,0.0,0.0,0.0,0.0,0.0,0.0,0.0,0.0,0.0,0.0,0.0,0.0,0.0,0.0,0.0,0.0,0.0,0.0,0.0,0.0,0.0,0.0,0.0,0.0,1.2115,1.374,1.4208,1.5193,1.5462,0.0,0.0,0.0,0.0,0.0,0.0,1.9768,2.0491,2.1405,2.2666,2.4272,2.5144,2.52,2.6054,2.6568,2.6714,2.7158,2.7674,2.8283,2.9331,3.019,3.087,3.122,3.099,3.0217,2.7688,2.6102,2.5215,2.471,2.411,2.3644,2.4381,2.4735,2.5037,2.6595,2.7197,2.7116,2.6067,2.5175,2.4194,2.2451,0.0,0.0,0.0,0.0,2.5206,2.6916,2.7498,2.7831,2.855,2.8859,2.8962,2.8813,2.8317,2.7044,2.4158,2.3529,2.2787,2.0629,2.0385,0.0,2.0273,2.1876,2.3293,2.3907,2.5208,2.6034,2.5979,2.5979,2.5961,2.5934,2.5934,2.5713,2.5182,2.5165,2.4846,2.4164,2.299,2.1838,2.0751,0.0,0.0,0.0,0.0,0.0,0.0,0.0,0.0,0.0,0.0,0.0,0.0,0.0,0.0,0.0,0.0,0.0,0.0,0.0,0.0,0.0,0.0,0.0,0.0,0.0,0.0,0.0,0.0,0.0,1.629,1.7849,0.0,0.0,0.0,0.0,1.9651,1.9825,2.1144,2.403,2.3818,2.4151,2.5365,2.6849,2.7615,2.7627,2.9048,3.0022,3.0516,3.0548,3.0847,3.139,3.1454,3.1775,3.2305,3.2327,3.2547,3.2709,3.0032,2.7875,2.623,2.6182,2.5724,2.5218,2.6345,2.6749,2.6937,2.8177,2.8609,2.8602,2.8518,2.7708,2.6794,2.704,2.6126,0.0,0.0,2.7002,2.7041,2.8291,2.9128,2.9515,2.8932,2.9323,2.9681,2.9108,2.8858,2.826,2.6619,2.5748,2.4979,2.4096,0.0,2.3144,2.3838,2.4038,2.4404,2.5196,2.5983,2.6389,2.6211,2.6176,2.6124,2.6017,2.5983,2.6028,2.6127,2.6127,2.5805,2.506,2.4952,2.3877,2.1678,2.0169,0.0,0.0,0.0,0.0,0.0,0.0,0.0,0.0,0.0,0.0,0.0,0.0,0.0,0.0,0.0,0.0,0.0,0.0,0.0,0.0,0.0,0.0,0.0,0.0,0.0,0.0,0.0,0.0,1.9227,2.0718,0.0,2.0351,2.0858,2.1643,2.2633,2.3363,2.4639,2.6639,2.7012,2.7538,2.8407,2.8942,2.9391,2.9728,3.0245,3.0779,3.1308,3.1308,3.1622,3.22,3.2762,3.3337,3.3877,3.3964,3.41,3.4149,3.2719,3.1593,3.0821,3.085,3.0715,3.0535,3.0935,3.1076,3.1146,3.1581,3.1716,3.1648,3.1169,3.0407,2.9688,2.9828,2.9819,2.9875,3.044,3.0488,3.0472,3.0903,3.0865,3.0636,3.0405,3.055,3.0678,3.0463,3.0376,3.0041,2.9018,2.8154,2.7326,2.6527,2.6604,2.6512,2.579,2.6075,2.6318,2.6134,2.6343,2.6468,2.6389,2.6389,2.6372,2.632,2.632,2.6337,2.6389,2.6389,2.6246,2.5885,2.542,2.4539,2.3207,2.1699,1.9243,0.0,0.0,0.0,0.0,0.0,0.0,0.0,0.0,0.0,0.0,0.0,0.0,0.0,0.0,0.0,0.0,0.0,0.0,0.0,0.0,0.0,0.0,0.0,0.0,0.0,1.8783,2.0666,2.1355,2.3004,2.3905,2.3482,2.396,2.4761,2.5868,2.6533,2.7394,2.8619,2.909,2.9531,3.0,3.0255,3.0676,3.1265,3.1536,3.2058,3.2804,3.2804,3.3113,3.3695,3.4281,3.4767,3.5138,3.523,3.5262,3.5228,3.4749,3.445,3.4262,3.3742,3.3538,3.3538,3.3538,3.3538,3.3538,3.3538,3.3538,3.3453,3.2965,3.2489,3.2072,3.2072,3.2421,3.2812,3.2812,3.2812,3.2812,3.2812,3.2445,3.2004,3.1739,3.1671,3.1603,3.1349,3.1298,3.1162,3.0677,2.9852,2.899,2.8213,2.8509,2.8518,2.7497,2.7766,2.7901,2.7404,2.7337,2.7235,2.6932,2.6898,2.6797,2.651,2.6494,2.6494,2.6494,2.6251,2.6066,2.5963,2.523,2.4455,2.3676,2.1932,1.9764,1.7176,0.0,0.0,0.0,0.0,0.0,0.0,0.0,0.0,0.0,0.0,0.0,0.0,0.0,0.0,0.0,0.0,0.0,0.0,0.0,0.0,0.0,0.0,0.0,1.9087,2.1018,2.2572,2.268,2.4711,2.6046,2.5878,2.663,2.7789,2.937,2.9245,2.9398,3.0079,3.0125,3.014,3.014,3.0888,3.1623,3.2289,3.307,3.405,3.522,3.522,3.5504,3.6008,3.6019,3.6019,3.603,3.603,3.603,3.603,3.603,3.6159,3.6163,3.4518,3.3878,3.3878,3.3878,3.3878,3.3878,3.3878,3.3868,3.3868,3.3868,3.3868,3.3868,3.3868,3.3868,3.3868,3.3868,3.385,3.3833,3.3833,3.3826,3.3594,3.2822,3.2635,3.2447,3.1729,3.1549,3.1532,3.1532,3.0783,2.9931,2.9205,2.907,2.907,2.9053,2.9036,0.0,2.9019,2.9002,2.8669,2.7828,2.7718,2.7396,2.6612,2.6519,2.6494,2.6486,2.5748,2.5313,2.5338,2.4562,2.3813,2.3063,2.0904,1.9599,1.9184,0.0,0.0,0.0,0.0,0.0,0.0,0.0,0.0,0.0,0.0,0.0,0.0,0.0,0.0,0.0,0.0,0.0,0.0,0.0,0.0,0.0,2.148,2.2783,2.2403,2.4169,2.5905,2.6945,2.8076,2.8974,2.9553,2.9738,3.0188,3.1066,3.1438,3.1861,3.243,3.2929,3.319,3.319,3.3396,3.3807,3.4362,3.4584,3.507,3.5777,3.5777,3.592,3.6216,3.6318,3.6444,3.6602,3.6673,3.6731,3.6731,3.6731,3.6761,3.6709,3.5758,3.5477,3.5614,3.5614,3.5614,3.5593,3.5452,3.5399,3.5399,3.5399,3.5399,3.5399,3.5399,3.5399,3.5399,3.5399,3.5006,3.4613,3.4613,3.4202,3.3731,3.3526,3.3474,3.3406,3.3218,3.2713,3.23,3.23,3.1664,3.1047,3.0852,3.0818,3.064,3.0096,3.0027,2.9814,2.9294,2.9217,2.9096,2.8752,2.8242,2.7792,2.7475,2.6952,2.6496,2.6156,2.5925,2.5864,2.6021,2.563,2.5016,2.4184,2.2797,2.1743,0.0,0.0,0.0,0.0,0.0,0.0,0.0,0.0,0.0,0.0,0.0,0.0,0.0,0.0,0.0,0.0,0.0,0.0,0.0,0.0,0.0,0.0,2.4861,2.6376,2.6756,2.7347,2.8248,2.9643,3.0153,3.0807,3.1885,3.1801,3.2073,3.2984,3.3242,3.3494,3.3796,3.4601,3.5028,3.5028,3.5442,3.5916,3.6486,3.6497,3.679,3.7378,3.7378,3.7442,3.7558,3.7638,3.7742,3.7829,3.7574,3.7647,3.7913,3.74,3.739,3.7675,0.0,0.0,0.0,0.0,3.6808,3.6831,3.6648,3.6594,3.6574,3.6457,3.6423,3.6402,3.6325,3.635,3.6402,3.6325,3.5983,3.567,3.5762,3.5411,3.4946,3.4701,3.4572,3.4466,3.4324,3.3861,3.3409,3.3212,3.284,0.0,3.2108,3.1746,3.1354,3.0928,3.086,3.0706,3.0279,3.0338,3.029,2.9893,2.96,2.9131,2.8417,2.7942,0.0,0.0,0.0,2.6218,2.5936,2.5776,0.0,0.0,0.0,0.0,0.0,0.0,0.0,0.0,2.2323,2.2321,0.0,0.0,0.0,0.0,0.0,0.0,0.0,0.0,0.0,0.0,0.0,0.0,0.0,0.0,0.0,0.0,2.8534,3.0207,3.1369,3.0542,3.024,3.1352,3.1528,3.2064,3.334,3.3274,3.3712,3.5026,3.4894,3.482,3.4951,3.5795,0.0,0.0,0.0,3.787,3.8411,3.8405,3.8699,3.9301,3.9301,3.9311,3.9332,3.9373,3.9404,3.939,3.8697,3.8823,3.9383,3.824,3.8285,3.8923,3.7627,3.7126,3.7155,3.7348,3.7533,3.7641,3.7487,0.0,0.0,3.7166,3.7079,3.7058,3.6869,3.694,3.7031,3.6869,3.6809,3.6859,3.7021,3.695,3.6676,3.6133,3.588,3.5666,3.5376,3.5101,3.4792,3.4374,3.4236,3.3914,3.3102,3.2232,3.166,3.166,3.166,3.166,3.166,3.1904,3.1838,3.1175,0.0,0.0,2.9487,2.9274,2.8866,2.8007,2.7292,2.6501,2.5637,2.5716,2.5749,2.5655,2.576,2.6282,2.723,2.8054,2.8528,2.8619,2.5377,2.5038,0.0,0.0,0.0,0.0,0.0,0.0,0.0,0.0,0.0,0.0,0.0,0.0,0.0,0.0,0.0,2.8929,3.0658,3.23,3.388,3.3874,3.3577,3.3172,3.357,3.4169,3.4981,3.52,3.5789,3.6975,3.7016,3.7372,3.8304,3.8532,3.8651,3.8651,3.8833,3.8984,3.9108,3.9108,3.9179,3.9301,3.9301,0.0,3.955,3.9828,4.0031,4.0199,4.0239,4.0373,4.0481,4.0234,4.0317,4.0406,3.8592,3.7897,3.7879,3.7693,3.779,3.7973,3.7728,3.764,3.7631,3.7578,3.756,3.7551,3.7515,3.7524,0.0,3.7524,3.7515,3.7524,3.7551,3.7533,3.747,3.7354,3.7301,3.7256,3.7192,3.669,3.6214,3.612,3.5614,3.4939,3.4079,3.3155,3.2543,3.2543,3.2543,3.2543,3.2543,3.2601,3.2572,3.2374,3.1886,3.1402,3.0987,3.0409,2.9554,2.838,2.7766,2.7242,2.679,2.765,2.8024,2.7805,2.8656,2.9175,2.9312,3.0188,3.0562,3.048,2.9665,2.9212,0.0,0.0,0.0,0.0,0.0,0.0,0.0,0.0,0.0,0.0,0.0,2.4415,2.6942,0.0,3.0274,3.2149,3.3267,3.4259,3.5306,3.5718,3.5607,3.483,3.5018,3.5558,3.6456,3.6661,3.7232,3.8381,3.8454,3.8702,3.9273,3.9781,4.012,4.025,4.0732,4.1006,4.1006,4.1236,4.1276,4.1139,4.1355,4.1505,4.1615,4.1706,4.184,4.197,4.1579,4.1701,4.2181,4.1907,4.1681,4.1389,4.043,3.995,3.973,3.9155,3.9093,3.9194,3.8496,3.8253,3.8237,3.8097,3.8055,3.8039,3.7919,3.798,3.8039,3.7919,3.7893,3.7911,3.8012,3.7988,3.7937,3.803,3.7962,3.7945,3.812,3.7777,3.7386,3.7189,3.6853,3.6331,3.5509,3.4962,3.4245,3.3091,3.2903,3.2903,3.2903,3.3042,3.3143,3.3105,3.2915,3.2606,3.2079,3.1309,3.0579,2.9949,2.9655,2.9412,2.9214,2.9739,2.9976,2.9804,3.0327,3.0572,3.0558,3.1399,3.1762,3.1724,3.2461,3.2328,0.0,0.0,0.0,0.0,0.0,0.0,0.0,2.1459,2.2562,2.5697,2.7097,2.8545,3.1169,3.2153,3.317,3.4928,3.5578,3.5971,3.6347,3.6824,3.6903,3.6316,3.62,3.6585,3.7676,3.7809,3.8345,3.9563,3.9716,3.981,3.9951,4.0786,4.1376,4.1586,4.2408,4.2818,4.2798,4.3212,4.3309,4.3078,4.3436,4.3601,4.3601,4.3539,4.358,4.3629,4.2826,4.2984,4.3733,4.3349,4.2915,4.2521,4.2547,4.2404,4.203,4.0952,4.0656,4.0656,3.9747,3.9412,3.9383,3.9177,3.9108,3.9066,3.8906,3.898,3.903,3.8716,3.8621,3.8616,3.8621,3.8496,3.8418,3.8546,3.8442,3.8402,3.8646,3.8563,3.8354,3.8035,3.7974,3.7715,3.6915,3.6774,3.6019,3.3782,3.3447,3.3385,3.3215,3.3432,3.3609,3.3609,3.383,3.3695,3.2973,3.2132,3.1629,3.1629,3.1482,3.1384,3.1327,3.1327,3.1375,3.1476,3.1516,3.1614,3.1766,3.2638,3.3043,3.3053,3.4523,3.4665,2.1111,2.1651,2.2211,2.2154,2.2191,2.3134,0.0,2.6405,2.6336,2.9377,3.0793,3.1784,3.2739,3.4239,3.5497,3.591,3.661,3.7181,3.7402,3.7494,3.7513,3.7504,3.729,3.7464,3.8325,3.857,3.9291,4.079,4.1173,4.1632,4.2289,4.271,4.295,4.2987,4.3194,4.3267,4.3142,4.342,4.3495,4.3362,4.352,4.3601,4.3609,4.3836,4.3929,4.396,4.4139,4.4289,4.4407,4.4453,4.4458,4.4416,4.4518,4.4556,4.4298,4.2464,4.1816,4.1804,4.1683,4.1633,4.1645,4.1606,4.1599,4.1592,4.156,4.1586,4.1449,4.0706,4.05,4.0313,3.9564,3.9364,3.9325,3.9213,3.918,3.9139,3.9055,3.902,3.9001,3.8962,3.895,3.869,3.7873,3.7743,3.7133,3.5318,3.5051,3.4768,3.3981,3.3915,3.3935,3.3935,3.3927,3.3838,3.3698,3.2926,3.2479,3.2479,3.1794,3.1409,3.1384,3.1384,3.172,3.2423,3.2687,3.3111,3.3778,3.4874,3.5354,3.5266,3.6222,3.5935,2.3251,2.3746,2.4296,2.5588,2.6028,2.6799,2.9287,2.9786,3.0469,3.313,3.445,3.5343,3.6098,3.6965,3.7577,3.7661,3.7955,3.8376,3.8982,3.8825,3.8669,3.8746,3.8412,3.8503,3.9353,3.9658,4.0417,4.1923,4.2413,4.2786,4.3087,4.3309,4.3507,4.3656,4.3711,4.3719,4.3675,4.4042,4.4132,4.3927,4.4227,4.4362,4.4362,4.4388,4.4358,4.4305,4.4595,4.4726,4.4745,4.4783,4.493,4.5102,4.5084,4.5129,4.5006,4.3441,4.2869,4.278,4.2207,4.1993,4.1993,4.1993,4.1993,4.1993,4.1993,4.1993,4.1937,4.1586,4.1154,4.0729,4.0347,3.989,3.9496,3.9439,3.9427,3.9421,3.9433,3.9395,3.937,3.9541,3.9445,3.9283,3.9081,3.8999,3.8515,3.7249,3.6502,3.5984,3.5625,3.5162,3.468,3.4173,3.4061,3.4004,3.3979,3.362,3.3468,3.3586,3.3265,3.3121,3.3189,3.3195,3.3357,3.3705,3.4305,3.4775,3.5083,3.6038,3.6477,3.6445,3.7312,3.7399,2.4636,2.5441,2.639,2.8572,2.9345,3.0045,3.1838,3.2791,3.3863,3.5864,3.6992,3.7769,3.8189,3.8375,3.854,3.8763,3.8827,3.9072,3.9813,3.9607,3.9358,3.9341,3.9008,3.9126,4.0012,4.0452,4.123,4.2523,4.3207,4.3574,4.3574,4.3743,4.3951,4.4125,4.4169,4.4188,4.4143,4.4561,4.4635,4.4407,4.4802,4.4973,4.4973,4.4912,4.4839,4.4758,4.4954,4.504,4.5036,4.5034,4.5186,4.5395,4.5295,4.5301,4.5294,4.4363,4.4021,4.3916,4.3083,4.2844,4.2863,4.2825,4.2844,4.2863,4.2825,4.2869,4.2874,4.2605,4.2102,4.1616,4.1424,4.0884,4.0315,4.0087,4.0011,3.9978,3.9797,3.9681,3.967,3.9862,3.9732,3.9675,3.9872,3.9816,3.952,3.8838,3.8085,3.7362,3.6774,3.6191,3.5603,3.5013,3.4692,3.4549,3.4597,3.4344,3.4262,3.4396,3.4401,3.4557,3.4875,3.4865,3.4967,3.5203,3.5897,3.6244,3.6244,3.7112,3.7546,3.7565,3.8455,3.8841,2.5014,2.6762,2.876,3.0724,3.1593,3.2641,3.5099,3.5718,3.6075,3.7046,3.7908,3.8294,3.7727,3.7621,3.7889,3.8673,3.8856,3.9013,3.9358,3.9349,3.9208,3.8947,3.8796,3.9065,4.0008,4.0746,4.152,4.2344,4.3393,4.3967,4.3967,4.4291,4.4487,4.4475,4.4619,4.4619,4.4494,4.4751,4.4821,4.468,4.502,4.5186,4.5192,4.5316,4.5386,4.5362,4.5386,4.5371,4.5371,4.5371,4.5395,4.5405,4.54,4.54,4.5405,4.5352,4.5347,4.5284,4.4938,4.4933,4.5071,4.4887,4.4933,4.5071,4.4868,4.5044,4.5083,4.4123,4.3827,4.366,4.3005,4.2718,4.238,4.1542,4.1342,4.1084,4.0099,3.9897,3.9897,3.9907,3.9883,3.9897,3.9907,3.9902,3.9878,3.9859,3.9816,3.9053,3.6969,3.6674,3.6702,3.6804,3.6124,3.5706,3.5821,3.5136,3.4674,3.4679,3.4679,3.5034,3.5828,3.5803,3.6152,3.7009,3.7239,3.7354,3.7354,3.8413,3.8936,3.8955,3.9829,4.0249,2.758,2.8919,3.0474,3.3362,3.4196,3.4823,3.6852,3.7448,3.7752,3.8411,3.8358,3.8044,3.7667,3.764,3.7829,3.8317,3.9282,4.0309,4.1317,4.1554,4.1444,4.0947,4.1052,4.108,4.0841,4.0763,4.1281,4.257,4.3296,4.3897,4.443,4.4783,4.4955,4.4955,4.5098,4.5145,4.5107,4.5183,4.5204,4.5167,4.5281,4.5326,4.5326,4.5381,4.5405,4.5405,4.5405,4.5442,4.5524,4.5448,4.5502,4.5657,4.5567,4.5588,4.5653,4.5567,4.5592,4.5629,4.5337,4.5281,4.5316,4.526,4.5281,4.5316,4.526,4.5321,4.5338,4.4997,4.4489,4.3987,4.3756,4.3273,4.2766,4.2459,4.2406,4.217,4.1336,4.1088,4.0926,4.0577,4.0319,4.0232,4.0466,4.0383,4.0264,4.0183,4.0005,3.9447,3.8191,3.7984,3.7764,3.7286,3.6989,3.684,3.6883,3.6655,3.6524,3.662,3.663,3.6805,3.7204,3.721,3.7335,3.7625,3.8219,3.8523,3.8523,3.9429,3.9864,3.9859,4.0167,4.0306,2.9812,3.1142,3.2532,3.5403,3.6248,3.6686,3.7934,3.852,3.8726,3.8507,3.8048,3.7357,3.6325,3.5945,3.6158,3.7219,3.8503,4.0048,4.1926,4.2545,4.2624,4.2146,4.2227,4.2133,4.1662,4.1355,4.1723,4.302,4.3673,4.4266,4.4852,4.5091,4.5224,4.5269,4.5351,4.5405,4.5405,4.5405,4.5414,4.5465,4.5465,4.5493,4.5541,4.5541,4.5541,4.5541,4.5541,4.5592,4.5665,4.558,4.5645,4.5796,4.5704,4.5719,4.5796,4.57,4.5723,4.5752,4.5488,4.5424,4.5456,4.5424,4.5424,4.5456,4.54,4.5461,4.5532,4.5479,4.5067,4.4657,4.469,4.4288,4.3806,4.3564,4.3514,4.3284,4.2506,4.2271,4.2017,4.1368,4.1051,4.0881,4.081,4.0683,4.0583,4.0492,4.0309,3.9924,3.9215,3.9073,3.8869,3.8446,3.8128,3.7966,3.8059,3.7797,3.7661,3.7742,3.7747,3.7937,3.8377,3.8385,3.8507,3.8818,3.9312,3.9568,3.9568,4.0074,4.0348,4.0348,4.0318,4.0467,3.1751,3.3426,3.4917,3.6814,3.7719,3.8185,3.839,3.8917,3.8903,3.7325,3.6903,3.6089,3.3684,3.2839,3.3202,3.5402,3.6808,3.856,4.1268,4.2378,4.2793,4.25,4.2388,4.2389,4.2469,4.2524,4.289,4.3731,4.4439,4.4953,4.5203,4.5219,4.5279,4.541,4.5424,4.5429,4.5429,4.5429,4.5479,4.5613,4.5613,4.5677,4.5803,4.5803,4.5807,4.581,4.581,4.581,4.581,4.5814,4.581,4.5807,4.581,4.5807,4.5803,4.5803,4.5803,4.5756,4.5506,4.5502,4.5592,4.5456,4.5506,4.5588,4.5452,4.56,4.5763,4.5645,4.5613,4.5641,4.5778,4.5704,4.5448,4.4805,4.4655,4.4423,4.3553,4.3359,4.3108,4.2241,4.2067,4.1816,4.1064,4.089,4.0852,4.0852,4.0762,4.0531,4.0003,3.9877,3.9943,4.0186,3.9488,3.9076,3.9346,3.8607,3.8123,3.8123,3.8123,3.8507,3.9319,3.9296,3.9657,4.0486,4.0441,4.0415,4.0415,4.0411,4.0411,4.0392,4.0348,4.0766,3.4821,3.6062,3.7,3.829,3.863,3.8664,3.8888,3.8147,3.7068,3.5868,3.4185,3.2297,3.024,3.1867,3.3588,3.379,3.7691,4.1028,4.2052,4.3358,4.3999,4.3444,4.399,4.4184,4.3583,4.4201,4.4731,4.4961,4.4459,4.4502,4.5317,4.5433,4.551,4.555,4.5645,4.5696,4.5696,4.5696,4.5711,4.5741,4.5741,4.5775,4.5803,4.5803,4.5834,4.5864,4.5864,4.5864,4.589,4.5935,4.588,4.5791,4.5845,4.5832,4.5803,4.5803,4.5803,4.5796,4.5719,4.5715,4.5737,4.5708,4.5715,4.5737,4.5704,4.5757,4.58,4.5768,4.5741,4.5768,4.5796,4.5763,4.571,4.5526,4.5494,4.5278,4.4442,4.4268,4.4017,4.3147,4.2976,4.2899,4.2705,4.2125,4.168,4.168,4.1129,4.0644,4.0508,4.0434,4.0425,4.0488,4.0253,4.0122,4.0185,3.9992,3.9858,3.9858,3.9858,3.9954,4.0189,4.0177,4.0265,4.0496,4.0484,4.048,4.048,4.0463,4.0466,4.0462,4.0415,4.0834,3.6715,3.7685,3.8354,3.8962,3.901,3.8675,3.7743,3.6823,3.5491,3.3099,3.1227,2.9464,2.7658,2.9313,3.1314,3.2432,3.6649,4.0409,4.2191,4.3791,4.4699,4.4475,4.4946,4.5098,4.4606,4.5069,4.5414,4.5479,4.4906,4.4829,4.5455,4.5558,4.5629,4.5685,4.5752,4.5803,4.5803,4.5803,4.5803,4.5803,4.5803,4.5803,4.5803,4.5803,4.5827,4.5867,4.5926,4.593,4.5958,4.602,4.5996,4.5944,4.5976,4.5956,4.593,4.5904,4.5886,4.5889,4.5815,4.5803,4.5803,4.5803,4.5803,4.5803,4.5803,4.5803,4.5803,4.5803,4.5803,4.5803,4.5803,4.5803,4.5803,4.5803,4.5803,4.5687,4.522,4.5123,4.4871,4.4036,4.3553,4.3301,4.3301,4.2899,4.257,4.257,4.1838,4.1264,4.1264,4.0875,4.0594,4.0594,4.058,4.0542,4.0539,4.0539,4.0531,4.0496,4.0496,4.0527,4.0596,4.0596,4.0609,4.0633,4.0633,4.0633,4.0633,4.063,4.0835,4.119,4.1131,4.1762,3.7845,3.8569,3.9101,3.9101,3.9027,3.8339,3.6024,3.525,3.3875,2.9885,2.8305,2.713,2.5513,2.6291,2.8218,3.1389,3.4899,3.8472,4.2039,4.3843,4.4936,4.5357,4.5424,4.5434,4.5434,4.5433,4.5497,4.5621,4.5519,4.5502,4.5621,4.5629,4.5677,4.5803,4.5803,4.5803,4.5803,4.5803,4.5803,4.5807,4.5824,4.5834,4.5834,4.5835,4.5848,4.5864,4.5972,4.6032,4.602,4.6086,4.6109,4.61,4.6105,4.6114,4.6094,4.6024,4.6018,4.6,4.5872,4.5841,4.5838,4.5817,4.5803,4.5803,4.5803,4.5803,4.5803,4.5803,4.5803,4.581,4.5827,4.5834,4.5838,4.5838,4.5841,4.5841,4.5841,4.5841,4.5628,4.4928,4.4192,4.3669,4.3669,4.3575,4.3498,4.3498,4.2762,4.22,4.22,4.1264,4.0624,4.0626,4.0602,4.0596,4.0617,4.0595,4.0565,4.0496,4.0496,4.0568,4.0691,4.0697,4.0737,4.0808,4.0808,4.0869,4.0966,4.0966,4.1417,4.2279,4.221,4.3056,3.8674,3.899,3.9101,3.9101,3.8606,3.7659,3.59,3.3906,3.1478,2.804,2.6168,2.4625,2.2951,2.5082,2.8044,3.0886,3.4784,3.8704,4.2331,4.3647,4.4523,4.5304,4.5497,4.5567,4.5567,4.5665,4.5734,4.5756,4.5737,4.5734,4.5756,4.5775,4.5786,4.5803,4.5803,4.5803,4.5803,4.5803,4.5803,4.5807,4.5901,4.5969,4.5975,4.6024,4.6076,4.6128,4.6159,4.6164,4.6167,4.6181,4.6149,4.6103,4.615,4.6147,4.6103,4.6086,4.6082,4.6082,4.6064,4.6058,4.6013,4.5841,4.5803,4.5803,4.5803,4.5803,4.5803,4.5803,4.5803,4.5834,4.5944,4.5969,4.5974,4.602,4.6058,4.6058,4.6058,4.6058,4.6019,4.5864,4.5727,4.5611,4.5611,4.5011,4.4548,4.4548,4.3808,4.3243,4.3243,4.1732,4.0694,4.076,4.0668,4.0626,4.0678,4.0577,4.0504,4.0496,4.0496,4.0568,4.0691,4.0697,4.0737,4.0808,4.0808,4.1143,4.1869,4.1869,4.2318,4.3175,4.3166,4.3672,3.8767,3.9101,3.9101,3.9101,3.8179,3.6637,3.4135,3.2017,2.9378,2.5207,2.4074,2.3456,2.2223,2.4458,2.7324,2.9947,3.3268,3.6927,4.0923,4.23,4.3573,4.5389,4.5665,4.57,4.57,4.5752,4.5803,4.5803,4.5803,4.5803,4.5803,4.5803,4.5822,4.5892,4.5895,4.5925,4.5968,4.5968,4.5968,4.5968,4.6019,4.6039,4.6042,4.6084,4.613,4.6146,4.6177,4.6207,4.6191,4.6237,4.6238,4.6206,4.6233,4.6234,4.6209,4.6162,4.6155,4.6155,4.6117,4.61,4.6087,4.5981,4.5968,4.5968,4.5968,4.5968,4.5968,4.5968,4.5968,4.5981,4.6048,4.6039,4.6052,4.6091,4.61,4.61,4.61,4.61,4.61,4.61,4.61,4.61,4.61,4.5751,4.548,4.548,4.4723,4.4179,4.4179,4.2996,4.1992,4.1563,4.1068,4.0773,4.0808,4.074,4.0686,4.0667,4.0664,4.0721,4.0851,4.0854,4.1094,4.162,4.1622,4.2052,4.2934,4.2934,4.3382,4.4238,4.4228,4.4687,3.8284,3.8841,3.9101,3.9101,3.7622,3.5355,3.2252,3.014,2.7501,2.2724,2.2516,2.2943,2.2145,2.3854,2.6326,2.9226,3.169,3.478,3.9158,4.0962,4.2698,4.5,4.5571,4.5803,4.5803,4.5803,4.5817,4.5848,4.5861,4.5851,4.5807,4.5834,4.5883,4.5997,4.6003,4.6052,4.61,4.61,4.61,4.61,4.6115,4.6123,4.6123,4.6137,4.6142,4.6145,4.6202,4.6213,4.6235,4.6288,4.6308,4.6308,4.6308,4.6308,4.6289,4.6242,4.6216,4.6218,4.6161,4.6142,4.6142,4.6142,4.6125,4.61,4.61,4.61,4.61,4.61,4.61,4.6103,4.6118,4.6123,4.6126,4.6139,4.6142,4.6142,4.6142,4.6142,4.6142,4.6142,4.6142,4.6142,4.6142,4.6142,4.6142,4.6142,4.5561,4.5114,4.5114,4.4354,4.3553,4.287,4.1995,4.1457,4.1471,4.1459,4.1406,4.1359,4.1357,4.1419,4.1555,4.1557,4.1919,4.2668,4.2689,4.3118,4.3978,4.3978,4.4426,4.5284,4.5276,4.5642,3.7083,3.7993,3.9101,3.9101,3.6742,3.3776,3.1273,2.8839,2.5959,2.1762,2.2126,2.2943,2.2145,2.2948,2.5088,2.9281,3.0988,3.334,3.7752,4.0465,4.2363,4.3417,4.4875,4.5803,4.5803,4.5803,4.5861,4.5978,4.6033,4.5986,4.5821,4.5923,4.5989,4.5999,4.6069,4.6093,4.61,4.61,4.61,4.61,4.6158,4.6198,4.6199,4.6244,4.6288,4.6288,4.6289,4.6289,4.6289,4.6308,4.6308,4.6308,4.6308,4.6308,4.6308,4.6289,4.6289,4.6289,4.6288,4.6288,4.6288,4.6288,4.6202,4.61,4.61,4.61,4.61,4.61,4.61,4.6115,4.6187,4.6198,4.6206,4.6266,4.6288,4.6288,4.6288,4.6288,4.6288,4.6288,4.6288,4.6288,4.6288,4.6288,4.6288,4.6288,4.621,4.6151,4.6151,4.5409,4.4823,4.4745,4.3859,4.3298,4.3353,4.3249,4.3164,4.3158,4.3156,4.3216,4.3351,4.3354,4.3423,4.3587,4.3587,4.4016,4.4874,4.4874,4.5324,4.6183,4.6183,4.6216,3.6971,3.8235,3.8971,3.8488,3.5912,3.2847,3.0418,2.7952,2.516,2.154,2.2089,2.2823,2.1611,2.2113,2.3635,2.6474,2.7383,2.9255,3.3564,3.6012,3.8471,4.1448,4.3266,4.4715,4.5804,4.5929,4.5961,4.6044,4.6082,4.6072,4.5979,4.6031,4.6074,4.612,4.6145,4.6171,4.6212,4.6212,4.6212,4.6213,4.6242,4.6265,4.6265,4.6289,4.6308,4.6308,4.6308,4.6308,4.6308,4.6308,4.6308,4.6308,4.6308,4.6308,4.6308,4.6308,4.6308,4.6308,4.6308,4.6308,4.6308,4.6308,4.6266,4.6212,4.6212,4.6212,4.6212,4.6212,4.6212,4.6235,4.6244,4.6265,4.6266,4.6289,4.6308,4.6308,4.6308,4.6308,4.6308,4.6308,4.6308,4.6308,4.6308,4.6308,4.6308,4.6308,4.6308,4.6308,4.6308,4.5996,4.5781,4.5781,4.4481,4.363,4.3657,4.3615,4.3572,4.3586,4.3577,4.3602,4.3659,4.366,4.3923,4.4464,4.4484,4.4914,4.5773,4.5773,4.5968,4.6301,4.6301,4.6298,3.5466,3.7046,3.7845,3.7009,3.4352,3.1366,2.916,2.6739,2.4092,2.1075,2.1736,2.2471,2.1221,2.1698,2.2845,2.4669,2.5335,2.6935,3.064,3.2995,3.5566,3.8867,4.1213,4.3169,4.469,4.5572,4.6074,4.6126,4.6146,4.6156,4.6156,4.6156,4.6166,4.6202,4.6212,4.6244,4.6308,4.6308,4.6308,4.6308,4.6308,4.6308,4.6308,4.6308,4.6308,4.6308,4.6308,4.6308,4.6308,4.6308,4.6308,4.6308,4.6308,4.6308,4.6308,4.6308,4.6308,4.6308,4.6308,4.6308,4.6308,4.6308,4.6308,4.6308,4.6308,4.6308,4.6308,4.6308,4.6308,4.6308,4.6308,4.6308,4.6308,4.6308,4.6308,4.6308,4.6308,4.6308,4.6308,4.6308,4.6308,4.6308,4.6308,4.6308,4.6308,4.6308,4.6308,4.6308,4.6308,4.6308,4.6308,4.6307,4.5193,4.4469,4.4468,4.4462,4.4477,4.4475,4.4469,4.4466,4.4466,4.4466,4.4758,4.5362,4.5382,4.5695,4.6301,4.6301,4.6301,4.6301,4.6301,4.6301,3.1844,3.367,3.5336,3.4463,3.1831,2.8993,2.732,2.5016,2.2534,2.0106,2.0886,2.1801,2.1131,2.1771,2.2993,2.4802,2.5987,2.7562,3.0067,3.2703,3.4709,3.5548,3.8725,4.118,4.2056,4.4607,4.6201,4.6202,4.6265,4.6308,4.6308,4.6308,4.6267,4.6204,4.6266,4.6308,4.6308,4.6308,4.6308,4.6308,4.6308,4.6308,4.6308,4.6308,4.6308,4.6308,4.6308,4.6308,4.6308,4.6308,4.6308,4.6308,4.6308,4.6308,4.6308,4.6308,4.6308,4.6308,4.6308,4.6308,4.6308,4.6308,4.6308,4.6308,4.6308,4.6308,4.6308,4.6308,4.6308,4.6308,4.6308,4.6308,4.6308,4.6308,4.6308,4.6308,4.6308,4.6308,4.6308,4.6308,4.6308,4.6308,4.6308,4.6308,4.6308,4.6308,4.6308,4.6308,4.6308,4.6308,4.6307,4.6307,4.6285,4.6261,4.6274,4.6274,4.627,4.6262,4.6262,4.6262,4.6262,4.6262,4.6281,4.6281,4.6281,4.6281,4.6301,4.6301,4.6301,4.6301,4.6301,4.6301,2.9842,3.1533,3.2773,3.1961,3.0103,2.7947,2.5759,2.4185,2.2525,2.0157,2.0551,2.1124,2.0497,2.0624,2.1993,2.5556,2.6401,2.7522,3.0114,3.3674,3.6179,3.6512,4.1246,4.4601,4.4873,4.5724,4.6267,4.6267,4.6289,4.6308,4.6308,4.6308,4.6289,4.6267,4.6289,4.6308,4.6308,4.6308,4.6308,4.6308,4.6308,4.6308,4.6308,4.6308,4.6308,4.6308,4.6308,4.6308,4.6308,4.6308,4.6308,4.6308,4.6308,4.6308,4.6308,4.6308,4.6308,4.6308,4.6308,4.6308,4.6308,4.6308,4.6308,4.6308,4.6308,4.6308,4.6308,4.6308,4.6308,4.6308,4.6308,4.6308,4.6308,4.6308,4.6308,4.6308,4.6308,4.6308,4.6308,4.6308,4.6308,4.6308,4.6308,4.6308,4.6308,4.6308,4.6308,4.6308,4.6308,4.6308,4.6308,4.6304,4.6302,4.6301,4.63,4.6296,4.6292,4.6309,4.6304,4.6301,4.6301,4.6301,4.6301,4.6301,4.6301,4.6301,4.6301,4.6301,4.6301,4.6301,4.6301,4.6301,2.693,2.8956,3.0214,2.9415,2.8238,2.6707,2.4504,2.342,2.2282,2.0114,2.0154,2.0478,2.0081,2.0067,2.1204,2.4606,2.5192,2.6331,2.9552,3.2577,3.5333,3.7696,4.2004,4.5016,4.5658,4.607,4.6308,4.6308,4.6308,4.6308,4.6308,4.6308,4.6308,4.6308,4.6308,4.6308,4.6308,4.6308,4.6308,4.6308,4.6308,4.6308,4.6308,4.6308,4.6308,4.6308,4.6308,4.6308,0.0,4.6308,4.6308,4.6308,4.6308,4.6308,4.6308,4.6308,4.6308,4.6308,4.6308,4.6308,4.6308,4.6308,4.6308,4.6308,4.6308,4.6308,4.6308,4.6308,4.6308,4.6308,4.6308,4.6308,4.6308,4.6308,4.6308,4.6308,4.6308,4.6308,4.6308,4.6308,4.6308,4.6308,4.6308,4.6308,4.6308,4.6308,4.6308,4.6308,4.6308,4.6308,4.6308,4.6305,4.6301,4.6299,4.6299,4.6293,4.6309,4.6309,4.6303,4.6301,4.6301,4.6301,4.6301,4.6301,4.6301,4.6301,4.6301,4.6301,4.6301,4.6301,4.6301,4.6301,0.0,2.574,2.7315,2.6572,2.5968,2.5105,2.3407,2.2703,0.0,2.0089,1.9869,2.002,2.0091,2.0154,2.0866,2.2921,2.3356,2.4842,2.8894,3.0499,3.3447,3.9371,4.1605,4.3287,4.4845,4.5798,4.6308,4.6308,4.6308,4.6308,4.6308,4.6308,4.6308,4.6308,4.6308,4.6308,4.6308,4.6308,4.6308,4.6308,4.6308,4.6308,4.6308,4.6308,4.6308,4.6308,4.6308,4.6308,4.6308,4.6308,4.6308,4.6308,4.6308,4.6308,4.6308,4.6308,4.6308,4.6308,4.6308,4.6308,4.6308,4.6308,4.6308,4.6308,4.6308,4.6308,4.6308,4.6308,4.6308,4.6308,4.6308,4.6308,4.6308,4.6308,4.6308,4.6308,4.6308,4.6308,4.6308,4.6308,4.6308,4.6308,4.6308,4.6308,4.6308,4.6308,4.6308,4.6308,4.6308,4.6308,4.6307,4.6307,4.6301,4.6294,4.6293,4.6306,4.6301,4.6301,4.6301,4.6301,4.6301,4.6301,4.6301,4.6301,4.6301,4.6301,4.6301,4.6301,4.6301,4.6301,4.6359,4.6398,1.9906,0.0,2.1544,2.1358,2.1663,2.1887,0.0,2.1814,2.1958,2.0957,2.0912,2.1266,2.1994,2.1607,2.2602,2.6973,2.8228,2.9458,3.1786,3.5268,3.9327,4.4086,4.5086,4.5546,4.5936,4.6172,4.6308,4.6308,4.6308,4.6308,4.6308,4.6308,4.6308,4.6308,4.6308,4.6308,4.6308,4.6308,4.6308,4.6308,4.6308,4.6308,4.6308,4.6308,4.6308,4.6308,4.6308,4.6308,4.6308,4.6308,4.6308,4.6308,4.6308,4.6308,4.6308,4.6308,4.6308,4.6308,4.6308,4.6308,4.6308,4.6308,4.6308,4.6308,4.6308,4.6308,4.6308,4.6308,4.6308,4.6308,4.6308,4.6308,4.6308,4.6308,4.6308,4.6308,4.6308,4.6308,4.6308,4.6308,4.6308,4.6308,4.6308,4.6308,4.6308,4.6308,4.6308,4.6308,4.6308,4.6308,4.6308,4.6307,4.6306,4.6302,4.6294,4.6306,4.6301,4.6301,4.6301,4.6301,4.6301,4.6301,4.6301,4.6301,4.6301,4.6301,4.6301,4.6301,4.6301,4.632,4.6983,4.7294,1.8098,1.9453,2.1183,2.0861,2.1742,2.2582,2.221,2.2622,2.2702,2.1402,2.1304,2.1597,2.2072,2.212,2.3396,2.7407,2.8758,3.0575,3.4265,3.8305,4.2058,4.5197,4.6007,4.6308,4.6308,4.6308,4.6308,4.6308,4.6308,4.6308,4.6308,4.6308,4.6308,4.6308,4.6308,4.6308,4.6308,4.6308,4.6308,4.6308,4.6308,4.6308,4.6308,4.6308,4.6308,4.6308,4.6308,4.6308,4.6308,4.6308,4.6308,4.6308,4.6308,4.6308,4.6308,4.6308,4.6308,4.6308,4.6308,4.6308,4.6308,4.6308,4.6308,4.6308,4.6308,4.6308,4.6308,4.6308,4.6308,4.6308,4.6308,4.6308,4.6308,4.6308,4.6308,4.6308,4.6308,4.6308,4.6308,4.6308,4.6308,4.6308,4.6308,4.6308,4.6308,4.6308,4.6308,4.6308,4.6308,4.6307,4.6306,4.6305,4.6303,4.63,4.6293,4.6306,4.6301,4.6301,4.6301,4.6301,4.6301,4.6301,4.6301,4.6301,4.6301,4.6301,4.6301,4.6301,4.6515,4.6905,4.7372,4.7802,1.765,2.0223,2.277,2.1574,2.2813,2.4157,2.3465,2.37,2.3602,2.1942,2.1751,2.1953,2.2177,2.2844,2.4285,2.7033,2.8547,3.1382,3.7123,4.0561,4.3131,4.483,4.5789,4.6308,4.6308,4.6308,4.6308,4.6308,4.6308,4.6308,4.6308,4.6308,4.6308,4.6308,4.6308,4.6308,4.6308,4.6308,4.6308,4.6308,4.6308,4.6308,4.6308,4.6308,4.6308,4.6308,4.6308,4.6308,4.6308,4.6308,4.6308,4.6308,4.6308,4.6308,4.6308,4.6308,4.6308,4.6308,4.6308,4.6308,4.6308,4.6308,4.6308,4.6308,4.6308,4.6308,4.6308,4.6308,4.6308,4.6308,4.6308,4.6308,4.6308,4.6308,4.6308,4.6308,4.6308,4.6308,4.6308,4.6308,4.6308,4.6308,4.6308,4.6308,4.6308,4.6308,4.6308,4.6307,4.6307,4.6304,4.6301,4.6301,4.6297,4.6294,4.6293,4.6306,4.6302,4.6301,4.6301,4.6301,4.6301,4.6301,4.6301,4.6301,4.6301,4.6301,4.6301,4.6436,4.6885,4.7607,4.786,4.8348,1.9198,2.0878,2.1561,1.7939,1.9431,2.1748,2.1611,2.2792,2.3828,2.3463,2.356,2.4158,2.5615,2.5959,2.7111,3.0477,3.3608,3.7249,4.1921,4.3054,4.4064,4.5856,4.621,4.6308,4.6308,4.6308,4.6308,4.6308,4.6308,4.6308,4.6308,4.6308,4.6308,4.6308,4.6308,4.6308,4.6308,4.6308,4.6308,4.6308,4.6308,4.6308,4.6308,4.6308,4.6308,4.6308,4.6308,4.6308,4.6308,4.6308,4.6308,4.6308,4.6308,4.6308,4.6308,4.6308,4.6308,4.6308,4.6308,4.6308,4.6308,4.6308,4.6308,4.6308,4.6308,4.6308,4.6308,4.6308,4.6308,4.6308,4.6308,4.6308,4.6308,4.6308,4.6308,4.6308,4.6308,4.6308,4.6308,4.6308,4.6308,4.6308,4.6308,4.6308,4.6308,4.6308,4.6308,4.6307,4.6307,4.6304,4.6301,4.6301,4.6301,4.6299,4.6293,4.6292,4.6308,4.6301,4.6301,4.6301,4.6301,4.6301,4.6301,4.6301,4.6301,4.6301,4.6301,4.7041,4.747,4.7626,4.905,4.9772,1.8562,2.04,2.1784,1.9007,2.1544,2.4621,2.4245,2.5141,2.5916,2.5426,2.5416,2.5754,2.6544,2.7441,2.9494,3.391,3.7563,4.0732,4.3202,4.3971,4.4788,4.6085,4.6288,4.6308,4.6308,4.6308,4.6308,4.6308,4.6308,4.6308,4.6308,4.6308,4.6308,4.6308,4.6308,4.6308,4.6308,4.6308,4.6308,4.6308,4.6308,4.6308,4.6308,4.6308,4.6308,4.6308,4.6308,4.6308,4.6308,4.6308,4.6308,4.6308,4.6308,4.6308,4.6308,4.6308,4.6308,4.6308,4.6308,4.6308,4.6308,4.6308,4.6308,4.6308,4.6308,4.6308,4.6308,4.6308,4.6308,4.6308,4.6308,4.6308,4.6308,4.6308,4.6308,4.6308,4.6308,4.6308,4.6308,4.6308,4.6308,4.6308,4.6308,4.6308,4.6308,4.6308,4.6308,4.6306,4.6305,4.6301,4.6296,4.6293,4.6292,4.6291,4.6306,4.6306,4.6305,4.6301,4.6301,4.6301,4.6301,4.6301,4.6301,4.6301,4.6301,4.6534,4.7002,4.7392,4.8074,4.8972,4.9733,5.0358,1.8219,2.0097,2.2089,2.1061,2.4015,2.7135,2.7031,2.7629,2.8126,2.7861,2.8005,2.8174,2.8198,2.9793,3.2673,3.7483,4.0712,4.2963,4.4006,4.4777,4.5474,4.6136,4.6267,4.6308,4.6308,4.6308,4.6308,4.6308,4.6308,4.6308,4.6308,4.6308,4.6308,4.6308,4.6308,4.6308,4.6308,4.6308,4.6308,4.6308,4.6308,4.6308,4.6308,4.6308,4.6308,4.6308,4.6308,4.6308,4.6308,4.6308,4.6308,4.6308,4.6288,4.6287,4.6287,4.6287,4.6287,4.6288,4.6289,4.6288,4.6264,4.6267,4.6266,4.6264,4.6267,4.6266,4.6264,4.6267,4.6287,4.6288,4.6308,4.6308,4.6308,4.6308,4.6308,4.6308,4.6308,4.6308,4.6308,4.6308,4.6308,4.6308,4.6308,4.6308,4.6308,4.6308,4.6308,4.6305,4.6302,4.6296,4.6308,4.6302,4.6301,4.6301,4.6301,4.6301,4.6301,4.6301,4.6301,4.6301,4.6301,4.6301,4.6301,4.6301,4.6495,4.6924,4.7607,4.7996,4.8855,5.0104,5.0319,5.0769,1.9661,2.0683,2.1677,2.2419,2.4096,2.5976,2.7559,2.8524,2.9539,3.1113,3.2022,3.2568,3.2626,3.4734,3.7667,4.141,4.2846,4.4105,4.5858,4.6152,4.6211,4.6289,4.6308,4.6308,4.6308,4.6308,4.6308,4.6308,4.6308,4.6308,4.6308,4.6308,4.6308,4.6308,4.6308,4.6308,4.6308,4.6308,4.6308,4.6308,4.6308,4.6308,4.6308,4.6308,4.6308,4.6308,4.6308,4.6308,4.6308,4.6308,4.6308,4.6289,4.6237,4.6206,4.6206,4.6206,4.6206,4.6211,4.6288,4.6212,4.6126,4.6195,4.616,4.6126,4.6196,4.6159,4.6128,4.6197,4.6206,4.6213,4.6288,4.6308,4.6308,4.6308,4.6308,4.6308,4.6308,4.6308,4.6308,4.6308,4.6308,4.6308,4.6308,4.6308,4.6308,4.6308,4.6306,4.6302,4.6301,4.6291,4.6301,4.6301,4.6301,4.6301,4.6301,4.6301,4.6301,4.6301,4.6301,4.6301,4.6301,4.6301,4.6301,4.6301,4.7099,4.7548,4.7607,4.9167,4.9987,5.0124,5.0925,5.1336,1.8713,2.0761,2.2913,2.2231,2.4514,2.7412,2.9161,3.0216,3.1455,3.3705,3.4475,3.4911,3.5482,3.7328,3.9542,4.2008,4.3566,4.49,4.6133,4.6308,4.6308,4.6308,4.6308,4.6308,4.6308,4.6308,4.6308,4.6308,4.6308,4.6308,4.6308,4.6308,4.6308,4.6308,4.6308,4.6308,4.6308,4.6308,4.6308,4.6308,4.6308,4.6308,4.6308,4.6308,4.6308,4.6308,4.6308,4.6287,4.6239,4.6239,4.621,4.6166,4.6146,4.6138,4.6138,4.6138,4.6138,4.6141,4.6161,4.6142,4.6105,4.6131,4.6122,4.6105,4.6131,4.6122,4.6105,4.6131,4.6138,4.6151,4.6213,4.6267,4.6308,4.6308,4.6308,4.6308,4.6308,4.6308,4.6308,4.6308,4.6308,4.6308,4.6308,4.6308,4.6308,4.6308,4.6307,4.6305,4.6302,4.6295,4.6306,4.6301,4.6301,4.6301,4.6301,4.6301,4.6301,4.6301,4.6301,4.6301,4.6301,4.6301,4.6554,4.7099,4.7431,4.8113,4.9167,4.9792,5.0378,5.0925,5.1258,5.1394,1.842,2.0811,2.3484,2.2615,2.4971,2.8254,3.1083,3.218,3.332,3.5927,3.6535,3.6984,3.814,3.9149,4.0454,4.247,4.4041,4.5293,4.6172,4.6308,4.6308,4.6308,4.6308,4.6308,4.6308,4.6308,4.6308,4.6308,4.6308,4.6308,4.6308,4.6308,4.6308,4.6308,4.6308,4.6308,4.6308,4.6308,4.6308,4.6308,4.6288,4.6288,4.6308,4.6288,4.6267,4.6266,4.6242,4.6208,4.6162,4.6162,4.6129,4.6062,4.6062,4.6062,4.6062,4.6062,4.6062,4.6066,4.6091,4.6066,4.6004,4.6052,4.6044,4.6004,4.6054,4.6042,4.6004,4.6054,4.6062,4.6076,4.6126,4.6195,4.6239,4.6239,4.6239,4.6241,4.6266,4.6267,4.6269,4.6308,4.6308,4.6308,4.6308,4.6308,4.6308,4.6308,4.6306,4.6303,4.63,4.6294,4.6307,4.6301,4.6301,4.6301,4.6301,4.6301,4.6301,4.6301,4.6554,4.671,4.671,4.671,4.712,4.7958,4.8251,4.8953,5.0104,5.0378,5.0827,5.1394,5.1394,5.1394,1.9207,2.0874,2.302,2.3893,2.5449,2.8082,3.3227,3.4351,3.5073,3.7771,3.8378,3.8987,4.0771,4.0408,4.0671,4.3281,4.4433,4.5293,4.6172,4.6308,4.6308,4.6308,4.6308,4.6308,4.6308,4.6308,4.6308,4.6308,4.6308,4.6308,4.6308,4.6308,4.6308,4.6308,4.6308,4.6308,4.6308,4.6308,4.6308,4.6308,4.6237,4.6238,4.6308,4.6236,4.6202,4.62,4.6129,4.61,4.6098,4.6098,4.6069,4.5999,4.5999,4.5999,4.5999,4.5999,4.5999,4.6015,4.607,4.5978,4.5827,4.5942,4.5917,4.5811,4.5964,4.5914,4.5834,4.5967,4.5999,4.5999,4.5999,4.6054,4.6098,4.61,4.61,4.612,4.6174,4.6209,4.6221,4.6289,4.6305,4.6302,4.6301,4.6301,4.6301,4.6301,4.6297,4.6293,4.6293,4.6306,4.6301,4.6301,4.6301,4.6301,4.6301,4.6301,4.6301,4.6301,4.7139,4.7607,4.7607,4.7607,4.7997,4.8798,4.9656,5.0104,5.0104,5.0983,5.1394,5.1394,5.1394,5.1394,2.0121,2.1766,2.3929,2.4797,2.7702,3.1078,3.3843,3.4887,3.6221,3.9517,4.0258,4.0656,4.1793,4.1795,4.2284,4.4297,4.4824,4.5293,4.6172,4.6308,4.6308,4.6308,4.6308,4.6308,4.6308,4.6308,4.6308,4.6308,4.6308,4.6308,4.6308,4.6308,4.6308,4.6308,4.6308,4.6288,4.6237,4.6236,4.6206,4.6156,4.6139,4.616,4.6235,4.6156,4.6131,4.6129,4.6109,4.6068,4.6022,4.5925,4.5886,4.5867,4.5867,4.5867,4.5867,4.5867,4.5867,4.5854,4.5876,4.5858,4.5814,4.5854,4.5822,4.5814,4.5858,4.5841,4.5814,4.5858,4.5867,4.5867,4.5867,4.588,4.5911,4.6074,4.61,4.6105,4.6126,4.6123,4.6147,4.6221,4.6228,4.623,4.6284,4.6301,4.6301,4.6301,4.6297,4.6291,4.6305,4.6302,4.6301,4.6301,4.6301,4.6301,4.6301,4.6828,4.7147,4.7147,4.7928,4.8144,4.7628,4.8134,4.8836,4.9695,4.9967,5.0398,5.1022,5.1277,5.1394,5.1394,5.1394,5.1394,2.1174,2.3211,2.5461,2.6684,2.9747,3.3187,3.5942,3.6959,3.8021,4.053,4.0812,4.0991,4.2187,4.2402,4.2969,4.4726,4.5293,4.5703,4.623,4.6308,4.6308,4.6308,4.6308,4.6289,4.6265,4.6288,4.6289,4.6265,4.6265,4.6267,4.6308,4.6243,4.6237,4.6265,4.6265,4.6235,4.6158,4.6195,4.6161,4.61,4.6068,4.6078,4.612,4.6074,4.6052,4.6069,4.5993,4.5958,4.5904,4.5822,4.5803,4.5803,4.5803,4.5803,4.5803,4.5803,4.5803,4.5803,4.5803,4.5803,4.5803,4.5803,4.5803,4.5803,4.5803,4.5803,4.5803,4.5803,4.5803,4.5803,4.5803,4.5803,4.5828,4.5944,4.5974,4.6008,4.6054,4.6061,4.6099,4.6178,4.6192,4.6204,4.6249,4.6267,4.6265,4.6296,4.6291,4.6306,4.6301,4.6301,4.6286,4.6258,4.6572,4.6771,4.6737,4.7498,4.7981,4.7981,4.8767,4.9028,4.8574,4.9022,4.9704,5.0594,5.0613,5.0861,5.1394,5.1394,5.1394,5.1394,5.1394,5.1394,2.2218,2.4754,2.7155,2.9135,3.1711,3.4825,3.881,3.9822,4.0157,4.0934,4.0522,4.0508,4.2109,4.2461,4.3066,4.4726,4.5723,4.6308,4.6308,4.6289,4.6289,4.6289,4.6288,4.6264,4.6201,4.6242,4.6264,4.62,4.6198,4.6212,4.6288,4.6161,4.6131,4.6201,4.6199,4.6158,4.61,4.6153,4.6147,4.6078,4.6013,4.5986,4.5986,4.5986,4.5986,4.5978,4.5841,4.5803,4.5803,4.5803,4.5803,4.5803,4.5803,4.5803,4.5803,4.5803,4.5803,4.5803,4.5803,4.5803,4.5803,4.5803,4.5803,4.5803,4.5803,4.5803,4.5803,4.5803,4.5803,4.5803,4.5803,4.5803,4.5803,4.5803,4.5803,4.5832,4.596,4.5988,4.6039,4.6168,4.619,4.6189,4.621,4.6191,4.621,4.6271,4.6285,4.6285,4.6285,4.6288,4.6299,4.6308,4.7011,4.7495,4.7511,4.8301,4.8804,4.8804,4.9623,5.0111,5.0111,5.012,5.0511,5.1367,5.1406,5.1404,5.1385,5.1402,5.1402,5.1385,5.1401,5.14,2.2387,2.4309,2.6695,3.0499,3.4433,3.7827,3.9485,4.0408,4.0934,4.1074,4.0991,4.1211,4.2226,4.2969,4.3769,4.4824,4.5723,4.6308,4.6308,4.6244,4.6213,4.6213,4.6187,4.6138,4.6123,4.6135,4.6138,4.6123,4.6123,4.6129,4.6142,4.6117,4.6131,4.6201,4.6147,4.6115,4.61,4.6054,4.5976,4.5857,4.5848,4.5832,4.5832,4.5832,4.5832,4.5832,4.5817,4.5803,4.5803,4.5803,4.5803,4.5803,4.5803,4.5803,4.5803,4.5803,4.5803,4.5803,4.5803,4.5803,4.5803,4.5803,4.5803,4.5803,4.5803,4.5803,4.5803,4.5803,4.5803,4.5803,4.5803,4.5803,4.5803,4.5803,4.5803,4.5824,4.5909,4.5929,4.5955,4.6096,4.611,4.6142,4.6189,4.6194,4.6202,4.621,4.6229,4.6229,4.6229,4.6229,4.6454,4.7072,4.7305,4.7692,4.8364,4.9163,4.9641,4.9641,5.0458,5.0943,5.0943,5.0997,5.1125,5.1328,5.1365,5.1366,5.1318,5.1367,5.1367,5.1318,5.1387,5.1405,2.2605,2.4817,2.7321,3.2097,3.5632,3.8277,3.9609,4.0254,4.0683,4.1069,4.117,4.1445,4.2246,4.2773,4.3359,4.4195,4.4702,4.4992,4.4961,4.5292,4.553,4.553,4.587,4.6086,4.6063,4.6078,4.6084,4.6044,4.6039,4.6078,4.6098,4.6002,4.5995,4.6102,4.6064,4.6019,4.5968,4.5982,4.5922,4.5803,4.5803,4.5803,4.5803,4.5803,4.5803,4.5803,4.5803,4.5803,4.5803,4.5803,4.5803,4.5803,4.5803,4.5803,4.5803,4.5803,4.5803,4.5803,4.5803,4.5803,4.5803,4.5803,4.5803,4.5803,4.5803,4.5803,4.5803,4.5803,4.5803,4.5803,4.5803,4.5803,4.5803,4.5803,4.5803,4.5821,4.5893,4.5899,4.5925,4.6025,4.6052,4.6068,4.6141,4.619,4.6209,4.6203,4.6205,4.6205,4.6205,4.6545,4.6935,4.7358,4.8115,4.8784,4.9235,5.0049,5.0525,5.0525,5.0942,5.1199,5.1199,5.1234,5.1245,5.1258,5.1287,5.1299,5.1297,5.1334,5.1334,5.1297,5.1335,5.134,2.1697,2.4862,2.8097,3.3046,3.5684,3.748,3.9082,3.9687,4.0098,4.082,4.1094,4.1406,4.207,4.2304,4.2595,4.3262,4.3488,4.357,4.3505,4.4109,4.4607,4.4761,4.5408,4.5873,4.5961,4.6012,4.6026,4.5978,4.5969,4.5993,4.6054,4.5891,4.5851,4.5997,4.598,4.5913,4.5844,4.591,4.592,4.5803,4.5803,4.5803,4.5803,4.5803,4.5803,4.5803,4.5803,4.5803,4.5803,4.5803,4.5803,4.5803,4.5803,4.5803,4.5803,4.5803,4.5803,4.5803,4.5803,4.5803,4.5803,4.5803,4.5803,4.5803,4.5803,4.5803,4.5803,4.5803,4.5803,4.5803,4.5803,4.5803,4.5803,4.5803,4.581,4.5834,4.5896,4.5914,4.5935,4.5991,4.5999,4.603,4.6068,4.6138,4.6173,4.6173,4.6173,4.6173,4.6173,4.6887,4.7446,4.7599,4.8974,4.9958,5.0106,5.0794,5.1199,5.1199,5.1199,5.1199,5.1199,5.1199,5.1208,5.1198,5.1195,5.1227,5.1272,5.128,5.128,5.1272,5.128,5.1285,1.7219,2.2209,2.7889,3.1601,3.4375,3.6426,3.7422,3.8828,3.9922,4.0059,4.0664,4.123,4.1348,4.1889,4.2345,4.2458,4.3052,4.3506,4.3499,4.3553,4.3867,4.462,4.4766,4.5076,4.5757,4.5832,4.5835,4.5834,4.5834,4.5822,4.5841,4.5808,4.5851,4.5997,4.5896,4.5864,4.5978,4.5886,4.5824,4.5803,4.5803,4.5803,4.5803,4.5803,4.5803,4.5803,4.5803,4.5803,4.5803,4.5803,4.5803,4.5803,4.5803,4.5803,4.5803,4.5803,4.5803,4.5803,4.5803,4.5803,4.5803,4.5803,4.5803,4.5803,4.5803,4.5803,4.5803,4.5803,4.5803,4.5803,4.5803,4.5803,4.5803,4.5803,4.585,4.5883,4.5902,4.5952,4.5981,4.5994,4.5999,4.6004,4.602,4.6062,4.6114,4.6114,4.6114,4.6114,4.6114,4.6829,4.7607,4.8352,4.9323,5.0212,5.095,5.1122,5.1199,5.1199,5.1199,5.1199,5.1199,5.1199,5.1208,5.1206,5.12,5.1209,5.1208,5.1202,5.122,5.1211,5.1204,5.1218,1.8477,2.2824,2.7109,3.0605,3.3027,3.4902,3.6269,3.7539,3.8574,3.9062,3.9842,4.0559,4.1047,4.141,4.1604,4.1523,4.1815,4.203,4.1998,4.2349,4.2759,4.3144,4.3592,4.4191,4.5045,4.5123,4.5316,4.5765,4.5803,4.5803,4.5803,4.5803,4.5834,4.5896,4.5838,4.5834,4.5896,4.5838,4.5803,4.5803,4.5803,4.5803,4.5803,4.5803,4.5803,4.5803,4.5803,4.5803,4.5803,4.5803,4.5803,4.5803,4.5803,4.5803,4.5803,4.5803,4.5803,4.5803,4.5803,4.5803,4.5803,4.5803,4.5803,4.581,4.585,4.5857,4.586,4.5861,4.5864,4.5864,4.5864,4.5864,4.5864,4.5864,4.5912,4.5959,4.5955,4.5986,4.6006,4.5994,4.5999,4.5999,4.5999,4.602,4.6048,4.6048,4.6048,4.6223,4.6707,4.7502,4.8366,4.9243,5.0117,5.0775,5.116,5.1199,5.1199,5.1199,5.1199,5.1199,5.1199,5.1199,5.1199,5.1199,5.1194,5.1194,5.1199,5.1194,5.1194,5.1202,5.1197,5.1198,1.8961,2.2259,2.496,2.8652,3.1172,3.3164,3.4687,3.6035,3.7148,3.7772,3.874,3.9658,4.0265,4.0747,4.101,4.0913,4.0886,4.0859,4.0809,4.1316,4.1777,4.197,4.257,4.3301,4.4191,4.4268,4.452,4.5126,4.5378,4.5494,4.5494,4.5687,4.5803,4.5803,4.5803,4.5803,4.5803,4.5803,4.5803,4.5803,4.5803,4.5803,4.5803,4.5803,4.5803,4.5803,4.5803,4.5803,4.5803,4.5803,4.5803,4.5803,4.5803,4.5803,4.5803,4.5803,4.5803,4.5803,4.5803,4.5803,4.5803,4.5803,4.581,4.5824,4.587,4.5906,4.5896,4.5902,4.5908,4.5908,4.5908,4.5908,4.5908,4.5908,4.5955,4.5997,4.6006,4.6008,4.5994,4.5997,4.5999,4.5999,4.5999,4.5999,4.6077,4.631,4.6329,4.6657,4.7528,4.8386,4.9185,4.9829,5.0678,5.1199,5.1199,5.1199,5.1199,5.1199,5.1199,5.1199,5.1199,5.1199,5.1199,5.1199,5.1199,5.1199,5.1199,5.1199,5.1199,5.1199,5.1199,5.1199,1.5754,1.8277,2.0642,2.4902,2.8515,3.1269,3.2187,3.4297,3.6054,3.6039,3.7381,3.8532,3.8457,3.9801,4.0919,4.091,4.0843,4.0803,4.0797,4.0832,4.1142,4.1912,4.2048,4.2415,4.3282,4.3359,4.3379,4.344,4.4191,4.4655,4.4655,4.5397,4.5803,4.5803,4.5803,4.5803,4.5803,4.5803,4.5803,4.5803,4.5803,4.5803,4.5803,4.5803,4.5803,4.5803,4.5803,4.5803,4.5803,4.5803,4.5803,4.5803,4.5803,4.5803,4.5803,4.5803,4.5803,4.5803,4.5803,4.5803,4.5803,4.5803,4.5847,4.5896,4.59,4.5903,4.5908,4.5908,4.5908,4.5908,4.5908,4.5908,4.5908,4.5908,4.5955,4.6003,4.5991,4.5999,4.5999,4.5999,4.5999,4.5999,4.5999,4.5999,4.6271,4.7101,4.7237,4.7548,4.8425,4.9282,4.9848,4.9906,5.0678,5.1199,5.1199,5.1199,5.1199,5.1199,5.1199,5.1199,5.1199,5.1199,5.1199,5.1199,5.1199,5.1199,5.1199,5.1199,5.1199,5.1199,5.1199,5.1199,1.5288,1.7145,1.9352,2.3104,2.582,2.7949,2.9375,3.1699,3.369,3.4181,3.5619,3.6905,3.7378,3.8892,4.0056,4.0004,4.0459,4.0797,4.0797,4.0797,4.091,4.12,4.1238,4.1567,4.2396,4.2473,4.2705,4.3263,4.3592,4.3766,4.3766,4.404,4.4446,4.5007,4.5026,4.5278,4.5784,4.5803,4.5803,4.5803,4.5803,4.5803,4.5803,4.5803,4.5803,4.5803,4.5803,4.5803,4.5803,4.5803,4.5803,4.5803,4.5803,4.5803,4.5803,4.5803,4.5803,4.5803,4.5803,4.5803,4.5803,4.5803,4.585,4.5903,4.5906,4.5934,4.5963,4.5964,4.5969,4.5969,4.5969,4.5969,4.5969,4.5969,4.5978,4.6008,4.5999,4.5999,4.5999,4.5999,4.5999,4.5999,4.5999,4.6463,4.6948,4.7256,4.7781,4.8444,4.9321,4.9709,5.0117,5.0678,5.1008,5.1199,5.1199,5.1199,5.1199,5.1199,5.1199,5.1199,5.1199,5.1199,5.1199,5.1199,5.1199,5.1199,5.1199,5.1199,5.1199,5.1199,5.1199,5.1199,1.4409,1.603,1.8315,2.1461,2.3553,2.535,2.7401,2.9668,3.1542,3.2333,3.382,3.5193,3.5989,3.731,3.8452,3.8971,3.9788,4.0352,4.0352,4.0623,4.0797,4.0797,4.0797,4.1006,4.1548,4.1606,4.1835,4.2415,4.2705,4.286,4.286,4.3147,4.3708,4.4578,4.4597,4.4987,4.5784,4.5803,4.5803,4.5803,4.5803,4.5803,4.5803,4.5803,4.5803,4.5803,4.5803,4.5803,4.5803,4.5803,4.5803,4.5803,4.5803,4.5803,4.5803,4.5803,4.5803,4.5803,4.5803,4.5803,4.5803,4.5803,4.5857,4.5899,4.5902,4.5958,4.5994,4.5994,4.5999,4.5999,4.5999,4.5999,4.5999,4.5999,4.5999,4.5999,4.5999,4.5999,4.5999,4.5999,4.5999,4.6096,4.6388,4.6929,4.7509,4.8075,4.8677,4.936,5.0214,5.0331,5.0561,5.1141,5.1199,5.1199,5.1199,5.1199,5.1199,5.1199,5.1199,5.1199,5.1199,5.1199,5.1199,5.1199,5.1199,5.1199,5.1199,5.1199,5.1199,5.1199,5.1199,5.1199,0.0,0.0,0.0,1.9856,2.1733,2.3628,2.6229,2.8183,2.9666,3.0426,3.1987,3.3454,3.4199,3.5049,3.6168,3.7828,3.8859,3.9462,3.9462,4.0197,4.0736,4.0758,4.0758,4.0774,4.0797,4.0797,4.0797,4.0797,4.1529,4.1951,4.1951,4.2783,4.365,4.4501,4.4578,4.4968,4.5765,4.5784,4.5803,4.5803,4.5803,4.5803,4.5803,4.5803,4.5803,4.5803,4.5803,4.5803,4.5803,4.5803,4.5803,4.5803,4.5803,4.5803,4.5803,4.5803,4.5803,4.5803,4.5803,4.5803,4.5803,4.5803,4.5854,4.5908,4.5908,4.5953,4.5999,4.5999,4.5999,4.5999,4.5999,4.5999,4.5999,4.5999,4.5999,4.5999,4.5999,4.5999,4.5999,4.5999,4.5999,4.6271,4.712,4.7295,4.792,4.9612,4.9906,5.0234,5.1086,5.1199,5.1199,5.1199,5.1199,5.1199,5.1199,5.1199,5.1199,5.1199,5.1199,5.1199,5.1199,5.1199,5.1199,5.1199,5.1199,5.1199,5.1199,5.1199,5.1199,5.1199,5.1199,5.1199,1.4289,0.0,0.0,0.0,0.0,0.0,2.193,2.418,2.6242,2.7653,2.98,3.1639,3.2382,3.3226,3.4173,3.5262,3.7193,3.8566,3.8566,3.8776,3.9146,3.9771,3.9868,4.012,4.0739,4.0797,4.0797,4.0797,4.1006,4.1122,4.1122,4.1912,4.2473,4.2705,4.394,4.4713,4.4926,4.5513,4.5803,4.5803,4.5803,4.5803,4.5803,4.5803,4.5803,4.5803,4.5803,4.5803,4.5803,4.5803,4.5803,4.5803,4.5803,4.5803,4.5803,4.5803,4.5803,4.5803,4.5803,4.5803,4.5803,4.5803,4.5854,4.5908,4.5908,4.5953,4.5999,4.5999,4.5999,4.5999,4.5999,4.5999,4.5999,4.5999,4.5999,4.5999,4.5999,4.5999,4.5999,4.5999,4.5999,4.6077,4.6329,4.7414,4.8405,4.8894,5.0037,5.093,5.116,5.1199,5.1199,5.1199,5.1199,5.1199,5.1199,5.1199,5.1199,5.1199,5.1199,5.1199,5.1199,5.1199,5.1199,5.1199,5.1199,5.1199,5.1199,5.1199,5.1199,5.1199,5.1199,5.1199,1.6338,1.7373,1.9052,1.8913,0.0,0.0,2.1714,2.3339,2.4879,2.6544,2.8371,2.989,3.0651,3.1207,3.1931,3.3117,3.456,3.603,3.7461,3.7964,3.8389,3.8898,3.8956,3.9304,4.0178,4.0255,4.041,4.0774,4.0797,4.0797,4.0797,4.1238,4.1641,4.199,4.2995,4.3862,4.4597,4.5065,4.5474,4.5803,4.5803,4.5803,4.5803,4.5803,4.5803,4.5803,4.5803,4.5803,4.5803,4.5803,4.5803,4.5803,4.5803,4.5803,4.5803,4.5803,4.5803,4.5803,4.5803,4.5803,4.5803,4.5803,4.5854,4.5908,4.5908,4.5953,4.5999,4.5999,4.5999,4.5999,4.5999,4.5999,4.5999,4.5999,4.5999,4.5999,4.5999,4.5999,4.5999,4.5999,4.5999,4.6116,4.6482,4.7686,4.8716,4.9088,5.0328,5.1199,5.1199,5.1199,5.1199,5.1199,5.1199,5.1199,5.1199,5.1199,5.1199,5.1199,5.1199,5.1199,5.1199,5.1199,5.1199,5.1199,5.1199,5.1194,5.12,5.1194,5.1199,5.1199,5.1199,5.1199,1.8759,1.9559,2.1003,2.149,2.1178,0.0,2.3355,2.4059,2.4648,2.6041,2.7185,2.8124,2.8849,2.9135,2.9768,3.1283,3.162,3.2834,3.6168,3.7287,3.7848,3.8022,3.806,3.8392,3.9268,3.9365,3.9713,4.0584,4.0758,4.0797,4.0797,4.0797,4.1122,4.1835,4.1951,4.2744,4.4307,4.4501,4.4968,4.5668,4.5765,4.5803,4.5803,4.5803,4.5803,4.5803,4.5803,4.5803,4.5803,4.5803,4.5803,4.5803,4.5803,4.5803,4.5803,4.5803,4.5803,4.5803,4.5803,4.5807,4.581,4.581,4.5861,4.5914,4.5914,4.5955,4.5999,4.5999,4.5999,4.5999,4.5999,4.5999,4.5999,4.5999,4.5999,4.5999,4.5999,4.5999,4.5999,4.5999,4.5999,4.6252,4.7023,4.7958,4.8855,4.9632,5.0581,5.1199,5.1199,5.1199,5.1199,5.1199,5.1199,5.1199,5.1199,5.1199,5.1199,5.1199,5.1199,5.1199,5.1199,5.1199,5.1199,5.1199,5.1199,5.1192,5.1208,5.1197,5.1194,5.12,5.12,5.12,2.0555,2.1335,2.2154,2.028,2.0729,0.0,2.0497,2.1873,2.3242,2.2866,2.4553,2.6154,2.6304,2.7438,2.8691,2.9703,3.0455,3.1841,3.4501,3.5029,3.5648,3.6997,3.7151,3.75,3.837,3.8447,3.8818,3.9694,4.041,4.0797,4.0797,4.0797,4.0871,4.1026,4.1661,4.2164,4.2492,4.3901,4.4675,4.4829,4.5494,4.5803,4.5803,4.5803,4.5803,4.5803,4.5803,4.5803,4.5803,4.5803,4.5803,4.5803,4.5803,4.5803,4.5803,4.5803,4.5803,4.5803,4.5803,4.5843,4.589,4.589,4.5935,4.5986,4.5986,4.5992,4.5999,4.5999,4.5999,4.5999,4.5999,4.5999,4.5999,4.5999,4.5999,4.5999,4.5999,4.5999,4.5999,4.5999,4.5999,4.6057,4.6213,4.7553,4.8658,4.8835,5.0192,5.1199,5.1199,5.1199,5.1199,5.1199,5.1199,5.1199,5.1199,5.1199,5.1199,5.1199,5.1199,5.1199,5.1199,5.1199,5.1199,5.1199,5.1199,5.1192,5.1208,5.1198,5.1235,5.1274,5.1274,5.1274,2.3071,2.3423,2.4087,2.2818,2.2817,0.0,0.0,2.2808,2.3358,2.4219,2.4374,2.474,2.6018,2.6257,2.6665,2.7949,2.8524,2.9536,3.161,3.3035,3.4143,3.4919,3.5027,3.5541,3.6828,3.6942,3.7483,3.876,3.9652,4.0158,4.0158,4.0565,4.0797,4.0797,4.118,4.1587,4.2009,4.2879,4.3746,4.4597,4.5007,4.5416,4.5803,4.5803,4.5803,4.5803,4.5803,4.5803,4.5803,4.5803,4.5803,4.5803,4.5803,4.5803,4.5803,4.5803,4.5817,4.5854,4.5854,4.5877,4.5906,4.5906,4.5956,4.5997,4.5997,4.5997,4.5999,4.5999,4.5999,4.5999,4.5999,4.5999,4.5999,4.5999,4.5999,4.5999,4.5999,4.5999,4.5999,4.5999,4.5999,4.5999,4.5999,4.7084,4.8094,4.8522,4.9707,5.0717,5.1141,5.1199,5.1199,5.1199,5.1199,5.1199,5.1199,5.1199,5.1199,5.1199,5.1199,5.1199,5.1199,5.1199,5.1199,5.1199,5.1192,5.1215,5.1245,5.1288,5.1298,5.13,5.13,5.13,2.5764,2.5667,2.6117,2.5785,2.5413,2.516,0.0,0.0,0.0,2.5873,2.4701,2.3982,2.6035,2.5447,2.5091,2.6441,2.6804,2.7323,2.8501,3.0646,3.2223,3.2584,3.269,3.3308,3.4819,3.4961,3.5733,3.7586,3.8213,3.8804,3.9462,4.0178,4.0623,4.0794,4.0797,4.1103,4.1757,4.1912,4.2705,4.4094,4.4442,4.4949,4.5571,4.5726,4.5803,4.5803,4.5803,4.5803,4.5807,4.5814,4.5817,4.5814,4.5807,4.581,4.5817,4.5817,4.5857,4.5909,4.5909,4.5912,4.592,4.592,4.596,4.6006,4.6006,4.6003,4.5999,4.5999,4.5999,4.5999,4.5999,4.5999,4.5999,4.5999,4.5999,4.5999,4.5999,4.5999,4.5999,4.5999,4.5999,4.5999,4.5999,4.6715,4.7548,4.825,4.9224,5.0156,5.0853,5.1105,5.1199,5.1199,5.1199,5.1199,5.1199,5.1199,5.1199,5.1199,5.1199,5.1199,5.1199,5.1199,5.1199,5.1199,5.12,5.1234,5.13,5.1377,5.1364,5.1323,5.1323,5.1323,2.8147,2.7932,2.7639,2.6097,2.6799,2.7073,2.4088,0.0,2.5044,2.3796,0.0,2.4341,2.4636,0.0,0.0,2.58,2.6483,2.6751,2.6121,2.7006,2.8525,3.0719,3.0981,3.1337,3.2248,3.233,3.3347,3.5808,3.5369,3.6309,3.9346,3.9597,4.0004,4.0777,4.0797,4.0832,4.0948,4.1641,4.2106,4.2318,4.3862,4.4655,4.4752,4.5474,4.5803,4.5803,4.5803,4.5803,4.5807,4.586,4.5893,4.589,4.5817,4.5843,4.5893,4.5893,4.5896,4.5905,4.5905,4.5946,4.5991,4.5991,4.5992,4.5997,4.5997,4.5997,4.5999,4.5999,4.5999,4.5999,4.5999,4.5999,4.5999,4.5999,4.5999,4.5999,4.5999,4.5999,4.5999,4.5999,4.5999,4.5999,4.5999,4.6715,4.7334,4.7431,4.8855,4.9945,5.002,5.0717,5.1199,5.1199,5.1199,5.1199,5.1199,5.1199,5.1199,5.1199,5.1199,5.1199,5.1199,5.1199,5.1199,5.1199,5.12,5.1234,5.13,5.1377,5.1405,5.1387,5.1387,5.1387,2.8654,2.8645,2.8708,2.7506,2.7728,2.7732,2.5809,2.5141,2.5023,2.5317,0.0,0.0,0.0,0.0,0.0,0.0,2.6012,2.5741,2.4355,2.4491,2.5663,2.8208,2.8498,2.9013,3.0319,3.0869,3.1598,3.2654,3.2832,3.3966,3.6406,3.7931,3.9149,4.0023,4.0545,4.0797,4.0797,4.1122,4.1548,4.2009,4.3243,4.4114,4.4636,4.5436,4.5803,4.5803,4.5803,4.5817,4.5857,4.5893,4.589,4.5906,4.5874,4.5877,4.5909,4.5909,4.5931,4.5958,4.5958,4.5978,4.6003,4.6003,4.5991,4.5999,4.5999,4.5999,4.5999,4.5999,4.5999,4.5999,4.5999,4.5999,4.5999,4.5999,4.5999,4.5999,4.5999,4.5999,4.5999,4.5999,4.5999,4.5999,4.5999,4.631,4.6715,4.7218,4.8347,4.9321,4.9829,5.0658,5.1199,5.1199,5.1199,5.1199,5.1199,5.1199,5.1199,5.1199,5.1199,5.1199,5.1199,5.1199,5.1199,5.1199,5.1232,5.1261,5.13,5.1378,5.1404,5.1394,5.1394,5.1394,2.9798,2.9764,2.9902,2.8622,2.8257,2.7948,2.6883,2.6039,2.5686,2.6488,2.5512,0.0,0.0,0.0,2.4964,2.5609,0.0,2.5086,2.3346,2.3097,2.3789,2.564,2.6495,2.7404,2.862,2.8846,2.9289,3.0205,3.016,3.1337,3.4258,3.6149,3.787,3.9443,4.012,4.0565,4.0797,4.0797,4.1084,4.168,4.2531,4.3405,4.4305,4.5101,4.5592,4.5834,4.5834,4.587,4.5893,4.5922,4.5921,4.5923,4.5932,4.5935,4.5935,4.5926,4.5963,4.6008,4.6008,4.6003,4.5999,4.5999,4.5999,4.5999,4.5999,4.5999,4.5999,4.5999,4.5999,4.5999,4.5999,4.5999,4.5999,4.5999,4.5999,4.5999,4.5999,4.5999,4.5999,4.5999,4.5999,4.5999,4.5999,4.5999,4.6213,4.6851,4.7686,4.8561,4.9437,5.0289,5.095,5.116,5.1199,5.1199,5.1199,5.1199,5.1199,5.1199,5.1199,5.1199,5.1199,5.1199,5.1208,5.1206,5.128,5.1304,5.1335,5.1374,5.1394,5.1394,5.1394,5.1394,3.2421,3.1992,3.1426,2.8914,2.8304,2.7855,2.6136,2.6995,2.7717,2.6078,2.7015,2.7639,2.6039,2.5707,2.5668,2.5707,2.5707,0.0,0.0,2.3092,2.3138,2.3203,2.5468,2.7011,2.7069,2.5561,2.5943,2.9196,2.7115,2.8257,3.4084,3.4471,3.6057,3.9385,3.952,3.9946,4.0794,4.0797,4.0813,4.0852,4.1664,4.2531,4.3472,4.4263,4.5096,4.5905,4.5905,4.5908,4.5911,4.596,4.5994,4.5997,4.6005,4.5997,4.5994,4.6006,4.5994,4.5999,4.5999,4.5999,4.5999,4.5999,4.5999,4.5999,4.5999,4.5999,4.5999,4.5999,4.5999,4.5999,4.5999,4.5999,4.5999,4.5999,4.5999,4.5999,4.5999,4.5999,4.5999,4.5999,4.5999,4.5999,4.5999,4.5999,4.6019,4.6038,4.6773,4.7664,4.8522,4.9399,5.0253,5.1102,5.1199,5.1199,5.1199,5.1199,5.1199,5.1199,5.1199,5.1199,5.1199,5.1199,5.1209,5.1206,5.1276,5.1339,5.1393,5.1402,5.1394,5.1394,5.1394,5.1394,0.0,3.3314,3.3132,3.0586,2.9941,2.9354,2.7081,2.7464,2.7814,2.6058,2.7093,2.7775,2.6019,2.5707,2.5707,2.5707,2.5707,2.4692,0.0,2.0944,2.079,2.1382,2.4216,2.5468,2.3727,2.4583,2.5232,2.5173,2.5915,2.7737,3.0856,3.3175,3.5436,3.7715,3.8901,3.9926,4.0794,4.0797,4.0803,4.0802,4.165,4.223,4.2592,4.4026,4.4827,4.513,4.5676,4.5923,4.596,4.5991,4.6008,4.6005,4.5997,4.5999,4.5999,4.6008,4.5991,4.5999,4.5999,4.5999,4.5999,4.5999,4.5999,4.5999,4.5999,4.5999,4.5999,4.5999,4.5999,4.5999,4.5999,4.5999,4.5999,4.5999,4.5999,4.5999,4.5999,4.5999,4.5999,4.5999,4.5999,4.5999,4.5999,4.5999,4.5999,4.5999,4.6735,4.7606,4.8483,4.936,5.0234,5.1102,5.1199,5.1199,5.1199,5.1199,5.1199,5.1199,5.1199,5.1199,5.1199,5.1199,5.1189,5.1208,5.1278,5.1339,5.1394,5.1402,5.1394,5.1394,5.1394,5.1394,3.3835,3.4143,0.0,3.1798,3.1228,3.056,2.8008,2.8337,2.8688,2.695,2.7491,2.8134,2.7578,2.65,2.5905,2.6499,2.6084,2.4711,0.0,2.0495,1.9968,2.0535,2.3076,2.4235,2.2869,2.3414,2.3873,2.395,2.4596,2.6251,2.9183,3.1709,3.4247,3.6859,3.8301,3.9614,4.0797,4.0806,4.0799,4.0817,4.1368,4.1817,4.2178,4.3596,4.4416,4.4774,4.5592,4.5955,4.5992,4.5992,4.6003,4.5999,4.5999,4.5999,4.5999,4.5999,4.5999,4.5999,4.5999,4.5999,4.5999,4.5999,4.5999,4.5999,4.5999,4.5999,4.5999,4.5999,4.5999,4.5999,4.5999,4.5999,4.5999,4.5999,4.5999,4.5999,4.5999,4.5999,4.5999,4.5999,4.5999,4.5999,4.5999,4.5999,4.5999,4.5999,4.6482,4.7143,4.8036,4.8894,4.9768,5.0639,5.1027,5.1199,5.1199,5.1199,5.1199,5.1199,5.1199,5.1199,5.1199,5.1203,5.1202,5.1234,5.13,5.1359,5.139,5.1407,5.1394,5.1394,5.1394,5.1394]}]]